Darstellungsparameter: Aktuell verwendete Einstellungen:
Skalierung der Graphiken ... ?
xyx+y,   Skalierungsfaktor:      Skalierung: Modus: x, Faktor: 1
Darstellungszeitraum ... ?
Vom - - bis: - -   Zeitraum: 03.05.2010 - 01.06.2010
Min/Max/Avg-Anzeige ... ?
Zeige MMA aktuell
Zeige MMA Monat
Zeige MMA alles
Zeige --A aktuell
Zeige --A Monat
Zeige --A alles
Keine MMA-Anzeige
MMA:
Average (ber die Originaldaten)
MMA-Basis: 03.05.2010 - 01.06.2010
Quicknavigation für Darstellung... ?
Tage:      1T, 2T, 3T, 5T -1T -2T -3T -5T +1T +2T +3T +5T
Wochen: 1W, 2W, 3W -1W -2W -3W +1W +2W +3W
Monate: 1M, 3M, 6M -1M -3M -6M +1M +3M +6M
Jahre:    1J, 3J, 5J, 10J -1J -3J -5J -10J +1J +3J +5J +10J
Nutze für die Darstellung ... ?
Originaldaten oder Mittelwerte auf ...
Stundenbasis Tagesbasis Wochenbasis
Monatsbasis Jahresbasis      Datenbasis: Original-Daten
Darstellen als:
Statistik (Auto) Statistik J:M      Darstellung:
Zur Graphik,    zurück zur Übersicht aller Sensoren.
 
Tabellarische Datenbersicht: ?
 
Sensor: Nr:Datum:Temp:Abs-Feuchte:Windchill:Wind:
Aussen-T/F 1 03-05-2010 00:07:04 10.1 C 7.28 g/m*3 10.1 C 0 km/h
2 03-05-2010 00:19:04 10 C 7.33 g/m*3 10 C 0 km/h
3 03-05-2010 00:31:04 9.9 C 7.38 g/m*3 9.9 C 0 km/h
4 03-05-2010 00:43:04 9.5 C 7.19 g/m*3 9.5 C 0 km/h
5 03-05-2010 00:55:04 9.3 C 7.19 g/m*3 9.3 C 0 km/h
6 03-05-2010 01:07:04 9.2 C 7.14 g/m*3 9.2 C 0 km/h
7 03-05-2010 01:19:04 9.1 C 7.1 g/m*3 9.1 C 0 km/h
8 03-05-2010 01:31:04 9.1 C 7.1 g/m*3 9.1 C 0 km/h
9 03-05-2010 01:43:04 8.7 C 7.09 g/m*3 8.7 C 0 km/h
10 03-05-2010 01:55:04 8.7 C 7.09 g/m*3 8.7 C 0 km/h
11 03-05-2010 02:07:04 8.5 C 7 g/m*3 8.5 C 0 km/h
12 03-05-2010 02:19:05 8.1 C 6.82 g/m*3 8.1 C 0 km/h
13 03-05-2010 02:31:05 8 C 6.78 g/m*3 8 C 0 km/h
14 03-05-2010 02:43:05 8 C 6.78 g/m*3 8 C 0 km/h
15 03-05-2010 02:55:05 8 C 6.78 g/m*3 8 C 0 km/h
16 03-05-2010 03:07:05 8.2 C 7.03 g/m*3 8.2 C 0 km/h
17 03-05-2010 03:19:05 8.2 C 7.03 g/m*3 8.2 C 0 km/h
18 03-05-2010 03:31:05 8 C 6.94 g/m*3 8 C 0 km/h
19 03-05-2010 03:43:05 8 C 7.03 g/m*3 8 C 0 km/h
20 03-05-2010 03:55:05 8.1 C 7.07 g/m*3 8.1 C 0 km/h
21 03-05-2010 04:07:05 8.2 C 7.12 g/m*3 8.2 C 0 km/h
22 03-05-2010 04:19:05 8.3 C 7.16 g/m*3 8.3 C 0 km/h
23 03-05-2010 04:31:05 8.4 C 7.21 g/m*3 8.4 C 0 km/h
24 03-05-2010 04:43:05 8.6 C 7.22 g/m*3 8.6 C 0 km/h
25 03-05-2010 04:55:05 8.6 C 7.22 g/m*3 8.6 C 0 km/h
Sensor: Nr:Datum:Temp:Abs-Feuchte:Windchill:Wind:
Aussen-T/F 26 03-05-2010 05:07:05 8.6 C 7.13 g/m*3 8.6 C 0 km/h
27 03-05-2010 05:19:05 8.6 C 7.13 g/m*3 8.6 C 0 km/h
28 03-05-2010 05:31:05 8.6 C 7.13 g/m*3 8.6 C 0 km/h
29 03-05-2010 05:43:05 8.7 C 7.18 g/m*3 8.7 C 0 km/h
30 03-05-2010 05:55:05 8.5 C 7.09 g/m*3 8.5 C 0 km/h
31 03-05-2010 06:07:05 8.6 C 7.13 g/m*3 8.6 C 0 km/h
32 03-05-2010 06:19:05 8.7 C 7.18 g/m*3 8.7 C 0 km/h
33 03-05-2010 06:31:05 8.6 C 7.13 g/m*3 8.6 C 0 km/h
34 03-05-2010 06:43:05 8.6 C 7.13 g/m*3 8.6 C 0 km/h
35 03-05-2010 06:55:02 8.5 C 7.09 g/m*3 8.5 C 0 km/h
36 03-05-2010 07:07:03 8.2 C 6.95 g/m*3 8.2 C 0 km/h
37 03-05-2010 07:19:02 8.3 C 7 g/m*3 8.3 C 0 km/h
38 03-05-2010 07:31:02 8.2 C 7.03 g/m*3 8.2 C 0 km/h
39 03-05-2010 07:43:02 8.5 C 7.17 g/m*3 8.5 C 0 km/h
40 03-05-2010 07:55:01 8.8 C 7.4 g/m*3 8.8 C 0 km/h
41 03-05-2010 08:07:02 9.1 C 7.28 g/m*3 9.1 C 0 km/h
42 03-05-2010 08:19:02 9.6 C 7.24 g/m*3 9.6 C 0 km/h
43 03-05-2010 08:31:02 10 C 6.86 g/m*3 10 C 0 km/h
44 03-05-2010 08:43:02 9.9 C 6.72 g/m*3 9.9 C 0 km/h
45 03-05-2010 08:55:02 10 C 6.67 g/m*3 10 C 0 km/h
46 03-05-2010 09:07:02 10.1 C 6.62 g/m*3 10.1 C 0 km/h
47 03-05-2010 09:19:02 10.6 C 6.83 g/m*3 10.6 C 0 km/h
48 03-05-2010 09:31:02 10.5 C 6.69 g/m*3 10.5 C 0 km/h
49 03-05-2010 09:43:02 10.8 C 6.82 g/m*3 10.8 C 0 km/h
50 03-05-2010 09:55:01 10.8 C 6.72 g/m*3 10.8 C 0 km/h
Sensor: Nr:Datum:Temp:Abs-Feuchte:Windchill:Wind:
Aussen-T/F 51 03-05-2010 10:07:02 10.8 C 6.72 g/m*3 10.8 C 0 km/h
52 03-05-2010 10:19:01 11 C 6.71 g/m*3 11 C 0 km/h
53 03-05-2010 10:31:01 10.9 C 6.76 g/m*3 10.9 C 0 km/h
54 03-05-2010 10:43:01 10.8 C 6.72 g/m*3 10.8 C 0 km/h
55 03-05-2010 10:55:01 11.5 C 6.92 g/m*3 11.5 C 0 km/h
56 03-05-2010 11:07:02 12.1 C 6.65 g/m*3 12.1 C 0 km/h
57 03-05-2010 11:19:01 11.9 C 6.67 g/m*3 11.9 C 0 km/h
58 03-05-2010 11:31:01 12.1 C 6.65 g/m*3 12.1 C 0 km/h
59 03-05-2010 11:43:01 14.1 C 6.8 g/m*3 14.1 C 0 km/h
60 03-05-2010 11:55:01 14.5 C 6.72 g/m*3 14.5 C 0 km/h
61 03-05-2010 12:07:01 14.7 C 6.55 g/m*3 14.7 C 0 km/h
62 03-05-2010 12:19:02 15.7 C 6.42 g/m*3 15.7 C 0 km/h
63 03-05-2010 12:31:01 15.2 C 6.23 g/m*3 15.2 C 0 km/h
64 03-05-2010 12:43:01 14.5 C 6.09 g/m*3 14.5 C 0 km/h
65 03-05-2010 12:55:02 13.6 C 6.94 g/m*3 13.6 C 0 km/h
66 03-05-2010 13:07:01 14.2 C 6.84 g/m*3 14.2 C 0 km/h
67 03-05-2010 13:19:01 14.9 C 6.88 g/m*3 14.9 C 0 km/h
68 03-05-2010 13:31:01 15.7 C 6.42 g/m*3 15.7 C 0 km/h
69 03-05-2010 13:43:01 16.7 C 6.25 g/m*3 16.7 C 0 km/h
70 03-05-2010 13:55:02 11.3 C 5.71 g/m*3 11.3 C 0 km/h
71 03-05-2010 14:07:02 11.2 C 6.28 g/m*3 11.2 C 0 km/h
72 03-05-2010 14:19:02 10.1 C 6.43 g/m*3 10.1 C 0 km/h
73 03-05-2010 14:31:01 9.1 C 6.83 g/m*3 9.1 C 0 km/h
74 03-05-2010 14:43:01 9 C 7.23 g/m*3 9 C 0 km/h
75 03-05-2010 14:55:02 8.4 C 7.13 g/m*3 8.4 C 0 km/h
Sensor: Nr:Datum:Temp:Abs-Feuchte:Windchill:Wind:
Aussen-T/F 76 03-05-2010 15:07:01 8.8 C 7.49 g/m*3 8.8 C 0 km/h
77 03-05-2010 15:19:02 9 C 7.67 g/m*3 9 C 0 km/h
78 03-05-2010 15:31:02 9.6 C 8.06 g/m*3 9.6 C 0 km/h
79 03-05-2010 15:43:02 10.2 C 8.18 g/m*3 10.2 C 0 km/h
80 03-05-2010 15:55:02 11.1 C 8.56 g/m*3 11.1 C 0 km/h
81 03-05-2010 16:07:02 11.1 C 7.86 g/m*3 11.1 C 0 km/h
82 03-05-2010 16:19:02 11 C 7.51 g/m*3 11 C 0 km/h
83 03-05-2010 16:31:02 10.2 C 7.23 g/m*3 10.2 C 0 km/h
84 03-05-2010 16:43:02 10.1 C 7.28 g/m*3 10.1 C 0 km/h
85 03-05-2010 16:55:01 10.5 C 7.37 g/m*3 10.5 C 0 km/h
86 03-05-2010 17:07:02 10.1 C 6.9 g/m*3 10.1 C 0 km/h
87 03-05-2010 17:19:01 10.4 C 7.42 g/m*3 10.4 C 0 km/h
88 03-05-2010 17:31:02 10.7 C 7.46 g/m*3 10.7 C 0 km/h
89 03-05-2010 17:43:03 11.4 C 7.49 g/m*3 11.4 C 0 km/h
90 03-05-2010 17:55:02 11.5 C 7.02 g/m*3 11.5 C 0 km/h
91 03-05-2010 18:07:02 11.3 C 7.14 g/m*3 11.3 C 0 km/h
92 03-05-2010 18:19:01 10.7 C 6.58 g/m*3 10.7 C 0 km/h
93 03-05-2010 18:31:02 10.9 C 6.96 g/m*3 10.9 C 0 km/h
94 03-05-2010 18:43:02 11 C 7.01 g/m*3 11 C 0 km/h
95 03-05-2010 18:55:02 10.9 C 6.66 g/m*3 10.9 C 0 km/h
96 03-05-2010 19:07:02 10.8 C 6.62 g/m*3 10.8 C 0 km/h
97 03-05-2010 19:19:01 10.7 C 6.58 g/m*3 10.7 C 0 km/h
98 03-05-2010 19:31:02 10.4 C 6.65 g/m*3 10.4 C 0 km/h
99 03-05-2010 19:43:02 10.3 C 6.42 g/m*3 10.3 C 0 km/h
100 03-05-2010 19:55:02 10.3 C 6.42 g/m*3 10.3 C 0 km/h
Sensor: Nr:Datum:Temp:Abs-Feuchte:Windchill:Wind:
Aussen-T/F 101 03-05-2010 20:07:02 10.1 C 6.15 g/m*3 10.1 C 0 km/h
102 03-05-2010 20:19:02 10 C 6.01 g/m*3 10 C 0 km/h
103 03-05-2010 20:31:02 9.8 C 6.12 g/m*3 9.8 C 0 km/h
104 03-05-2010 20:43:02 9.5 C 5.92 g/m*3 9.5 C 0 km/h
105 03-05-2010 20:55:01 9.3 C 6.11 g/m*3 9.3 C 0 km/h
106 03-05-2010 21:07:02 9.2 C 6.07 g/m*3 9.2 C 0 km/h
107 03-05-2010 21:19:02 9.2 C 6.25 g/m*3 9.2 C 0 km/h
108 03-05-2010 21:31:02 9.2 C 6.25 g/m*3 9.2 C 0 km/h
109 03-05-2010 21:43:02 8.9 C 6.39 g/m*3 8.9 C 0 km/h
110 03-05-2010 21:55:02 8.9 C 6.31 g/m*3 8.9 C 0 km/h
111 03-05-2010 22:07:02 8.8 C 6.44 g/m*3 8.8 C 0 km/h
112 03-05-2010 22:20:05 8.7 C 6.49 g/m*3 8.7 C 0 km/h
113 03-05-2010 22:32:05 8.5 C 6.49 g/m*3 8.5 C 0 km/h
114 03-05-2010 22:44:05 8.5 C 6.57 g/m*3 8.5 C 0 km/h
115 03-05-2010 22:56:05 8.4 C 6.45 g/m*3 8.4 C 0 km/h
116 03-05-2010 23:08:05 8.4 C 6.45 g/m*3 8.4 C 0 km/h
117 03-05-2010 23:20:05 8.4 C 6.53 g/m*3 8.4 C 0 km/h
118 03-05-2010 23:32:05 8.4 C 6.53 g/m*3 8.4 C 0 km/h
119 03-05-2010 23:44:05 8.3 C 6.49 g/m*3 8.3 C 0 km/h
120 03-05-2010 23:56:05 8.3 C 6.49 g/m*3 8.3 C 0 km/h
121 04-05-2010 00:08:05 8 C 6.37 g/m*3 8 C 0 km/h
122 04-05-2010 00:20:05 7.5 C 6.24 g/m*3 7.5 C 0 km/h
123 04-05-2010 00:32:05 7.2 C 6.28 g/m*3 7.2 C 0 km/h
124 04-05-2010 00:44:05 7.4 C 6.44 g/m*3 7.4 C 0 km/h
125 04-05-2010 00:56:05 7.8 C 6.69 g/m*3 7.8 C 0 km/h
Sensor: Nr:Datum:Temp:Abs-Feuchte:Windchill:Wind:
Aussen-T/F 126 04-05-2010 01:08:05 8 C 6.53 g/m*3 8 C 0 km/h
127 04-05-2010 01:20:06 8.1 C 6.49 g/m*3 8.1 C 0 km/h
128 04-05-2010 01:32:06 8.2 C 6.45 g/m*3 8.2 C 0 km/h
129 04-05-2010 01:44:06 8.3 C 6.49 g/m*3 8.3 C 0 km/h
130 04-05-2010 01:56:06 8.4 C 6.53 g/m*3 8.4 C 0 km/h
131 04-05-2010 02:08:06 8.4 C 6.53 g/m*3 8.4 C 0 km/h
132 04-05-2010 02:20:06 8.4 C 6.53 g/m*3 8.4 C 0 km/h
133 04-05-2010 02:32:06 8.4 C 6.53 g/m*3 8.4 C 0 km/h
134 04-05-2010 02:44:06 8.3 C 6.49 g/m*3 8.3 C 0 km/h
135 04-05-2010 02:56:06 8.4 C 6.62 g/m*3 8.4 C 0 km/h
136 04-05-2010 03:08:06 8.4 C 6.62 g/m*3 8.4 C 0 km/h
137 04-05-2010 03:20:06 8.4 C 6.62 g/m*3 8.4 C 0 km/h
138 04-05-2010 03:32:06 8.3 C 6.57 g/m*3 8.3 C 0 km/h
139 04-05-2010 03:44:06 8.2 C 6.62 g/m*3 8.2 C 0 km/h
140 04-05-2010 03:56:06 8.1 C 6.66 g/m*3 8.1 C 0 km/h
141 04-05-2010 04:08:06 8 C 6.61 g/m*3 8 C 0 km/h
142 04-05-2010 04:20:06 7.9 C 6.74 g/m*3 7.9 C 0 km/h
143 04-05-2010 04:32:06 7.9 C 6.82 g/m*3 7.9 C 0 km/h
144 04-05-2010 04:44:06 7.9 C 6.82 g/m*3 7.9 C 0 km/h
145 04-05-2010 04:56:06 7.9 C 6.82 g/m*3 7.9 C 0 km/h
146 04-05-2010 05:08:06 8 C 6.78 g/m*3 8 C 0 km/h
147 04-05-2010 05:20:06 8.1 C 6.82 g/m*3 8.1 C 0 km/h
148 04-05-2010 05:32:07 8.2 C 6.87 g/m*3 8.2 C 0 km/h
149 04-05-2010 05:44:07 8.2 C 6.87 g/m*3 8.2 C 0 km/h
150 04-05-2010 05:56:07 8.2 C 6.87 g/m*3 8.2 C 0 km/h
Sensor: Nr:Datum:Temp:Abs-Feuchte:Windchill:Wind:
Aussen-T/F 151 04-05-2010 06:08:07 8.1 C 6.82 g/m*3 8.1 C 0 km/h
152 04-05-2010 06:20:07 8.2 C 6.87 g/m*3 8.2 C 0 km/h
153 04-05-2010 06:32:07 8.2 C 6.87 g/m*3 8.2 C 0 km/h
154 04-05-2010 06:44:07 8.3 C 6.91 g/m*3 8.3 C 0 km/h
155 04-05-2010 06:56:02 8.4 C 6.96 g/m*3 8.4 C 0 km/h
156 04-05-2010 07:08:01 8.5 C 7 g/m*3 8.5 C 0 km/h
157 04-05-2010 07:20:02 8.6 C 6.96 g/m*3 8.6 C 0 km/h
158 04-05-2010 07:32:01 8.7 C 7.01 g/m*3 8.7 C 0 km/h
159 04-05-2010 07:44:01 8.7 C 6.92 g/m*3 8.7 C 0 km/h
160 04-05-2010 07:56:02 8.8 C 6.79 g/m*3 8.8 C 0 km/h
161 04-05-2010 08:08:01 9.2 C 6.61 g/m*3 9.2 C 0 km/h
162 04-05-2010 08:20:01 9 C 6.44 g/m*3 9 C 0 km/h
163 04-05-2010 08:32:02 9.1 C 6.48 g/m*3 9.1 C 0 km/h
164 04-05-2010 08:44:03 8.9 C 6.31 g/m*3 8.9 C 0 km/h
165 04-05-2010 08:56:02 8.9 C 6.31 g/m*3 8.9 C 0 km/h
166 04-05-2010 09:08:02 9.2 C 6.34 g/m*3 9.2 C 0 km/h
167 04-05-2010 09:20:01 9.1 C 6.21 g/m*3 9.1 C 0 km/h
168 04-05-2010 09:32:02 9.3 C 6.29 g/m*3 9.3 C 0 km/h
169 04-05-2010 09:44:02 9.3 C 6.2 g/m*3 9.3 C 0 km/h
170 04-05-2010 09:56:02 9.5 C 6.19 g/m*3 9.5 C 0 km/h
171 04-05-2010 10:08:02 9.6 C 6.14 g/m*3 9.6 C 0 km/h
172 04-05-2010 10:20:01 9.8 C 5.85 g/m*3 9.8 C 0 km/h
173 04-05-2010 10:32:02 9.8 C 5.85 g/m*3 9.8 C 0 km/h
174 04-05-2010 10:44:02 9.9 C 5.7 g/m*3 9.9 C 0 km/h
175 04-05-2010 10:56:01 10 C 5.54 g/m*3 10 C 0 km/h
Sensor: Nr:Datum:Temp:Abs-Feuchte:Windchill:Wind:
Aussen-T/F 176 04-05-2010 11:08:02 10.2 C 5.52 g/m*3 10.2 C 0 km/h
177 04-05-2010 11:20:02 10.5 C 5.24 g/m*3 10.5 C 0 km/h
178 04-05-2010 11:32:02 10.7 C 5.21 g/m*3 10.7 C 0 km/h
179 04-05-2010 11:44:02 11.1 C 5.04 g/m*3 11.1 C 0 km/h
180 04-05-2010 11:56:02 11.3 C 5 g/m*3 11.3 C 0 km/h
181 04-05-2010 12:08:02 10.8 C 4.94 g/m*3 10.8 C 0 km/h
182 04-05-2010 12:20:02 10.5 C 4.85 g/m*3 10.5 C 0 km/h
183 04-05-2010 12:32:01 10.6 C 4.78 g/m*3 10.6 C 0 km/h
184 04-05-2010 12:44:01 11.6 C 4.89 g/m*3 11.6 C 0 km/h
185 04-05-2010 12:56:02 12 C 4.69 g/m*3 12 C 0 km/h
186 04-05-2010 13:08:01 12.2 C 4.64 g/m*3 12.2 C 0 km/h
187 04-05-2010 13:20:02 11.7 C 4.71 g/m*3 11.7 C 0 km/h
188 04-05-2010 13:32:01 11.8 C 4.53 g/m*3 11.8 C 0 km/h
189 04-05-2010 13:44:01 12 C 4.48 g/m*3 12 C 0 km/h
190 04-05-2010 13:56:02 12.2 C 4.53 g/m*3 12.2 C 0 km/h
191 04-05-2010 14:08:02 12.1 C 4.5 g/m*3 12.1 C 0 km/h
192 04-05-2010 14:20:02 12.5 C 4.84 g/m*3 12.5 C 0 km/h
193 04-05-2010 14:32:02 13.1 C 4.56 g/m*3 13.1 C 0 km/h
194 04-05-2010 14:44:02 13.4 C 4.65 g/m*3 13.4 C 0 km/h
195 04-05-2010 14:56:02 13.5 C 4.44 g/m*3 13.5 C 0 km/h
196 04-05-2010 15:08:02 13.5 C 4.56 g/m*3 13.5 C 0 km/h
197 04-05-2010 15:20:02 13.8 C 4.41 g/m*3 13.8 C 0 km/h
198 04-05-2010 15:32:02 13.5 C 4.44 g/m*3 13.5 C 0 km/h
199 04-05-2010 15:44:02 13.5 C 4.56 g/m*3 13.5 C 0 km/h
200 04-05-2010 15:56:02 12.9 C 4.51 g/m*3 12.9 C 0 km/h
Sensor: Nr:Datum:Temp:Abs-Feuchte:Windchill:Wind:
Aussen-T/F 201 04-05-2010 16:08:02 12.5 C 4.51 g/m*3 12.5 C 0 km/h
202 04-05-2010 16:20:02 12.8 C 4.59 g/m*3 12.8 C 0 km/h
203 04-05-2010 16:32:02 12.5 C 4.4 g/m*3 12.5 C 0 km/h
204 04-05-2010 16:44:02 12.5 C 4.4 g/m*3 12.5 C 0 km/h
205 04-05-2010 16:56:01 12 C 4.26 g/m*3 12 C 0 km/h
206 04-05-2010 17:08:02 12 C 4.26 g/m*3 12 C 0 km/h
207 04-05-2010 17:20:01 11.4 C 4.31 g/m*3 11.4 C 0 km/h
208 04-05-2010 17:32:02 11.4 C 4.41 g/m*3 11.4 C 0 km/h
209 04-05-2010 17:44:02 11.5 C 4.34 g/m*3 11.5 C 0 km/h
210 04-05-2010 17:56:02 11.4 C 4.31 g/m*3 11.4 C 0 km/h
211 04-05-2010 18:08:02 11.5 C 4.23 g/m*3 11.5 C 0 km/h
212 04-05-2010 18:20:02 11.4 C 4.21 g/m*3 11.4 C 0 km/h
213 04-05-2010 18:32:02 11.2 C 4.16 g/m*3 11.2 C 0 km/h
214 04-05-2010 18:44:02 11.1 C 4.13 g/m*3 11.1 C 0 km/h
215 04-05-2010 18:56:02 11 C 4.3 g/m*3 11 C 0 km/h
216 04-05-2010 19:08:02 11 C 4.3 g/m*3 11 C 0 km/h
217 04-05-2010 19:20:02 12 C 4.16 g/m*3 12 C 0 km/h
218 04-05-2010 19:32:02 11.4 C 4 g/m*3 11.4 C 0 km/h
219 04-05-2010 19:44:02 11 C 4 g/m*3 11 C 0 km/h
220 04-05-2010 19:56:01 11 C 4.2 g/m*3 11 C 0 km/h
221 04-05-2010 20:08:02 10.7 C 4.22 g/m*3 10.7 C 0 km/h
222 04-05-2010 20:20:01 10.6 C 4.49 g/m*3 10.6 C 0 km/h
223 04-05-2010 20:32:01 10.1 C 4.35 g/m*3 10.1 C 0 km/h
224 04-05-2010 20:44:01 9.8 C 4.36 g/m*3 9.8 C 0 km/h
225 04-05-2010 20:56:01 9.4 C 4.34 g/m*3 9.4 C 0 km/h
Sensor: Nr:Datum:Temp:Abs-Feuchte:Windchill:Wind:
Aussen-T/F 226 04-05-2010 21:08:02 9.5 C 4.28 g/m*3 9.5 C 0 km/h
227 04-05-2010 21:20:01 9.6 C 4.31 g/m*3 9.6 C 0 km/h
228 04-05-2010 21:32:01 9.7 C 4.61 g/m*3 9.7 C 0 km/h
229 04-05-2010 21:44:01 9.5 C 4.64 g/m*3 9.5 C 0 km/h
230 04-05-2010 21:56:01 8.8 C 4.61 g/m*3 8.8 C 0 km/h
231 04-05-2010 22:09:04 8.2 C 4.35 g/m*3 8.2 C 0 km/h
232 04-05-2010 22:21:04 8.1 C 4.33 g/m*3 8.1 C 0 km/h
233 04-05-2010 22:33:05 7.8 C 4.24 g/m*3 7.8 C 0 km/h
234 04-05-2010 22:45:05 7.7 C 4.14 g/m*3 7.7 C 0 km/h
235 04-05-2010 22:57:05 7.5 C 4.16 g/m*3 7.5 C 0 km/h
236 04-05-2010 23:09:05 7.4 C 4.14 g/m*3 7.4 C 0 km/h
237 04-05-2010 23:21:05 7.4 C 4.14 g/m*3 7.4 C 0 km/h
238 04-05-2010 23:33:05 7.3 C 4.03 g/m*3 7.3 C 0 km/h
239 04-05-2010 23:45:05 7.3 C 4.03 g/m*3 7.3 C 0 km/h
240 04-05-2010 23:57:05 7 C 3.95 g/m*3 7 C 0 km/h
241 05-05-2010 00:09:05 6.8 C 4.05 g/m*3 6.8 C 0 km/h
242 05-05-2010 00:21:05 6.7 C 4.18 g/m*3 6.7 C 0 km/h
243 05-05-2010 00:33:05 6.3 C 4.22 g/m*3 6.3 C 0 km/h
244 05-05-2010 00:45:05 6 C 4.21 g/m*3 6 C 0 km/h
245 05-05-2010 00:57:05 5.8 C 4.37 g/m*3 5.8 C 0 km/h
246 05-05-2010 01:09:05 5.5 C 4.35 g/m*3 5.5 C 0 km/h
247 05-05-2010 01:21:05 5.3 C 4.44 g/m*3 5.3 C 0 km/h
248 05-05-2010 01:33:05 5.4 C 4.4 g/m*3 5.4 C 0 km/h
249 05-05-2010 01:45:05 5.6 C 4.31 g/m*3 5.6 C 0 km/h
250 05-05-2010 01:57:05 5.6 C 4.24 g/m*3 5.6 C 0 km/h
Sensor: Nr:Datum:Temp:Abs-Feuchte:Windchill:Wind:
Aussen-T/F 251 05-05-2010 02:09:05 5.7 C 4.13 g/m*3 5.7 C 0 km/h
252 05-05-2010 02:21:05 5.7 C 4.13 g/m*3 5.7 C 0 km/h
253 05-05-2010 02:33:05 5.6 C 4.17 g/m*3 5.6 C 0 km/h
254 05-05-2010 02:45:06 5.5 C 4.21 g/m*3 5.5 C 0 km/h
255 05-05-2010 02:57:06 5.2 C 4.2 g/m*3 5.2 C 0 km/h
256 05-05-2010 03:09:06 5.1 C 4.24 g/m*3 5.1 C 0 km/h
257 05-05-2010 03:21:06 4.8 C 4.22 g/m*3 4.8 C 0 km/h
258 05-05-2010 03:33:06 4.7 C 4.13 g/m*3 4.7 C 0 km/h
259 05-05-2010 03:45:06 4.6 C 4.1 g/m*3 4.6 C 0 km/h
260 05-05-2010 03:57:06 4.5 C 4.01 g/m*3 4.5 C 0 km/h
261 05-05-2010 04:09:06 4.3 C 3.96 g/m*3 4.3 C 0 km/h
262 05-05-2010 04:21:06 4 C 4.01 g/m*3 4 C 0 km/h
263 05-05-2010 04:33:06 3.8 C 4.08 g/m*3 3.8 C 0 km/h
264 05-05-2010 04:45:06 3.7 C 4.11 g/m*3 3.7 C 0 km/h
265 05-05-2010 04:57:06 3.7 C 4.05 g/m*3 3.7 C 0 km/h
266 05-05-2010 05:09:06 3.6 C 4.02 g/m*3 3.6 C 0 km/h
267 05-05-2010 05:21:06 3.6 C 3.96 g/m*3 3.6 C 0 km/h
268 05-05-2010 05:33:06 3.6 C 3.9 g/m*3 3.6 C 0 km/h
269 05-05-2010 05:45:06 3.4 C 3.79 g/m*3 3.4 C 0 km/h
270 05-05-2010 05:57:06 3.2 C 3.86 g/m*3 3.2 C 0 km/h
271 05-05-2010 06:09:06 3 C 3.86 g/m*3 3 C 0 km/h
272 05-05-2010 06:21:06 2.8 C 3.99 g/m*3 2.8 C 0 km/h
273 05-05-2010 06:33:03 2.6 C 3.99 g/m*3 2.6 C 0 km/h
274 05-05-2010 06:45:03 2.5 C 4.02 g/m*3 2.5 C 0 km/h
275 05-05-2010 06:57:03 2.5 C 4.08 g/m*3 2.5 C 0 km/h
Sensor: Nr:Datum:Temp:Abs-Feuchte:Windchill:Wind:
Aussen-T/F 276 05-05-2010 07:09:02 2.5 C 4.14 g/m*3 2.5 C 0 km/h
277 05-05-2010 07:21:03 2.7 C 4.25 g/m*3 2.7 C 0 km/h
278 05-05-2010 07:33:02 2.8 C 4.28 g/m*3 2.8 C 0 km/h
279 05-05-2010 07:45:02 3 C 4.28 g/m*3 3 C 0 km/h
280 05-05-2010 07:57:02 3.4 C 4.4 g/m*3 3.4 C 0 km/h
281 05-05-2010 08:09:02 3.8 C 4.45 g/m*3 3.8 C 0 km/h
282 05-05-2010 08:21:02 4.4 C 4.31 g/m*3 4.4 C 0 km/h
283 05-05-2010 08:33:02 4.6 C 4.17 g/m*3 4.6 C 0 km/h
284 05-05-2010 08:45:02 4.9 C 4.12 g/m*3 4.9 C 0 km/h
285 05-05-2010 08:57:02 5.3 C 4.02 g/m*3 5.3 C 0 km/h
286 05-05-2010 09:09:01 6 C 3.99 g/m*3 6 C 0 km/h
287 05-05-2010 09:21:02 6.6 C 3.85 g/m*3 6.6 C 0 km/h
288 05-05-2010 09:33:02 7.2 C 3.92 g/m*3 7.2 C 0 km/h
289 05-05-2010 09:45:02 7.5 C 3.76 g/m*3 7.5 C 0 km/h
290 05-05-2010 09:57:02 7.9 C 3.7 g/m*3 7.9 C 0 km/h
291 05-05-2010 10:09:02 8.1 C 3.58 g/m*3 8.1 C 0 km/h
292 05-05-2010 10:21:02 8.6 C 3.52 g/m*3 8.6 C 0 km/h
293 05-05-2010 10:33:02 9.5 C 3.37 g/m*3 9.5 C 0 km/h
294 05-05-2010 10:45:01 9.6 C 3.11 g/m*3 9.6 C 0 km/h
295 05-05-2010 10:57:01 10 C 2.91 g/m*3 10 C 0 km/h
296 05-05-2010 11:09:02 10.4 C 2.89 g/m*3 10.4 C 0 km/h
297 05-05-2010 11:21:01 10.7 C 2.75 g/m*3 10.7 C 0 km/h
298 05-05-2010 11:33:02 11.2 C 3.04 g/m*3 11.2 C 0 km/h
299 05-05-2010 11:45:02 11.9 C 2.65 g/m*3 11.9 C 0 km/h
300 05-05-2010 11:57:02 12.5 C 2.42 g/m*3 12.5 C 0 km/h
Sensor: Nr:Datum:Temp:Abs-Feuchte:Windchill:Wind:
Aussen-T/F 301 05-05-2010 12:09:02 12.7 C 2.23 g/m*3 12.7 C 0 km/h
302 05-05-2010 12:21:01 12.7 C 2.23 g/m*3 12.7 C 0 km/h
303 05-05-2010 12:33:02 13.4 C 2.32 g/m*3 13.4 C 0 km/h
304 05-05-2010 12:45:02 14.6 C 2.5 g/m*3 14.6 C 0 km/h
305 05-05-2010 12:57:02 15.2 C 2.6 g/m*3 15.2 C 0 km/h
306 05-05-2010 13:09:02 15.9 C 2.71 g/m*3 15.9 C 0 km/h
307 05-05-2010 13:21:01 16.6 C 2.83 g/m*3 16.6 C 0 km/h
308 05-05-2010 13:33:02 17.2 C 2.93 g/m*3 17.2 C 0 km/h
309 05-05-2010 13:45:01 16.6 C 2.83 g/m*3 16.6 C 0 km/h
310 05-05-2010 13:57:01 16.4 C 2.79 g/m*3 16.4 C 0 km/h
311 05-05-2010 14:09:02 16.7 C 2.84 g/m*3 16.7 C 0 km/h
312 05-05-2010 14:21:02 16.7 C 2.84 g/m*3 16.7 C 0 km/h
313 05-05-2010 14:33:01 17 C 2.89 g/m*3 17 C 0 km/h
314 05-05-2010 14:45:01 17.4 C 2.96 g/m*3 17.4 C 0 km/h
315 05-05-2010 14:57:01 17.5 C 2.98 g/m*3 17.5 C 0 km/h
316 05-05-2010 15:09:02 18.3 C 3.13 g/m*3 18.3 C 0 km/h
317 05-05-2010 15:21:02 18.2 C 3.11 g/m*3 18.2 C 0 km/h
318 05-05-2010 15:33:01 17.8 C 3.04 g/m*3 17.8 C 0 km/h
319 05-05-2010 15:45:02 18 C 3.07 g/m*3 18 C 0 km/h
320 05-05-2010 15:57:02 18.2 C 3.11 g/m*3 18.2 C 0 km/h
321 05-05-2010 16:09:01 18.3 C 3.13 g/m*3 18.3 C 0 km/h
322 05-05-2010 16:21:01 18.1 C 3.09 g/m*3 18.1 C 0 km/h
323 05-05-2010 16:33:01 17.7 C 3.02 g/m*3 17.7 C 0 km/h
324 05-05-2010 16:45:02 17.5 C 2.98 g/m*3 17.5 C 0 km/h
325 05-05-2010 16:57:02 17.2 C 2.93 g/m*3 17.2 C 0 km/h
Sensor: Nr:Datum:Temp:Abs-Feuchte:Windchill:Wind:
Aussen-T/F 326 05-05-2010 17:09:02 16.7 C 2.84 g/m*3 16.7 C 0 km/h
327 05-05-2010 17:21:02 16.2 C 2.76 g/m*3 16.2 C 0 km/h
328 05-05-2010 17:33:02 15.6 C 2.66 g/m*3 15.6 C 0 km/h
329 05-05-2010 17:45:02 15.1 C 2.58 g/m*3 15.1 C 0 km/h
330 05-05-2010 17:57:02 14.8 C 2.53 g/m*3 14.8 C 0 km/h
331 05-05-2010 18:09:01 14.5 C 2.49 g/m*3 14.5 C 0 km/h
332 05-05-2010 18:21:01 14.4 C 2.47 g/m*3 14.4 C 0 km/h
333 05-05-2010 18:33:02 14.2 C 2.44 g/m*3 14.2 C 0 km/h
334 05-05-2010 18:45:02 14.1 C 2.43 g/m*3 14.1 C 0 km/h
335 05-05-2010 18:57:02 13.8 C 2.38 g/m*3 13.8 C 0 km/h
336 05-05-2010 19:09:02 13.7 C 2.37 g/m*3 13.7 C 0 km/h
337 05-05-2010 19:21:01 13.6 C 2.35 g/m*3 13.6 C 0 km/h
338 05-05-2010 19:33:02 13.5 C 2.34 g/m*3 13.5 C 0 km/h
339 05-05-2010 19:45:02 13.3 C 2.43 g/m*3 13.3 C 0 km/h
340 05-05-2010 19:57:02 13.1 C 2.28 g/m*3 13.1 C 0 km/h
341 05-05-2010 20:09:02 13 C 2.49 g/m*3 13 C 0 km/h
342 05-05-2010 20:21:02 12.9 C 2.82 g/m*3 12.9 C 0 km/h
343 05-05-2010 20:33:02 12.8 C 2.91 g/m*3 12.8 C 0 km/h
344 05-05-2010 20:45:02 12.7 C 2.89 g/m*3 12.7 C 0 km/h
345 05-05-2010 20:57:02 12.6 C 2.88 g/m*3 12.6 C 0 km/h
346 05-05-2010 21:09:02 12.5 C 2.86 g/m*3 12.5 C 0 km/h
347 05-05-2010 21:21:02 12.4 C 2.84 g/m*3 12.4 C 0 km/h
348 05-05-2010 21:33:02 12.3 C 2.82 g/m*3 12.3 C 0 km/h
349 05-05-2010 21:45:02 12.3 C 2.93 g/m*3 12.3 C 0 km/h
350 05-05-2010 21:57:02 12.2 C 2.91 g/m*3 12.2 C 0 km/h
Sensor: Nr:Datum:Temp:Abs-Feuchte:Windchill:Wind:
Aussen-T/F 351 05-05-2010 22:09:03 12.1 C 3 g/m*3 12.1 C 0 km/h
352 05-05-2010 22:21:02 12 C 3.09 g/m*3 12 C 0 km/h
353 05-05-2010 22:34:02 11.9 C 3.39 g/m*3 11.9 C 0 km/h
354 05-05-2010 22:46:02 11.7 C 3.35 g/m*3 11.7 C 0 km/h
355 05-05-2010 22:58:02 11.7 C 3.35 g/m*3 11.7 C 0 km/h
356 05-05-2010 23:10:02 11.6 C 3.22 g/m*3 11.6 C 0 km/h
357 05-05-2010 23:22:02 11.5 C 3.2 g/m*3 11.5 C 0 km/h
358 05-05-2010 23:34:02 11.6 C 3.33 g/m*3 11.6 C 0 km/h
359 05-05-2010 23:46:02 11.4 C 3.39 g/m*3 11.4 C 0 km/h
360 05-05-2010 23:58:02 11.4 C 3.39 g/m*3 11.4 C 0 km/h
361 06-05-2010 00:10:02 11.3 C 3.47 g/m*3 11.3 C 0 km/h
362 06-05-2010 00:22:02 11.2 C 3.55 g/m*3 11.2 C 0 km/h
363 06-05-2010 00:34:02 11.2 C 3.55 g/m*3 11.2 C 0 km/h
364 06-05-2010 00:46:02 10.7 C 4.03 g/m*3 10.7 C 0 km/h
365 06-05-2010 00:58:02 9.8 C 4.45 g/m*3 9.8 C 0 km/h
366 06-05-2010 01:10:02 8.7 C 5.1 g/m*3 8.7 C 0 km/h
367 06-05-2010 01:22:02 7.9 C 5.5 g/m*3 7.9 C 0 km/h
368 06-05-2010 01:34:02 7.3 C 5.93 g/m*3 7.3 C 0 km/h
369 06-05-2010 01:46:02 7.1 C 6.01 g/m*3 7.1 C 0 km/h
370 06-05-2010 01:58:03 7 C 6.04 g/m*3 7 C 0 km/h
371 06-05-2010 02:10:03 6.9 C 6.31 g/m*3 6.9 C 0 km/h
372 06-05-2010 02:22:03 6.8 C 6.42 g/m*3 6.8 C 0 km/h
373 06-05-2010 02:34:03 6.7 C 6.53 g/m*3 6.7 C 0 km/h
374 06-05-2010 02:46:03 6.5 C 6.52 g/m*3 6.5 C 0 km/h
375 06-05-2010 02:58:03 6.8 C 6.73 g/m*3 6.8 C 0 km/h
Sensor: Nr:Datum:Temp:Abs-Feuchte:Windchill:Wind:
Aussen-T/F 376 06-05-2010 03:10:03 6.8 C 6.81 g/m*3 6.8 C 0 km/h
377 06-05-2010 03:22:03 6.7 C 6.84 g/m*3 6.7 C 0 km/h
378 06-05-2010 03:34:03 6.5 C 6.82 g/m*3 6.5 C 0 km/h
379 06-05-2010 03:46:03 6.9 C 7.01 g/m*3 6.9 C 0 km/h
380 06-05-2010 03:58:03 6.8 C 7.04 g/m*3 6.8 C 0 km/h
381 06-05-2010 04:10:03 6.9 C 7.08 g/m*3 6.9 C 0 km/h
382 06-05-2010 04:22:03 6.9 C 7.08 g/m*3 6.9 C 0 km/h
383 06-05-2010 04:34:03 6.9 C 7.08 g/m*3 6.9 C 0 km/h
384 06-05-2010 04:46:03 6.9 C 7.08 g/m*3 6.9 C 0 km/h
385 06-05-2010 04:58:03 6.8 C 7.04 g/m*3 6.8 C 0 km/h
386 06-05-2010 05:10:03 6.6 C 7.02 g/m*3 6.6 C 0 km/h
387 06-05-2010 05:22:03 6.5 C 6.97 g/m*3 6.5 C 0 km/h
388 06-05-2010 05:34:03 6.6 C 7.02 g/m*3 6.6 C 0 km/h
389 06-05-2010 05:46:03 6.8 C 7.11 g/m*3 6.8 C 0 km/h
390 06-05-2010 05:58:04 6.8 C 7.11 g/m*3 6.8 C 0 km/h
391 06-05-2010 06:10:04 6.5 C 6.97 g/m*3 6.5 C 0 km/h
392 06-05-2010 06:22:04 6.5 C 6.97 g/m*3 6.5 C 0 km/h
393 06-05-2010 06:34:04 6.5 C 6.97 g/m*3 6.5 C 0 km/h
394 06-05-2010 06:46:04 6.6 C 7.02 g/m*3 6.6 C 0 km/h
395 06-05-2010 06:58:04 6.5 C 7.05 g/m*3 6.5 C 0 km/h
396 06-05-2010 07:10:01 6.4 C 7 g/m*3 6.4 C 0 km/h
397 06-05-2010 07:22:02 6.4 C 7 g/m*3 6.4 C 0 km/h
398 06-05-2010 07:34:01 6.3 C 6.96 g/m*3 6.3 C 0 km/h
399 06-05-2010 07:46:03 6.5 C 7.05 g/m*3 6.5 C 0 km/h
400 06-05-2010 07:58:03 6.3 C 6.96 g/m*3 6.3 C 0 km/h
Sensor: Nr:Datum:Temp:Abs-Feuchte:Windchill:Wind:
Aussen-T/F 401 06-05-2010 08:10:02 6.1 C 6.87 g/m*3 6.1 C 0 km/h
402 06-05-2010 08:22:02 6.2 C 6.91 g/m*3 6.2 C 0 km/h
403 06-05-2010 08:34:03 6.2 C 6.91 g/m*3 6.2 C 0 km/h
404 06-05-2010 08:46:02 6.4 C 7 g/m*3 6.4 C 0 km/h
405 06-05-2010 08:58:02 6.2 C 6.91 g/m*3 6.2 C 0 km/h
406 06-05-2010 09:10:02 6.2 C 6.84 g/m*3 6.2 C 0 km/h
407 06-05-2010 09:22:01 6.4 C 7 g/m*3 6.4 C 0 km/h
408 06-05-2010 09:34:02 6.6 C 7.1 g/m*3 6.6 C 0 km/h
409 06-05-2010 09:46:02 6.8 C 7.19 g/m*3 6.8 C 0 km/h
410 06-05-2010 09:58:02 6.8 C 7.19 g/m*3 6.8 C 0 km/h
411 06-05-2010 10:10:02 6.8 C 7.19 g/m*3 6.8 C 0 km/h
412 06-05-2010 10:22:02 6.9 C 7.24 g/m*3 6.9 C 0 km/h
413 06-05-2010 10:34:02 6.8 C 7.11 g/m*3 6.8 C 0 km/h
414 06-05-2010 10:46:02 6.8 C 7.11 g/m*3 6.8 C 0 km/h
415 06-05-2010 10:58:02 6.9 C 7.16 g/m*3 6.9 C 0 km/h
416 06-05-2010 11:10:02 7 C 7.21 g/m*3 7 C 0 km/h
417 06-05-2010 11:22:02 7 C 7.13 g/m*3 7 C 0 km/h
418 06-05-2010 11:34:02 7 C 7.13 g/m*3 7 C 0 km/h
419 06-05-2010 11:46:01 7.1 C 7.18 g/m*3 7.1 C 0 km/h
420 06-05-2010 11:58:01 7.1 C 7.18 g/m*3 7.1 C 0 km/h
421 06-05-2010 12:10:01 7.2 C 7.22 g/m*3 7.2 C 0 km/h
422 06-05-2010 12:22:02 6.9 C 7.08 g/m*3 6.9 C 0 km/h
423 06-05-2010 12:34:02 6.9 C 7.01 g/m*3 6.9 C 0 km/h
424 06-05-2010 12:46:01 7.1 C 7.1 g/m*3 7.1 C 0 km/h
425 06-05-2010 12:58:01 7.2 C 7.06 g/m*3 7.2 C 0 km/h
Sensor: Nr:Datum:Temp:Abs-Feuchte:Windchill:Wind:
Aussen-T/F 426 06-05-2010 13:10:02 7.5 C 7.2 g/m*3 7.5 C 0 km/h
427 06-05-2010 13:22:01 7.7 C 7.3 g/m*3 7.7 C 0 km/h
428 06-05-2010 13:34:02 7.4 C 7.16 g/m*3 7.4 C 0 km/h
429 06-05-2010 13:46:02 7.3 C 7.19 g/m*3 7.3 C 0 km/h
430 06-05-2010 13:58:02 7.2 C 7.14 g/m*3 7.2 C 0 km/h
431 06-05-2010 14:10:03 7.3 C 7.27 g/m*3 7.3 C 0 km/h
432 06-05-2010 14:22:02 7.4 C 7.32 g/m*3 7.4 C 0 km/h
433 06-05-2010 14:34:03 7.3 C 7.27 g/m*3 7.3 C 0 km/h
434 06-05-2010 14:46:02 7.4 C 7.32 g/m*3 7.4 C 0 km/h
435 06-05-2010 14:58:02 7.6 C 7.49 g/m*3 7.6 C 0 km/h
436 06-05-2010 15:10:02 7.5 C 7.44 g/m*3 7.5 C 0 km/h
437 06-05-2010 15:22:02 7.1 C 7.18 g/m*3 7.1 C 0 km/h
438 06-05-2010 15:34:03 7.1 C 7.25 g/m*3 7.1 C 0 km/h
439 06-05-2010 15:46:01 6.9 C 7.16 g/m*3 6.9 C 0 km/h
440 06-05-2010 15:58:01 6.9 C 7.24 g/m*3 6.9 C 0 km/h
441 06-05-2010 16:10:02 6.7 C 7.14 g/m*3 6.7 C 0 km/h
442 06-05-2010 16:22:02 6.5 C 6.97 g/m*3 6.5 C 0 km/h
443 06-05-2010 16:34:02 6.5 C 6.97 g/m*3 6.5 C 0 km/h
444 06-05-2010 16:46:03 6.5 C 6.97 g/m*3 6.5 C 0 km/h
445 06-05-2010 16:58:03 6.5 C 6.97 g/m*3 6.5 C 0 km/h
446 06-05-2010 17:10:02 6.5 C 6.9 g/m*3 6.5 C 0 km/h
447 06-05-2010 17:22:03 6.6 C 6.95 g/m*3 6.6 C 0 km/h
448 06-05-2010 17:34:02 6.4 C 6.85 g/m*3 6.4 C 0 km/h
449 06-05-2010 17:46:03 6.5 C 6.9 g/m*3 6.5 C 0 km/h
450 06-05-2010 17:58:03 6.3 C 6.81 g/m*3 6.3 C 0 km/h
Sensor: Nr:Datum:Temp:Abs-Feuchte:Windchill:Wind:
Aussen-T/F 451 06-05-2010 18:10:02 6 C 6.6 g/m*3 6 C 0 km/h
452 06-05-2010 18:22:02 5.9 C 6.56 g/m*3 5.9 C 0 km/h
453 06-05-2010 18:34:02 5.8 C 6.52 g/m*3 5.8 C 0 km/h
454 06-05-2010 18:46:02 5.9 C 6.63 g/m*3 5.9 C 0 km/h
455 06-05-2010 18:58:02 5.9 C 6.63 g/m*3 5.9 C 0 km/h
456 06-05-2010 19:10:02 6 C 6.6 g/m*3 6 C 0 km/h
457 06-05-2010 19:22:02 5.9 C 6.63 g/m*3 5.9 C 0 km/h
458 06-05-2010 19:34:02 5.9 C 6.63 g/m*3 5.9 C 0 km/h
459 06-05-2010 19:46:02 5.7 C 6.55 g/m*3 5.7 C 0 km/h
460 06-05-2010 19:58:02 5.6 C 6.57 g/m*3 5.6 C 0 km/h
461 06-05-2010 20:10:01 5.6 C 6.57 g/m*3 5.6 C 0 km/h
462 06-05-2010 20:22:02 5.5 C 6.53 g/m*3 5.5 C 0 km/h
463 06-05-2010 20:34:02 5.6 C 6.65 g/m*3 5.6 C 0 km/h
464 06-05-2010 20:46:02 5.4 C 6.56 g/m*3 5.4 C 0 km/h
465 06-05-2010 20:58:02 5.4 C 6.56 g/m*3 5.4 C 0 km/h
466 06-05-2010 21:10:01 5.4 C 6.56 g/m*3 5.4 C 0 km/h
467 06-05-2010 21:22:02 5.4 C 6.56 g/m*3 5.4 C 0 km/h
468 06-05-2010 21:34:01 5.3 C 6.52 g/m*3 5.3 C 0 km/h
469 06-05-2010 21:46:03 5.4 C 6.56 g/m*3 5.4 C 0 km/h
470 06-05-2010 21:58:03 5.4 C 6.56 g/m*3 5.4 C 0 km/h
471 06-05-2010 22:10:02 5.4 C 6.63 g/m*3 5.4 C 0 km/h
472 06-05-2010 22:22:02 5.4 C 6.63 g/m*3 5.4 C 0 km/h
473 06-05-2010 22:34:02 5.4 C 6.63 g/m*3 5.4 C 0 km/h
474 06-05-2010 22:47:02 5.4 C 6.63 g/m*3 5.4 C 0 km/h
475 06-05-2010 22:59:02 5.4 C 6.63 g/m*3 5.4 C 0 km/h
Sensor: Nr:Datum:Temp:Abs-Feuchte:Windchill:Wind:
Aussen-T/F 476 06-05-2010 23:11:02 5.4 C 6.63 g/m*3 5.4 C 0 km/h
477 06-05-2010 23:23:02 5.4 C 6.63 g/m*3 5.4 C 0 km/h
478 06-05-2010 23:35:02 5.4 C 6.63 g/m*3 5.4 C 0 km/h
479 06-05-2010 23:47:02 5.3 C 6.58 g/m*3 5.3 C 0 km/h
480 06-05-2010 23:59:02 5.3 C 6.58 g/m*3 5.3 C 0 km/h
481 07-05-2010 00:11:02 5.4 C 6.63 g/m*3 5.4 C 0 km/h
482 07-05-2010 00:23:02 5.4 C 6.63 g/m*3 5.4 C 0 km/h
483 07-05-2010 00:35:02 5.4 C 6.63 g/m*3 5.4 C 0 km/h
484 07-05-2010 00:47:02 5.4 C 6.63 g/m*3 5.4 C 0 km/h
485 07-05-2010 00:59:02 5.4 C 6.63 g/m*3 5.4 C 0 km/h
486 07-05-2010 01:11:03 5.4 C 6.63 g/m*3 5.4 C 0 km/h
487 07-05-2010 01:23:03 5.4 C 6.63 g/m*3 5.4 C 0 km/h
488 07-05-2010 01:35:03 5.4 C 6.63 g/m*3 5.4 C 0 km/h
489 07-05-2010 01:47:03 5.4 C 6.63 g/m*3 5.4 C 0 km/h
490 07-05-2010 01:59:03 5.4 C 6.63 g/m*3 5.4 C 0 km/h
491 07-05-2010 02:11:03 5.4 C 6.63 g/m*3 5.4 C 0 km/h
492 07-05-2010 02:23:03 5.4 C 6.63 g/m*3 5.4 C 0 km/h
493 07-05-2010 02:35:03 5.4 C 6.63 g/m*3 5.4 C 0 km/h
494 07-05-2010 02:47:03 5.4 C 6.63 g/m*3 5.4 C 0 km/h
495 07-05-2010 02:59:03 5.4 C 6.63 g/m*3 5.4 C 0 km/h
496 07-05-2010 03:11:03 5.4 C 6.63 g/m*3 5.4 C 0 km/h
497 07-05-2010 03:23:03 5.4 C 6.63 g/m*3 5.4 C 0 km/h
498 07-05-2010 03:35:03 5.3 C 6.58 g/m*3 5.3 C 0 km/h
499 07-05-2010 03:47:03 5.3 C 6.58 g/m*3 5.3 C 0 km/h
500 07-05-2010 03:59:03 5.2 C 6.54 g/m*3 5.2 C 0 km/h
Sensor: Nr:Datum:Temp:Abs-Feuchte:Windchill:Wind:
Aussen-T/F 501 07-05-2010 04:11:03 5.2 C 6.54 g/m*3 5.2 C 0 km/h
502 07-05-2010 04:23:03 5.2 C 6.54 g/m*3 5.2 C 0 km/h
503 07-05-2010 04:35:03 5.2 C 6.54 g/m*3 5.2 C 0 km/h
504 07-05-2010 04:47:03 5.2 C 6.54 g/m*3 5.2 C 0 km/h
505 07-05-2010 04:59:03 5.1 C 6.5 g/m*3 5.1 C 0 km/h
506 07-05-2010 05:11:04 5 C 6.46 g/m*3 5 C 0 km/h
507 07-05-2010 05:23:04 5 C 6.46 g/m*3 5 C 0 km/h
508 07-05-2010 05:35:04 4.9 C 6.41 g/m*3 4.9 C 0 km/h
509 07-05-2010 05:47:04 4.8 C 6.37 g/m*3 4.8 C 0 km/h
510 07-05-2010 05:59:04 4.7 C 6.33 g/m*3 4.7 C 0 km/h
511 07-05-2010 06:11:04 4.7 C 6.33 g/m*3 4.7 C 0 km/h
512 07-05-2010 06:23:04 4.6 C 6.29 g/m*3 4.6 C 0 km/h
513 07-05-2010 06:35:04 4.5 C 6.24 g/m*3 4.5 C 0 km/h
514 07-05-2010 06:47:04 4.6 C 6.29 g/m*3 4.6 C 0 km/h
515 07-05-2010 06:59:04 4.6 C 6.29 g/m*3 4.6 C 0 km/h
516 07-05-2010 07:11:04 4.6 C 6.29 g/m*3 4.6 C 0 km/h
517 07-05-2010 07:23:04 4.7 C 6.33 g/m*3 4.7 C 0 km/h
518 07-05-2010 07:35:04 4.6 C 6.29 g/m*3 4.6 C 0 km/h
519 07-05-2010 07:47:04 4.7 C 6.33 g/m*3 4.7 C 0 km/h
520 07-05-2010 07:59:04 4.8 C 6.37 g/m*3 4.8 C 0 km/h
521 07-05-2010 08:11:04 4.9 C 6.41 g/m*3 4.9 C 0 km/h
522 07-05-2010 08:23:04 4.8 C 6.37 g/m*3 4.8 C 0 km/h
523 07-05-2010 08:35:02 5 C 6.46 g/m*3 5 C 0 km/h
524 07-05-2010 08:47:02 4.8 C 6.3 g/m*3 4.8 C 0 km/h
525 07-05-2010 08:59:02 4.6 C 6.22 g/m*3 4.6 C 0 km/h
Sensor: Nr:Datum:Temp:Abs-Feuchte:Windchill:Wind:
Aussen-T/F 526 07-05-2010 09:11:02 4.9 C 6.28 g/m*3 4.9 C 0 km/h
527 07-05-2010 09:23:03 4.8 C 6.24 g/m*3 4.8 C 0 km/h
528 07-05-2010 09:35:02 4.7 C 6.13 g/m*3 4.7 C 0 km/h
529 07-05-2010 09:47:02 5 C 6.12 g/m*3 5 C 0 km/h
530 07-05-2010 09:59:02 4.9 C 6.08 g/m*3 4.9 C 0 km/h
531 07-05-2010 10:11:02 5 C 6.05 g/m*3 5 C 0 km/h
532 07-05-2010 10:23:02 5.3 C 6.17 g/m*3 5.3 C 0 km/h
533 07-05-2010 10:35:02 6 C 6.39 g/m*3 6 C 0 km/h
534 07-05-2010 10:47:02 5.6 C 6.15 g/m*3 5.6 C 0 km/h
535 07-05-2010 10:59:02 5.7 C 6.12 g/m*3 5.7 C 0 km/h
536 07-05-2010 11:11:01 6.8 C 6.58 g/m*3 6.8 C 0 km/h
537 07-05-2010 11:23:02 7 C 6.66 g/m*3 7 C 0 km/h
538 07-05-2010 11:35:02 7.1 C 6.71 g/m*3 7.1 C 0 km/h
539 07-05-2010 11:47:02 7.1 C 6.71 g/m*3 7.1 C 0 km/h
540 07-05-2010 11:59:02 7.1 C 6.63 g/m*3 7.1 C 0 km/h
541 07-05-2010 12:11:03 7.1 C 6.4 g/m*3 7.1 C 0 km/h
542 07-05-2010 12:23:02 7 C 6.28 g/m*3 7 C 0 km/h
543 07-05-2010 12:35:02 7.1 C 6.4 g/m*3 7.1 C 0 km/h
544 07-05-2010 12:47:01 7.3 C 6.48 g/m*3 7.3 C 0 km/h
545 07-05-2010 12:59:01 7.2 C 6.2 g/m*3 7.2 C 0 km/h
546 07-05-2010 13:11:02 7.3 C 6.4 g/m*3 7.3 C 0 km/h
547 07-05-2010 13:23:01 7.8 C 6.61 g/m*3 7.8 C 0 km/h
548 07-05-2010 13:35:02 8.3 C 6.66 g/m*3 8.3 C 0 km/h
549 07-05-2010 13:47:01 7.9 C 6.49 g/m*3 7.9 C 0 km/h
550 07-05-2010 13:59:01 7.7 C 6.41 g/m*3 7.7 C 0 km/h
Sensor: Nr:Datum:Temp:Abs-Feuchte:Windchill:Wind:
Aussen-T/F 551 07-05-2010 14:11:02 8.6 C 6.87 g/m*3 8.6 C 0 km/h
552 07-05-2010 14:23:01 8.4 C 6.79 g/m*3 8.4 C 0 km/h
553 07-05-2010 14:35:02 8.5 C 6.92 g/m*3 8.5 C 0 km/h
554 07-05-2010 14:47:01 8.3 C 6.83 g/m*3 8.3 C 0 km/h
555 07-05-2010 14:59:01 8.3 C 6.66 g/m*3 8.3 C 0 km/h
556 07-05-2010 15:11:02 8.4 C 6.87 g/m*3 8.4 C 0 km/h
557 07-05-2010 15:23:02 7.8 C 6.61 g/m*3 7.8 C 0 km/h
558 07-05-2010 15:35:02 7.7 C 6.57 g/m*3 7.7 C 0 km/h
559 07-05-2010 15:47:02 8.5 C 7 g/m*3 8.5 C 0 km/h
560 07-05-2010 15:59:02 8.6 C 7.05 g/m*3 8.6 C 0 km/h
561 07-05-2010 16:11:01 9.3 C 7.19 g/m*3 9.3 C 0 km/h
562 07-05-2010 16:23:01 9.2 C 6.97 g/m*3 9.2 C 0 km/h
563 07-05-2010 16:35:01 9 C 6.61 g/m*3 9 C 0 km/h
564 07-05-2010 16:47:01 9.2 C 6.97 g/m*3 9.2 C 0 km/h
565 07-05-2010 16:59:01 9.1 C 6.92 g/m*3 9.1 C 0 km/h
566 07-05-2010 17:11:02 8.9 C 6.92 g/m*3 8.9 C 0 km/h
567 07-05-2010 17:23:01 9.2 C 6.97 g/m*3 9.2 C 0 km/h
568 07-05-2010 17:35:02 9.4 C 7.05 g/m*3 9.4 C 0 km/h
569 07-05-2010 17:47:01 9.8 C 7.24 g/m*3 9.8 C 0 km/h
570 07-05-2010 17:59:01 9.8 C 7.24 g/m*3 9.8 C 0 km/h
571 07-05-2010 18:11:02 9.8 C 7.24 g/m*3 9.8 C 0 km/h
572 07-05-2010 18:23:02 9.4 C 6.96 g/m*3 9.4 C 0 km/h
573 07-05-2010 18:35:02 9 C 6.88 g/m*3 9 C 0 km/h
574 07-05-2010 18:47:02 9 C 7.05 g/m*3 9 C 0 km/h
575 07-05-2010 18:59:02 8.5 C 7 g/m*3 8.5 C 0 km/h
Sensor: Nr:Datum:Temp:Abs-Feuchte:Windchill:Wind:
Aussen-T/F 576 07-05-2010 19:11:02 8.2 C 7.03 g/m*3 8.2 C 0 km/h
577 07-05-2010 19:23:02 8.1 C 6.99 g/m*3 8.1 C 0 km/h
578 07-05-2010 19:35:02 7.9 C 7.06 g/m*3 7.9 C 0 km/h
579 07-05-2010 19:47:02 7.6 C 7.09 g/m*3 7.6 C 0 km/h
580 07-05-2010 19:59:02 7.7 C 7.14 g/m*3 7.7 C 0 km/h
581 07-05-2010 20:11:02 7.3 C 7.03 g/m*3 7.3 C 0 km/h
582 07-05-2010 20:23:01 7.3 C 7.03 g/m*3 7.3 C 0 km/h
583 07-05-2010 20:35:02 7.2 C 7.06 g/m*3 7.2 C 0 km/h
584 07-05-2010 20:47:02 7.1 C 7.1 g/m*3 7.1 C 0 km/h
585 07-05-2010 20:59:02 6.9 C 7.08 g/m*3 6.9 C 0 km/h
586 07-05-2010 21:11:02 6.7 C 6.99 g/m*3 6.7 C 0 km/h
587 07-05-2010 21:23:02 6.8 C 7.04 g/m*3 6.8 C 0 km/h
588 07-05-2010 21:35:02 6.8 C 7.11 g/m*3 6.8 C 0 km/h
589 07-05-2010 21:47:02 6.7 C 7.07 g/m*3 6.7 C 0 km/h
590 07-05-2010 21:59:02 6.4 C 6.93 g/m*3 6.4 C 0 km/h
591 07-05-2010 22:11:02 6.1 C 6.79 g/m*3 6.1 C 0 km/h
592 07-05-2010 22:23:02 5.9 C 6.71 g/m*3 5.9 C 0 km/h
593 07-05-2010 22:35:02 5.7 C 6.62 g/m*3 5.7 C 0 km/h
594 07-05-2010 22:47:02 5.6 C 6.57 g/m*3 5.6 C 0 km/h
595 07-05-2010 22:59:02 5.7 C 6.69 g/m*3 5.7 C 0 km/h
596 07-05-2010 23:11:01 5.9 C 6.78 g/m*3 5.9 C 0 km/h
597 07-05-2010 23:23:02 5.9 C 6.78 g/m*3 5.9 C 0 km/h
598 07-05-2010 23:35:02 5.9 C 6.85 g/m*3 5.9 C 0 km/h
599 07-05-2010 23:47:02 6 C 6.82 g/m*3 6 C 0 km/h
600 07-05-2010 23:59:03 6.1 C 6.87 g/m*3 6.1 C 0 km/h
Sensor: Nr:Datum:Temp:Abs-Feuchte:Windchill:Wind:
Aussen-T/F 601 08-05-2010 00:11:01 6.2 C 6.91 g/m*3 6.2 C 0 km/h
602 08-05-2010 00:23:02 6.2 C 6.91 g/m*3 6.2 C 0 km/h
603 08-05-2010 00:35:01 6 C 6.82 g/m*3 6 C 0 km/h
604 08-05-2010 00:47:02 5.6 C 6.65 g/m*3 5.6 C 0 km/h
605 08-05-2010 00:59:02 5.5 C 6.6 g/m*3 5.5 C 0 km/h
606 08-05-2010 01:11:02 5.4 C 6.56 g/m*3 5.4 C 0 km/h
607 08-05-2010 01:23:02 5.1 C 6.43 g/m*3 5.1 C 0 km/h
608 08-05-2010 01:35:02 4.9 C 6.35 g/m*3 4.9 C 0 km/h
609 08-05-2010 01:47:02 4.7 C 6.26 g/m*3 4.7 C 0 km/h
610 08-05-2010 01:59:02 4.7 C 6.33 g/m*3 4.7 C 0 km/h
611 08-05-2010 02:11:01 4.5 C 6.18 g/m*3 4.5 C 0 km/h
612 08-05-2010 02:23:02 4.5 C 6.24 g/m*3 4.5 C 0 km/h
613 08-05-2010 02:35:02 4.6 C 6.29 g/m*3 4.6 C 0 km/h
614 08-05-2010 02:48:03 4.4 C 6.2 g/m*3 4.4 C 0 km/h
615 08-05-2010 03:00:03 4.5 C 6.24 g/m*3 4.5 C 0 km/h
616 08-05-2010 03:12:03 4.6 C 6.29 g/m*3 4.6 C 0 km/h
617 08-05-2010 03:24:03 4.7 C 6.33 g/m*3 4.7 C 0 km/h
618 08-05-2010 03:36:02 4.6 C 6.29 g/m*3 4.6 C 0 km/h
619 08-05-2010 03:48:02 4.6 C 6.29 g/m*3 4.6 C 0 km/h
620 08-05-2010 04:00:02 4.7 C 6.33 g/m*3 4.7 C 0 km/h
621 08-05-2010 04:12:02 4.6 C 6.29 g/m*3 4.6 C 0 km/h
622 08-05-2010 04:24:02 4.4 C 6.2 g/m*3 4.4 C 0 km/h
623 08-05-2010 04:36:02 4 C 6.04 g/m*3 4 C 0 km/h
624 08-05-2010 04:48:02 4 C 6.04 g/m*3 4 C 0 km/h
625 08-05-2010 05:00:02 4.1 C 6.08 g/m*3 4.1 C 0 km/h
Sensor: Nr:Datum:Temp:Abs-Feuchte:Windchill:Wind:
Aussen-T/F 626 08-05-2010 05:12:01 4.2 C 6.12 g/m*3 4.2 C 0 km/h
627 08-05-2010 05:24:02 4.4 C 6.2 g/m*3 4.4 C 0 km/h
628 08-05-2010 05:36:02 4.5 C 6.24 g/m*3 4.5 C 0 km/h
629 08-05-2010 05:48:02 4.5 C 6.24 g/m*3 4.5 C 0 km/h
630 08-05-2010 06:00:02 4.5 C 6.24 g/m*3 4.5 C 0 km/h
631 08-05-2010 06:12:03 4.6 C 6.29 g/m*3 4.6 C 0 km/h
632 08-05-2010 06:24:02 4.6 C 6.29 g/m*3 4.6 C 0 km/h
633 08-05-2010 06:36:02 4.8 C 6.37 g/m*3 4.8 C 0 km/h
634 08-05-2010 06:48:01 4.8 C 6.37 g/m*3 4.8 C 0 km/h
635 08-05-2010 07:00:01 4.8 C 6.37 g/m*3 4.8 C 0 km/h
636 08-05-2010 07:12:02 5 C 6.46 g/m*3 5 C 0 km/h
637 08-05-2010 07:24:01 5.2 C 6.54 g/m*3 5.2 C 0 km/h
638 08-05-2010 07:36:01 5.5 C 6.67 g/m*3 5.5 C 0 km/h
639 08-05-2010 07:48:01 5.6 C 6.72 g/m*3 5.6 C 0 km/h
640 08-05-2010 08:00:01 5.9 C 6.78 g/m*3 5.9 C 0 km/h
641 08-05-2010 08:12:02 6 C 6.68 g/m*3 6 C 0 km/h
642 08-05-2010 08:24:01 5.8 C 6.52 g/m*3 5.8 C 0 km/h
643 08-05-2010 08:36:01 6.2 C 6.55 g/m*3 6.2 C 0 km/h
644 08-05-2010 08:48:01 6.5 C 6.6 g/m*3 6.5 C 0 km/h
645 08-05-2010 09:00:01 7.3 C 6.87 g/m*3 7.3 C 0 km/h
646 08-05-2010 09:12:02 8 C 7.03 g/m*3 8 C 0 km/h
647 08-05-2010 09:24:01 8.1 C 6.82 g/m*3 8.1 C 0 km/h
648 08-05-2010 09:36:01 8.7 C 7.01 g/m*3 8.7 C 0 km/h
649 08-05-2010 09:48:01 9.2 C 7.05 g/m*3 9.2 C 0 km/h
650 08-05-2010 10:00:01 9.1 C 6.74 g/m*3 9.1 C 0 km/h
Sensor: Nr:Datum:Temp:Abs-Feuchte:Windchill:Wind:
Aussen-T/F 651 08-05-2010 10:12:02 9.1 C 6.57 g/m*3 9.1 C 0 km/h
652 08-05-2010 10:24:01 9.6 C 6.87 g/m*3 9.6 C 0 km/h
653 08-05-2010 10:36:01 10.1 C 6.9 g/m*3 10.1 C 0 km/h
654 08-05-2010 10:48:01 10.4 C 7.04 g/m*3 10.4 C 0 km/h
655 08-05-2010 11:00:01 11.2 C 7.3 g/m*3 11.2 C 0 km/h
656 08-05-2010 11:12:02 12.1 C 7.18 g/m*3 12.1 C 0 km/h
657 08-05-2010 11:24:01 12.8 C 7.06 g/m*3 12.8 C 0 km/h
658 08-05-2010 11:36:01 14.1 C 6.31 g/m*3 14.1 C 0 km/h
659 08-05-2010 11:48:01 15.1 C 5.55 g/m*3 15.1 C 0 km/h
660 08-05-2010 12:00:01 14.8 C 5.32 g/m*3 14.8 C 0 km/h
661 08-05-2010 12:12:01 14.5 C 4.97 g/m*3 14.5 C 0 km/h
662 08-05-2010 12:24:02 15.6 C 5.19 g/m*3 15.6 C 0 km/h
663 08-05-2010 12:36:01 15 C 4.74 g/m*3 15 C 0 km/h
664 08-05-2010 12:48:03 16.3 C 5.13 g/m*3 16.3 C 0 km/h
665 08-05-2010 13:00:03 16.5 C 5.2 g/m*3 16.5 C 0 km/h
666 08-05-2010 13:12:02 16 C 5.31 g/m*3 16 C 0 km/h
667 08-05-2010 13:24:02 15.8 C 5.25 g/m*3 15.8 C 0 km/h
668 08-05-2010 13:36:02 17.5 C 5.37 g/m*3 17.5 C 0 km/h
669 08-05-2010 13:48:02 18.4 C 4.88 g/m*3 18.4 C 0 km/h
670 08-05-2010 14:00:02 16.4 C 4.19 g/m*3 16.4 C 0 km/h
671 08-05-2010 14:12:02 15.5 C 4.1 g/m*3 15.5 C 0 km/h
672 08-05-2010 14:24:02 15 C 4.36 g/m*3 15 C 0 km/h
673 08-05-2010 14:36:01 15.6 C 4.39 g/m*3 15.6 C 0 km/h
674 08-05-2010 14:48:02 15.6 C 4.12 g/m*3 15.6 C 0 km/h
675 08-05-2010 15:00:02 16 C 4.22 g/m*3 16 C 0 km/h
Sensor: Nr:Datum:Temp:Abs-Feuchte:Windchill:Wind:
Aussen-T/F 676 08-05-2010 15:12:01 16.1 C 4.25 g/m*3 16.1 C 0 km/h
677 08-05-2010 15:24:02 16 C 4.36 g/m*3 16 C 0 km/h
678 08-05-2010 15:36:02 16 C 4.36 g/m*3 16 C 0 km/h
679 08-05-2010 15:48:02 15.5 C 4.63 g/m*3 15.5 C 0 km/h
680 08-05-2010 16:00:02 16.4 C 4.61 g/m*3 16.4 C 0 km/h
681 08-05-2010 16:12:03 16.6 C 4.38 g/m*3 16.6 C 0 km/h
682 08-05-2010 16:24:02 16.4 C 4.47 g/m*3 16.4 C 0 km/h
683 08-05-2010 16:36:02 17.5 C 4.32 g/m*3 17.5 C 0 km/h
684 08-05-2010 16:48:01 17.6 C 4.2 g/m*3 17.6 C 0 km/h
685 08-05-2010 17:00:01 17.4 C 4.15 g/m*3 17.4 C 0 km/h
686 08-05-2010 17:12:02 17.5 C 4.17 g/m*3 17.5 C 0 km/h
687 08-05-2010 17:24:01 18.5 C 4.27 g/m*3 18.5 C 0 km/h
688 08-05-2010 17:36:02 17.9 C 4.12 g/m*3 17.9 C 0 km/h
689 08-05-2010 17:48:01 18.7 C 4.16 g/m*3 18.7 C 0 km/h
690 08-05-2010 18:00:01 19.2 C 4.12 g/m*3 19.2 C 0 km/h
691 08-05-2010 18:12:02 19.9 C 3.95 g/m*3 19.9 C 0 km/h
692 08-05-2010 18:24:01 19.4 C 4 g/m*3 19.4 C 0 km/h
693 08-05-2010 18:36:02 19.5 C 4.2 g/m*3 19.5 C 0 km/h
694 08-05-2010 18:48:01 19.8 C 4.27 g/m*3 19.8 C 0 km/h
695 08-05-2010 19:00:01 19.1 C 4.1 g/m*3 19.1 C 0 km/h
696 08-05-2010 19:12:02 18.8 C 4.03 g/m*3 18.8 C 0 km/h
697 08-05-2010 19:24:02 18.4 C 4.25 g/m*3 18.4 C 0 km/h
698 08-05-2010 19:36:02 17.5 C 4.47 g/m*3 17.5 C 0 km/h
699 08-05-2010 19:48:01 17.6 C 4.65 g/m*3 17.6 C 0 km/h
700 08-05-2010 20:00:01 17.3 C 5.16 g/m*3 17.3 C 0 km/h
Sensor: Nr:Datum:Temp:Abs-Feuchte:Windchill:Wind:
Aussen-T/F 701 08-05-2010 20:12:02 16.5 C 6.04 g/m*3 16.5 C 0 km/h
702 08-05-2010 20:24:02 15.7 C 6.42 g/m*3 15.7 C 0 km/h
703 08-05-2010 20:36:02 15.1 C 6.06 g/m*3 15.1 C 0 km/h
704 08-05-2010 20:48:01 14.3 C 6.02 g/m*3 14.3 C 0 km/h
705 08-05-2010 21:00:01 13.8 C 5.96 g/m*3 13.8 C 0 km/h
706 08-05-2010 21:12:02 13.5 C 6.08 g/m*3 13.5 C 0 km/h
707 08-05-2010 21:24:02 13.5 C 6.43 g/m*3 13.5 C 0 km/h
708 08-05-2010 21:36:02 13.5 C 6.08 g/m*3 13.5 C 0 km/h
709 08-05-2010 21:48:02 12.9 C 5.97 g/m*3 12.9 C 0 km/h
710 08-05-2010 22:00:02 12.4 C 5.9 g/m*3 12.4 C 0 km/h
711 08-05-2010 22:12:02 11.9 C 6.04 g/m*3 11.9 C 0 km/h
712 08-05-2010 22:24:02 11.7 C 5.86 g/m*3 11.7 C 0 km/h
713 08-05-2010 22:36:01 11.8 C 6.21 g/m*3 11.8 C 0 km/h
714 08-05-2010 22:48:02 12 C 6.39 g/m*3 12 C 0 km/h
715 08-05-2010 23:00:02 11.8 C 6.21 g/m*3 11.8 C 0 km/h
716 08-05-2010 23:12:01 11.6 C 6.34 g/m*3 11.6 C 0 km/h
717 08-05-2010 23:24:02 11 C 6.21 g/m*3 11 C 0 km/h
718 08-05-2010 23:36:01 10.6 C 6.25 g/m*3 10.6 C 0 km/h
719 08-05-2010 23:48:02 10.3 C 6.22 g/m*3 10.3 C 0 km/h
720 09-05-2010 00:00:02 10.2 C 6.38 g/m*3 10.2 C 0 km/h
721 09-05-2010 00:12:02 10 C 6.39 g/m*3 10 C 0 km/h
722 09-05-2010 00:24:03 9.8 C 6.49 g/m*3 9.8 C 0 km/h
723 09-05-2010 00:36:02 9.6 C 6.41 g/m*3 9.6 C 0 km/h
724 09-05-2010 00:48:02 9.4 C 6.42 g/m*3 9.4 C 0 km/h
725 09-05-2010 01:00:02 9.1 C 6.39 g/m*3 9.1 C 0 km/h
Sensor: Nr:Datum:Temp:Abs-Feuchte:Windchill:Wind:
Aussen-T/F 726 09-05-2010 01:12:02 9 C 6.52 g/m*3 9 C 0 km/h
727 09-05-2010 01:24:03 8.7 C 6.49 g/m*3 8.7 C 0 km/h
728 09-05-2010 01:36:02 8.6 C 6.44 g/m*3 8.6 C 0 km/h
729 09-05-2010 01:48:03 8.7 C 6.57 g/m*3 8.7 C 0 km/h
730 09-05-2010 02:00:03 8.8 C 6.7 g/m*3 8.8 C 0 km/h
731 09-05-2010 02:12:02 8.7 C 6.66 g/m*3 8.7 C 0 km/h
732 09-05-2010 02:24:02 8.7 C 6.66 g/m*3 8.7 C 0 km/h
733 09-05-2010 02:36:02 8.4 C 6.53 g/m*3 8.4 C 0 km/h
734 09-05-2010 02:49:04 8.5 C 6.57 g/m*3 8.5 C 0 km/h
735 09-05-2010 03:01:04 8.5 C 6.66 g/m*3 8.5 C 0 km/h
736 09-05-2010 03:13:03 8.3 C 6.57 g/m*3 8.3 C 0 km/h
737 09-05-2010 03:25:03 8.5 C 6.66 g/m*3 8.5 C 0 km/h
738 09-05-2010 03:37:01 8.5 C 6.66 g/m*3 8.5 C 0 km/h
739 09-05-2010 03:49:01 8.5 C 6.66 g/m*3 8.5 C 0 km/h
740 09-05-2010 04:01:01 8.6 C 6.7 g/m*3 8.6 C 0 km/h
741 09-05-2010 04:13:01 8.6 C 6.7 g/m*3 8.6 C 0 km/h
742 09-05-2010 04:25:02 8.5 C 6.66 g/m*3 8.5 C 0 km/h
743 09-05-2010 04:37:01 8.5 C 6.66 g/m*3 8.5 C 0 km/h
744 09-05-2010 04:49:03 8.3 C 6.57 g/m*3 8.3 C 0 km/h
745 09-05-2010 05:01:02 8 C 6.45 g/m*3 8 C 0 km/h
746 09-05-2010 05:13:02 7.8 C 6.53 g/m*3 7.8 C 0 km/h
747 09-05-2010 05:25:02 7.6 C 6.53 g/m*3 7.6 C 0 km/h
748 09-05-2010 05:37:02 7.4 C 6.52 g/m*3 7.4 C 0 km/h
749 09-05-2010 05:49:02 7.4 C 6.52 g/m*3 7.4 C 0 km/h
750 09-05-2010 06:01:02 7.6 C 6.69 g/m*3 7.6 C 0 km/h
Sensor: Nr:Datum:Temp:Abs-Feuchte:Windchill:Wind:
Aussen-T/F 751 09-05-2010 06:13:02 7.9 C 6.82 g/m*3 7.9 C 0 km/h
752 09-05-2010 06:25:02 8 C 6.7 g/m*3 8 C 0 km/h
753 09-05-2010 06:37:02 8.1 C 6.74 g/m*3 8.1 C 0 km/h
754 09-05-2010 06:49:02 8.3 C 6.83 g/m*3 8.3 C 0 km/h
755 09-05-2010 07:01:02 8.5 C 6.92 g/m*3 8.5 C 0 km/h
756 09-05-2010 07:13:02 8.6 C 6.87 g/m*3 8.6 C 0 km/h
757 09-05-2010 07:25:01 8.7 C 6.83 g/m*3 8.7 C 0 km/h
758 09-05-2010 07:37:02 9.1 C 6.92 g/m*3 9.1 C 0 km/h
759 09-05-2010 07:49:02 9.1 C 6.83 g/m*3 9.1 C 0 km/h
760 09-05-2010 08:01:02 9.6 C 6.96 g/m*3 9.6 C 0 km/h
761 09-05-2010 08:13:02 9.6 C 6.96 g/m*3 9.6 C 0 km/h
762 09-05-2010 08:25:02 9.6 C 6.87 g/m*3 9.6 C 0 km/h
763 09-05-2010 08:37:02 10 C 7.05 g/m*3 10 C 0 km/h
764 09-05-2010 08:49:02 10.4 C 7.04 g/m*3 10.4 C 0 km/h
765 09-05-2010 09:01:02 10.8 C 7.02 g/m*3 10.8 C 0 km/h
766 09-05-2010 09:13:02 10.9 C 7.16 g/m*3 10.9 C 0 km/h
767 09-05-2010 09:25:02 11.1 C 6.95 g/m*3 11.1 C 0 km/h
768 09-05-2010 09:37:03 11.7 C 7.11 g/m*3 11.7 C 0 km/h
769 09-05-2010 09:49:02 12 C 6.93 g/m*3 12 C 0 km/h
770 09-05-2010 10:01:01 12.4 C 6.99 g/m*3 12.4 C 0 km/h
771 09-05-2010 10:13:01 12.7 C 7.12 g/m*3 12.7 C 0 km/h
772 09-05-2010 10:25:01 12.2 C 7.23 g/m*3 12.2 C 0 km/h
773 09-05-2010 10:37:02 12.2 C 7.55 g/m*3 12.2 C 0 km/h
774 09-05-2010 10:49:02 12 C 7.35 g/m*3 12 C 0 km/h
775 09-05-2010 11:01:01 12.2 C 7.55 g/m*3 12.2 C 0 km/h
Sensor: Nr:Datum:Temp:Abs-Feuchte:Windchill:Wind:
Aussen-T/F 776 09-05-2010 11:13:01 12.4 C 7.54 g/m*3 12.4 C 0 km/h
777 09-05-2010 11:25:02 12.3 C 7.38 g/m*3 12.3 C 0 km/h
778 09-05-2010 11:37:01 12.3 C 7.28 g/m*3 12.3 C 0 km/h
779 09-05-2010 11:49:02 12.2 C 7.23 g/m*3 12.2 C 0 km/h
780 09-05-2010 12:01:02 12.3 C 7.28 g/m*3 12.3 C 0 km/h
781 09-05-2010 12:13:02 13 C 7.37 g/m*3 13 C 0 km/h
782 09-05-2010 12:25:02 13.4 C 7.21 g/m*3 13.4 C 0 km/h
783 09-05-2010 12:37:02 14 C 7.24 g/m*3 14 C 0 km/h
784 09-05-2010 12:49:02 14.4 C 7.17 g/m*3 14.4 C 0 km/h
785 09-05-2010 13:01:01 15 C 6.92 g/m*3 15 C 0 km/h
786 09-05-2010 13:13:01 16.2 C 7.03 g/m*3 16.2 C 0 km/h
787 09-05-2010 13:25:01 17.2 C 6.59 g/m*3 17.2 C 0 km/h
788 09-05-2010 13:37:02 18.5 C 6.33 g/m*3 18.5 C 0 km/h
789 09-05-2010 13:49:02 18.2 C 6.22 g/m*3 18.2 C 0 km/h
790 09-05-2010 14:01:02 17.9 C 6.11 g/m*3 17.9 C 0 km/h
791 09-05-2010 14:13:02 17.5 C 6.11 g/m*3 17.5 C 0 km/h
792 09-05-2010 14:25:02 16.7 C 6.11 g/m*3 16.7 C 0 km/h
793 09-05-2010 14:37:01 16.7 C 6.11 g/m*3 16.7 C 0 km/h
794 09-05-2010 14:49:02 17 C 6.22 g/m*3 17 C 0 km/h
795 09-05-2010 15:01:01 17 C 6.22 g/m*3 17 C 0 km/h
796 09-05-2010 15:13:01 17.3 C 6.33 g/m*3 17.3 C 0 km/h
797 09-05-2010 15:25:02 17.6 C 6.3 g/m*3 17.6 C 0 km/h
798 09-05-2010 15:37:01 17.8 C 6.37 g/m*3 17.8 C 0 km/h
799 09-05-2010 15:49:03 17.9 C 6.26 g/m*3 17.9 C 0 km/h
800 09-05-2010 16:01:02 18 C 6.3 g/m*3 18 C 0 km/h
Sensor: Nr:Datum:Temp:Abs-Feuchte:Windchill:Wind:
Aussen-T/F 801 09-05-2010 16:13:02 18.7 C 6.4 g/m*3 18.7 C 0 km/h
802 09-05-2010 16:25:02 19.1 C 6.23 g/m*3 19.1 C 0 km/h
803 09-05-2010 16:37:02 18.7 C 6.08 g/m*3 18.7 C 0 km/h
804 09-05-2010 16:49:02 18 C 5.68 g/m*3 18 C 0 km/h
805 09-05-2010 17:01:02 17.8 C 5.77 g/m*3 17.8 C 0 km/h
806 09-05-2010 17:13:02 19.6 C 5.74 g/m*3 19.6 C 0 km/h
807 09-05-2010 17:25:02 19.5 C 5.03 g/m*3 19.5 C 0 km/h
808 09-05-2010 17:37:02 19.1 C 5.41 g/m*3 19.1 C 0 km/h
809 09-05-2010 17:49:02 19.4 C 5.17 g/m*3 19.4 C 0 km/h
810 09-05-2010 18:01:02 19.5 C 5.71 g/m*3 19.5 C 0 km/h
811 09-05-2010 18:13:02 18.9 C 5.67 g/m*3 18.9 C 0 km/h
812 09-05-2010 18:25:03 18.7 C 5.76 g/m*3 18.7 C 0 km/h
813 09-05-2010 18:37:02 18.3 C 5.79 g/m*3 18.3 C 0 km/h
814 09-05-2010 18:49:03 18.1 C 6.03 g/m*3 18.1 C 0 km/h
815 09-05-2010 19:01:02 17.6 C 6.6 g/m*3 17.6 C 0 km/h
816 09-05-2010 19:13:03 17 C 6.8 g/m*3 17 C 0 km/h
817 09-05-2010 19:25:02 17 C 6.95 g/m*3 17 C 0 km/h
818 09-05-2010 19:37:02 16.6 C 6.92 g/m*3 16.6 C 0 km/h
819 09-05-2010 19:49:01 16.2 C 6.9 g/m*3 16.2 C 0 km/h
820 09-05-2010 20:01:02 15.8 C 7 g/m*3 15.8 C 0 km/h
821 09-05-2010 20:13:02 15.2 C 6.88 g/m*3 15.2 C 0 km/h
822 09-05-2010 20:25:01 14.8 C 6.84 g/m*3 14.8 C 0 km/h
823 09-05-2010 20:37:01 14.3 C 6.88 g/m*3 14.3 C 0 km/h
824 09-05-2010 20:49:01 14 C 6.75 g/m*3 14 C 0 km/h
825 09-05-2010 21:01:02 13.4 C 6.97 g/m*3 13.4 C 0 km/h
Sensor: Nr:Datum:Temp:Abs-Feuchte:Windchill:Wind:
Aussen-T/F 826 09-05-2010 21:13:02 12.8 C 7.06 g/m*3 12.8 C 0 km/h
827 09-05-2010 21:25:02 12.5 C 7.15 g/m*3 12.5 C 0 km/h
828 09-05-2010 21:37:02 12.1 C 7.08 g/m*3 12.1 C 0 km/h
829 09-05-2010 21:49:02 11.7 C 7.11 g/m*3 11.7 C 0 km/h
830 09-05-2010 22:01:03 11.5 C 7.13 g/m*3 11.5 C 0 km/h
831 09-05-2010 22:13:03 11.3 C 7.14 g/m*3 11.3 C 0 km/h
832 09-05-2010 22:25:02 11.1 C 7.05 g/m*3 11.1 C 0 km/h
833 09-05-2010 22:38:04 10.9 C 6.96 g/m*3 10.9 C 0 km/h
834 09-05-2010 22:50:04 10.8 C 7.02 g/m*3 10.8 C 0 km/h
835 09-05-2010 23:02:04 10.8 C 7.12 g/m*3 10.8 C 0 km/h
836 09-05-2010 23:14:04 10.9 C 7.06 g/m*3 10.9 C 0 km/h
837 09-05-2010 23:26:05 10.7 C 7.07 g/m*3 10.7 C 0 km/h
838 09-05-2010 23:38:05 10.8 C 7.22 g/m*3 10.8 C 0 km/h
839 09-05-2010 23:50:05 10.5 C 7.08 g/m*3 10.5 C 0 km/h
840 10-05-2010 00:02:05 10.4 C 7.13 g/m*3 10.4 C 0 km/h
841 10-05-2010 00:14:05 10.5 C 7.18 g/m*3 10.5 C 0 km/h
842 10-05-2010 00:26:05 10.3 C 7.09 g/m*3 10.3 C 0 km/h
843 10-05-2010 00:38:05 10.1 C 7.09 g/m*3 10.1 C 0 km/h
844 10-05-2010 00:50:05 9.8 C 7.24 g/m*3 9.8 C 0 km/h
845 10-05-2010 01:02:05 9.8 C 7.24 g/m*3 9.8 C 0 km/h
846 10-05-2010 01:14:05 9.8 C 7.33 g/m*3 9.8 C 0 km/h
847 10-05-2010 01:26:05 9.9 C 7.38 g/m*3 9.9 C 0 km/h
848 10-05-2010 01:38:05 10 C 7.24 g/m*3 10 C 0 km/h
849 10-05-2010 01:50:05 9.8 C 7.24 g/m*3 9.8 C 0 km/h
850 10-05-2010 02:02:05 9.7 C 7.19 g/m*3 9.7 C 0 km/h
Sensor: Nr:Datum:Temp:Abs-Feuchte:Windchill:Wind:
Aussen-T/F 851 10-05-2010 02:14:05 9.5 C 7.19 g/m*3 9.5 C 0 km/h
852 10-05-2010 02:26:05 9.4 C 7.24 g/m*3 9.4 C 0 km/h
853 10-05-2010 02:38:05 9.4 C 7.24 g/m*3 9.4 C 0 km/h
854 10-05-2010 02:50:05 9.4 C 7.33 g/m*3 9.4 C 0 km/h
855 10-05-2010 03:02:05 9.2 C 7.23 g/m*3 9.2 C 0 km/h
856 10-05-2010 03:14:05 9 C 7.14 g/m*3 9 C 0 km/h
857 10-05-2010 03:26:05 8.8 C 7.14 g/m*3 8.8 C 0 km/h
858 10-05-2010 03:38:05 8.7 C 7.18 g/m*3 8.7 C 0 km/h
859 10-05-2010 03:50:06 8.7 C 7.26 g/m*3 8.7 C 0 km/h
860 10-05-2010 04:02:06 8.6 C 7.22 g/m*3 8.6 C 0 km/h
861 10-05-2010 04:14:06 8.6 C 7.22 g/m*3 8.6 C 0 km/h
862 10-05-2010 04:26:06 8.6 C 7.3 g/m*3 8.6 C 0 km/h
863 10-05-2010 04:38:06 8.6 C 7.3 g/m*3 8.6 C 0 km/h
864 10-05-2010 04:50:06 8.7 C 7.26 g/m*3 8.7 C 0 km/h
865 10-05-2010 05:02:06 8.6 C 7.22 g/m*3 8.6 C 0 km/h
866 10-05-2010 05:14:06 8.6 C 7.22 g/m*3 8.6 C 0 km/h
867 10-05-2010 05:26:06 8.6 C 7.3 g/m*3 8.6 C 0 km/h
868 10-05-2010 05:38:06 8.7 C 7.35 g/m*3 8.7 C 0 km/h
869 10-05-2010 05:50:06 8.8 C 7.31 g/m*3 8.8 C 0 km/h
870 10-05-2010 06:02:06 8.7 C 7.26 g/m*3 8.7 C 0 km/h
871 10-05-2010 06:14:06 8.7 C 7.26 g/m*3 8.7 C 0 km/h
872 10-05-2010 06:26:06 8.8 C 7.31 g/m*3 8.8 C 0 km/h
873 10-05-2010 06:38:04 8.9 C 7.36 g/m*3 8.9 C 0 km/h
874 10-05-2010 06:50:02 9 C 7.32 g/m*3 9 C 0 km/h
875 10-05-2010 07:02:02 9.1 C 7.36 g/m*3 9.1 C 0 km/h
Sensor: Nr:Datum:Temp:Abs-Feuchte:Windchill:Wind:
Aussen-T/F 876 10-05-2010 07:14:02 9.4 C 7.51 g/m*3 9.4 C 0 km/h
877 10-05-2010 07:26:01 9.6 C 7.6 g/m*3 9.6 C 0 km/h
878 10-05-2010 07:38:02 9.8 C 7.7 g/m*3 9.8 C 0 km/h
879 10-05-2010 07:50:02 10.2 C 7.71 g/m*3 10.2 C 0 km/h
880 10-05-2010 08:02:02 10.5 C 7.76 g/m*3 10.5 C 0 km/h
881 10-05-2010 08:14:02 10.6 C 7.71 g/m*3 10.6 C 0 km/h
882 10-05-2010 08:26:02 10.7 C 7.66 g/m*3 10.7 C 0 km/h
883 10-05-2010 08:38:02 10.7 C 7.46 g/m*3 10.7 C 0 km/h
884 10-05-2010 08:50:02 10.7 C 7.37 g/m*3 10.7 C 0 km/h
885 10-05-2010 09:02:02 10.8 C 7.41 g/m*3 10.8 C 0 km/h
886 10-05-2010 09:14:03 10.8 C 7.22 g/m*3 10.8 C 0 km/h
887 10-05-2010 09:26:02 10.7 C 7.27 g/m*3 10.7 C 0 km/h
888 10-05-2010 09:38:02 11 C 7.21 g/m*3 11 C 0 km/h
889 10-05-2010 09:50:02 11.1 C 7.25 g/m*3 11.1 C 0 km/h
890 10-05-2010 10:02:02 11.1 C 7.15 g/m*3 11.1 C 0 km/h
891 10-05-2010 10:14:02 11.4 C 7.08 g/m*3 11.4 C 0 km/h
892 10-05-2010 10:26:03 11.2 C 7.1 g/m*3 11.2 C 0 km/h
893 10-05-2010 10:38:02 11.6 C 7.17 g/m*3 11.6 C 0 km/h
894 10-05-2010 10:50:02 11.4 C 6.98 g/m*3 11.4 C 0 km/h
895 10-05-2010 11:02:02 11.5 C 7.13 g/m*3 11.5 C 0 km/h
896 10-05-2010 11:14:02 11.5 C 7.02 g/m*3 11.5 C 0 km/h
897 10-05-2010 11:26:02 11.5 C 7.02 g/m*3 11.5 C 0 km/h
898 10-05-2010 11:38:02 11.3 C 7.04 g/m*3 11.3 C 0 km/h
899 10-05-2010 11:50:02 11.7 C 7.22 g/m*3 11.7 C 0 km/h
900 10-05-2010 12:02:03 11.7 C 7.11 g/m*3 11.7 C 0 km/h
Sensor: Nr:Datum:Temp:Abs-Feuchte:Windchill:Wind:
Aussen-T/F 901 10-05-2010 12:14:03 11.6 C 6.96 g/m*3 11.6 C 0 km/h
902 10-05-2010 12:26:02 12.7 C 7.01 g/m*3 12.7 C 0 km/h
903 10-05-2010 12:38:03 12.9 C 6.76 g/m*3 12.9 C 0 km/h
904 10-05-2010 12:50:02 14.1 C 6.8 g/m*3 14.1 C 0 km/h
905 10-05-2010 13:02:02 13.5 C 6.43 g/m*3 13.5 C 0 km/h
906 10-05-2010 13:14:02 13.5 C 6.43 g/m*3 13.5 C 0 km/h
907 10-05-2010 13:26:01 14.7 C 6.17 g/m*3 14.7 C 0 km/h
908 10-05-2010 13:38:02 15.3 C 6.4 g/m*3 15.3 C 0 km/h
909 10-05-2010 13:50:02 15.4 C 6.18 g/m*3 15.4 C 0 km/h
910 10-05-2010 14:02:02 15.3 C 6.01 g/m*3 15.3 C 0 km/h
911 10-05-2010 14:14:02 15.5 C 6.08 g/m*3 15.5 C 0 km/h
912 10-05-2010 14:26:02 14.8 C 5.95 g/m*3 14.8 C 0 km/h
913 10-05-2010 14:38:02 14.7 C 5.92 g/m*3 14.7 C 0 km/h
914 10-05-2010 14:50:02 14.7 C 5.92 g/m*3 14.7 C 0 km/h
915 10-05-2010 15:02:02 15 C 5.77 g/m*3 15 C 0 km/h
916 10-05-2010 15:14:02 15.4 C 5.78 g/m*3 15.4 C 0 km/h
917 10-05-2010 15:26:02 15.1 C 5.93 g/m*3 15.1 C 0 km/h
918 10-05-2010 15:38:02 15.3 C 5.62 g/m*3 15.3 C 0 km/h
919 10-05-2010 15:50:02 14.7 C 5.79 g/m*3 14.7 C 0 km/h
920 10-05-2010 16:02:02 15.2 C 5.84 g/m*3 15.2 C 0 km/h
921 10-05-2010 16:14:02 15.8 C 5.79 g/m*3 15.8 C 0 km/h
922 10-05-2010 16:26:02 15.7 C 5.49 g/m*3 15.7 C 0 km/h
923 10-05-2010 16:38:02 16.2 C 5.52 g/m*3 16.2 C 0 km/h
924 10-05-2010 16:50:02 16.3 C 5.13 g/m*3 16.3 C 0 km/h
925 10-05-2010 17:02:02 15.5 C 5.42 g/m*3 15.5 C 0 km/h
Sensor: Nr:Datum:Temp:Abs-Feuchte:Windchill:Wind:
Aussen-T/F 926 10-05-2010 17:14:02 15.6 C 5.45 g/m*3 15.6 C 0 km/h
927 10-05-2010 17:26:02 16 C 5.31 g/m*3 16 C 0 km/h
928 10-05-2010 17:38:02 16 C 5.31 g/m*3 16 C 0 km/h
929 10-05-2010 17:50:01 15.8 C 5.38 g/m*3 15.8 C 0 km/h
930 10-05-2010 18:02:02 16.4 C 5.02 g/m*3 16.4 C 0 km/h
931 10-05-2010 18:14:02 17.3 C 5.01 g/m*3 17.3 C 0 km/h
932 10-05-2010 18:26:02 17.6 C 5.1 g/m*3 17.6 C 0 km/h
933 10-05-2010 18:38:01 17.1 C 4.66 g/m*3 17.1 C 0 km/h
934 10-05-2010 18:50:02 15.8 C 4.71 g/m*3 15.8 C 0 km/h
935 10-05-2010 19:02:01 15.4 C 4.73 g/m*3 15.4 C 0 km/h
936 10-05-2010 19:14:01 15.6 C 4.92 g/m*3 15.6 C 0 km/h
937 10-05-2010 19:26:02 14.9 C 4.97 g/m*3 14.9 C 0 km/h
938 10-05-2010 19:38:01 14.7 C 5.04 g/m*3 14.7 C 0 km/h
939 10-05-2010 19:50:02 14.5 C 5.1 g/m*3 14.5 C 0 km/h
940 10-05-2010 20:02:01 14.5 C 4.97 g/m*3 14.5 C 0 km/h
941 10-05-2010 20:14:01 14.5 C 4.97 g/m*3 14.5 C 0 km/h
942 10-05-2010 20:26:02 14.3 C 5.04 g/m*3 14.3 C 0 km/h
943 10-05-2010 20:38:01 13.7 C 5.09 g/m*3 13.7 C 0 km/h
944 10-05-2010 20:50:02 13.1 C 5.14 g/m*3 13.1 C 0 km/h
945 10-05-2010 21:02:02 12.8 C 5.38 g/m*3 12.8 C 0 km/h
946 10-05-2010 21:14:02 12.3 C 5.43 g/m*3 12.3 C 0 km/h
947 10-05-2010 21:26:02 11.9 C 5.51 g/m*3 11.9 C 0 km/h
948 10-05-2010 21:38:02 11.6 C 5.4 g/m*3 11.6 C 0 km/h
949 10-05-2010 21:50:02 11.5 C 5.58 g/m*3 11.5 C 0 km/h
950 10-05-2010 22:02:02 11.5 C 5.68 g/m*3 11.5 C 0 km/h
Sensor: Nr:Datum:Temp:Abs-Feuchte:Windchill:Wind:
Aussen-T/F 951 10-05-2010 22:14:02 11.5 C 5.58 g/m*3 11.5 C 0 km/h
952 10-05-2010 22:27:04 11.2 C 5.57 g/m*3 11.2 C 0 km/h
953 10-05-2010 22:39:04 11.1 C 5.54 g/m*3 11.1 C 0 km/h
954 10-05-2010 22:51:04 11.8 C 5.79 g/m*3 11.8 C 0 km/h
955 10-05-2010 23:03:04 11.6 C 5.92 g/m*3 11.6 C 0 km/h
956 10-05-2010 23:15:05 11.2 C 5.68 g/m*3 11.2 C 0 km/h
957 10-05-2010 23:27:05 11.3 C 5.81 g/m*3 11.3 C 0 km/h
958 10-05-2010 23:39:05 11.4 C 5.85 g/m*3 11.4 C 0 km/h
959 10-05-2010 23:51:05 11.2 C 5.78 g/m*3 11.2 C 0 km/h
960 11-05-2010 00:03:05 11 C 5.71 g/m*3 11 C 0 km/h
961 11-05-2010 00:15:05 11.1 C 5.74 g/m*3 11.1 C 0 km/h
962 11-05-2010 00:27:05 10.7 C 5.7 g/m*3 10.7 C 0 km/h
963 11-05-2010 00:39:05 10.8 C 5.83 g/m*3 10.8 C 0 km/h
964 11-05-2010 00:51:05 10.8 C 5.83 g/m*3 10.8 C 0 km/h
965 11-05-2010 01:03:05 10.4 C 5.88 g/m*3 10.4 C 0 km/h
966 11-05-2010 01:15:05 10.5 C 5.82 g/m*3 10.5 C 0 km/h
967 11-05-2010 01:27:05 10.5 C 5.92 g/m*3 10.5 C 0 km/h
968 11-05-2010 01:39:05 10.4 C 5.98 g/m*3 10.4 C 0 km/h
969 11-05-2010 01:51:05 10.3 C 6.03 g/m*3 10.3 C 0 km/h
970 11-05-2010 02:03:05 10.1 C 5.96 g/m*3 10.1 C 0 km/h
971 11-05-2010 02:15:05 10 C 6.01 g/m*3 10 C 0 km/h
972 11-05-2010 02:27:05 10.1 C 6.05 g/m*3 10.1 C 0 km/h
973 11-05-2010 02:39:05 10.1 C 6.05 g/m*3 10.1 C 0 km/h
974 11-05-2010 02:51:05 10.2 C 6.09 g/m*3 10.2 C 0 km/h
975 11-05-2010 03:03:05 10 C 6.11 g/m*3 10 C 0 km/h
Sensor: Nr:Datum:Temp:Abs-Feuchte:Windchill:Wind:
Aussen-T/F 976 11-05-2010 03:15:05 9.7 C 5.99 g/m*3 9.7 C 0 km/h
977 11-05-2010 03:27:05 9.9 C 6.07 g/m*3 9.9 C 0 km/h
978 11-05-2010 03:39:06 9.7 C 6.27 g/m*3 9.7 C 0 km/h
979 11-05-2010 03:51:06 9.6 C 6.32 g/m*3 9.6 C 0 km/h
980 11-05-2010 04:03:06 9.7 C 6.45 g/m*3 9.7 C 0 km/h
981 11-05-2010 04:15:06 9.5 C 6.1 g/m*3 9.5 C 0 km/h
982 11-05-2010 04:27:06 9.4 C 6.06 g/m*3 9.4 C 0 km/h
983 11-05-2010 04:39:06 9.3 C 6.02 g/m*3 9.3 C 0 km/h
984 11-05-2010 04:51:06 9.4 C 6.15 g/m*3 9.4 C 0 km/h
985 11-05-2010 05:03:06 9.4 C 6.15 g/m*3 9.4 C 0 km/h
986 11-05-2010 05:15:06 9.3 C 6.11 g/m*3 9.3 C 0 km/h
987 11-05-2010 05:27:06 9.5 C 6.19 g/m*3 9.5 C 0 km/h
988 11-05-2010 05:39:06 9.4 C 6.15 g/m*3 9.4 C 0 km/h
989 11-05-2010 05:51:06 9.3 C 6.2 g/m*3 9.3 C 0 km/h
990 11-05-2010 06:03:06 9.4 C 6.24 g/m*3 9.4 C 0 km/h
991 11-05-2010 06:15:06 9.3 C 6.11 g/m*3 9.3 C 0 km/h
992 11-05-2010 06:27:06 9.3 C 6.2 g/m*3 9.3 C 0 km/h
993 11-05-2010 06:39:06 9.1 C 6.12 g/m*3 9.1 C 0 km/h
994 11-05-2010 06:51:02 9.1 C 6.12 g/m*3 9.1 C 0 km/h
995 11-05-2010 07:03:01 9.3 C 6.29 g/m*3 9.3 C 0 km/h
996 11-05-2010 07:15:02 9.5 C 6.37 g/m*3 9.5 C 0 km/h
997 11-05-2010 07:27:02 9.6 C 6.32 g/m*3 9.6 C 0 km/h
998 11-05-2010 07:39:02 9.7 C 6.27 g/m*3 9.7 C 0 km/h
999 11-05-2010 07:51:01 9.9 C 6.35 g/m*3 9.9 C 0 km/h
1000 11-05-2010 08:03:02 10.1 C 6.24 g/m*3 10.1 C 0 km/h
Sensor: Nr:Datum:Temp:Abs-Feuchte:Windchill:Wind:
Aussen-T/F 1001 11-05-2010 08:15:01 10.5 C 6.3 g/m*3 10.5 C 0 km/h
1002 11-05-2010 08:27:01 10.7 C 6.19 g/m*3 10.7 C 0 km/h
1003 11-05-2010 08:39:01 11.2 C 6.28 g/m*3 11.2 C 0 km/h
1004 11-05-2010 08:51:01 12 C 6.29 g/m*3 12 C 0 km/h
1005 11-05-2010 09:03:02 11.7 C 6.07 g/m*3 11.7 C 0 km/h
1006 11-05-2010 09:15:01 11.7 C 6.07 g/m*3 11.7 C 0 km/h
1007 11-05-2010 09:27:01 11.9 C 6.14 g/m*3 11.9 C 0 km/h
1008 11-05-2010 09:39:02 12.8 C 6.05 g/m*3 12.8 C 0 km/h
1009 11-05-2010 09:51:01 12.7 C 5.79 g/m*3 12.7 C 0 km/h
1010 11-05-2010 10:03:02 12.8 C 6.16 g/m*3 12.8 C 0 km/h
1011 11-05-2010 10:15:02 13 C 6.01 g/m*3 13 C 0 km/h
1012 11-05-2010 10:27:02 13 C 5.9 g/m*3 13 C 0 km/h
1013 11-05-2010 10:39:01 12.3 C 5.97 g/m*3 12.3 C 0 km/h
1014 11-05-2010 10:51:01 11.8 C 6.21 g/m*3 11.8 C 0 km/h
1015 11-05-2010 11:03:01 12 C 6.07 g/m*3 12 C 0 km/h
1016 11-05-2010 11:15:02 12 C 6.07 g/m*3 12 C 0 km/h
1017 11-05-2010 11:27:02 12 C 6.18 g/m*3 12 C 0 km/h
1018 11-05-2010 11:39:02 12.5 C 6.38 g/m*3 12.5 C 0 km/h
1019 11-05-2010 11:51:02 14.1 C 6.19 g/m*3 14.1 C 0 km/h
1020 11-05-2010 12:03:02 14.1 C 5.95 g/m*3 14.1 C 0 km/h
1021 11-05-2010 12:15:02 13.7 C 6.28 g/m*3 13.7 C 0 km/h
1022 11-05-2010 12:27:02 14.8 C 6.33 g/m*3 14.8 C 0 km/h
1023 11-05-2010 12:39:01 14.1 C 5.95 g/m*3 14.1 C 0 km/h
1024 11-05-2010 12:51:02 14.3 C 6.27 g/m*3 14.3 C 0 km/h
1025 11-05-2010 13:03:01 13.4 C 6.16 g/m*3 13.4 C 0 km/h
Sensor: Nr:Datum:Temp:Abs-Feuchte:Windchill:Wind:
Aussen-T/F 1026 11-05-2010 13:15:01 13.7 C 6.39 g/m*3 13.7 C 0 km/h
1027 11-05-2010 13:27:01 14.2 C 6.23 g/m*3 14.2 C 0 km/h
1028 11-05-2010 13:39:01 14.1 C 6.19 g/m*3 14.1 C 0 km/h
1029 11-05-2010 13:51:02 13.3 C 6.35 g/m*3 13.3 C 0 km/h
1030 11-05-2010 14:03:01 14.1 C 6.43 g/m*3 14.1 C 0 km/h
1031 11-05-2010 14:15:01 14 C 6.27 g/m*3 14 C 0 km/h
1032 11-05-2010 14:27:01 14.1 C 6.43 g/m*3 14.1 C 0 km/h
1033 11-05-2010 14:39:02 14 C 6.39 g/m*3 14 C 0 km/h
1034 11-05-2010 14:51:02 14 C 6.51 g/m*3 14 C 0 km/h
1035 11-05-2010 15:03:02 14.4 C 6.55 g/m*3 14.4 C 0 km/h
1036 11-05-2010 15:15:02 14.1 C 6.31 g/m*3 14.1 C 0 km/h
1037 11-05-2010 15:27:02 14.7 C 6.55 g/m*3 14.7 C 0 km/h
1038 11-05-2010 15:39:02 14.5 C 6.34 g/m*3 14.5 C 0 km/h
1039 11-05-2010 15:51:02 14.3 C 6.39 g/m*3 14.3 C 0 km/h
1040 11-05-2010 16:03:03 14.3 C 6.51 g/m*3 14.3 C 0 km/h
1041 11-05-2010 16:15:02 14.8 C 6.71 g/m*3 14.8 C 0 km/h
1042 11-05-2010 16:27:02 15.6 C 6.65 g/m*3 15.6 C 0 km/h
1043 11-05-2010 16:39:03 15.9 C 6.5 g/m*3 15.9 C 0 km/h
1044 11-05-2010 16:51:01 15.6 C 6.52 g/m*3 15.6 C 0 km/h
1045 11-05-2010 17:03:02 14.9 C 6.75 g/m*3 14.9 C 0 km/h
1046 11-05-2010 17:15:01 15.1 C 6.58 g/m*3 15.1 C 0 km/h
1047 11-05-2010 17:27:01 14.7 C 6.8 g/m*3 14.7 C 0 km/h
1048 11-05-2010 17:39:02 14.8 C 6.71 g/m*3 14.8 C 0 km/h
1049 11-05-2010 17:51:01 14.7 C 6.8 g/m*3 14.7 C 0 km/h
1050 11-05-2010 18:03:02 14.5 C 6.96 g/m*3 14.5 C 0 km/h
Sensor: Nr:Datum:Temp:Abs-Feuchte:Windchill:Wind:
Aussen-T/F 1051 11-05-2010 18:15:02 13.9 C 7.07 g/m*3 13.9 C 0 km/h
1052 11-05-2010 18:27:02 12.5 C 7.48 g/m*3 12.5 C 0 km/h
1053 11-05-2010 18:39:02 11.9 C 8.05 g/m*3 11.9 C 0 km/h
1054 11-05-2010 18:51:01 11.6 C 8.21 g/m*3 11.6 C 0 km/h
1055 11-05-2010 19:03:02 11.3 C 8.16 g/m*3 11.3 C 0 km/h
1056 11-05-2010 19:15:02 11.1 C 8.36 g/m*3 11.1 C 0 km/h
1057 11-05-2010 19:27:02 10.9 C 8.36 g/m*3 10.9 C 0 km/h
1058 11-05-2010 19:39:02 10.8 C 8.3 g/m*3 10.8 C 0 km/h
1059 11-05-2010 19:51:01 10.6 C 8.39 g/m*3 10.6 C 0 km/h
1060 11-05-2010 20:03:02 10.5 C 8.44 g/m*3 10.5 C 0 km/h
1061 11-05-2010 20:15:02 10.2 C 8.37 g/m*3 10.2 C 0 km/h
1062 11-05-2010 20:27:02 10.1 C 8.42 g/m*3 10.1 C 0 km/h
1063 11-05-2010 20:39:02 10 C 8.46 g/m*3 10 C 0 km/h
1064 11-05-2010 20:51:02 9.8 C 8.54 g/m*3 9.8 C 0 km/h
1065 11-05-2010 21:03:01 9.8 C 8.54 g/m*3 9.8 C 0 km/h
1066 11-05-2010 21:15:02 9.9 C 8.59 g/m*3 9.9 C 0 km/h
1067 11-05-2010 21:27:03 10 C 8.64 g/m*3 10 C 0 km/h
1068 11-05-2010 21:39:01 9.8 C 8.63 g/m*3 9.8 C 0 km/h
1069 11-05-2010 21:51:02 9.8 C 8.63 g/m*3 9.8 C 0 km/h
1070 11-05-2010 22:03:02 9.7 C 8.57 g/m*3 9.7 C 0 km/h
1071 11-05-2010 22:15:01 9.6 C 8.52 g/m*3 9.6 C 0 km/h
1072 11-05-2010 22:27:01 9.8 C 8.72 g/m*3 9.8 C 0 km/h
1073 11-05-2010 22:40:03 9.6 C 8.61 g/m*3 9.6 C 0 km/h
1074 11-05-2010 22:52:03 9.7 C 8.67 g/m*3 9.7 C 0 km/h
1075 11-05-2010 23:04:03 9.8 C 8.72 g/m*3 9.8 C 0 km/h
Sensor: Nr:Datum:Temp:Abs-Feuchte:Windchill:Wind:
Aussen-T/F 1076 11-05-2010 23:16:03 9.8 C 8.72 g/m*3 9.8 C 0 km/h
1077 11-05-2010 23:28:03 9.8 C 8.72 g/m*3 9.8 C 0 km/h
1078 11-05-2010 23:40:03 9.9 C 8.78 g/m*3 9.9 C 0 km/h
1079 11-05-2010 23:52:03 9.7 C 8.67 g/m*3 9.7 C 0 km/h
1080 12-05-2010 00:04:03 9.7 C 8.67 g/m*3 9.7 C 0 km/h
1081 12-05-2010 00:16:03 9.6 C 8.61 g/m*3 9.6 C 0 km/h
1082 12-05-2010 00:28:03 9.1 C 8.34 g/m*3 9.1 C 0 km/h
1083 12-05-2010 00:40:03 9.1 C 8.34 g/m*3 9.1 C 0 km/h
1084 12-05-2010 00:52:03 9.1 C 8.34 g/m*3 9.1 C 0 km/h
1085 12-05-2010 01:04:03 9.1 C 8.34 g/m*3 9.1 C 0 km/h
1086 12-05-2010 01:16:03 8.8 C 8.27 g/m*3 8.8 C 0 km/h
1087 12-05-2010 01:28:04 8.5 C 8.03 g/m*3 8.5 C 0 km/h
1088 12-05-2010 01:40:04 8.4 C 7.97 g/m*3 8.4 C 0 km/h
1089 12-05-2010 01:52:04 7.8 C 7.75 g/m*3 7.8 C 0 km/h
1090 12-05-2010 02:04:04 7.5 C 7.52 g/m*3 7.5 C 0 km/h
1091 12-05-2010 02:16:04 7.8 C 7.75 g/m*3 7.8 C 0 km/h
1092 12-05-2010 02:28:04 7.9 C 7.8 g/m*3 7.9 C 0 km/h
1093 12-05-2010 02:40:04 7.9 C 7.8 g/m*3 7.9 C 0 km/h
1094 12-05-2010 02:52:04 7.5 C 7.6 g/m*3 7.5 C 0 km/h
1095 12-05-2010 03:04:04 7.3 C 7.43 g/m*3 7.3 C 0 km/h
1096 12-05-2010 03:16:04 7.2 C 7.38 g/m*3 7.2 C 0 km/h
1097 12-05-2010 03:28:04 7.1 C 7.33 g/m*3 7.1 C 0 km/h
1098 12-05-2010 03:40:04 7 C 7.28 g/m*3 7 C 0 km/h
1099 12-05-2010 03:52:04 7 C 7.21 g/m*3 7 C 0 km/h
1100 12-05-2010 04:04:04 6.9 C 7.16 g/m*3 6.9 C 0 km/h
Sensor: Nr:Datum:Temp:Abs-Feuchte:Windchill:Wind:
Aussen-T/F 1101 12-05-2010 04:16:04 6.9 C 7.08 g/m*3 6.9 C 0 km/h
1102 12-05-2010 04:28:04 6.9 C 7.01 g/m*3 6.9 C 0 km/h
1103 12-05-2010 04:40:04 6.9 C 6.93 g/m*3 6.9 C 0 km/h
1104 12-05-2010 04:52:04 6.8 C 6.81 g/m*3 6.8 C 0 km/h
1105 12-05-2010 05:04:04 6.8 C 6.73 g/m*3 6.8 C 0 km/h
1106 12-05-2010 05:16:04 6.8 C 6.65 g/m*3 6.8 C 0 km/h
1107 12-05-2010 05:28:04 6.8 C 6.65 g/m*3 6.8 C 0 km/h
1108 12-05-2010 05:40:05 6.8 C 6.65 g/m*3 6.8 C 0 km/h
1109 12-05-2010 05:52:05 6.8 C 6.65 g/m*3 6.8 C 0 km/h
1110 12-05-2010 06:04:05 6.7 C 6.61 g/m*3 6.7 C 0 km/h
1111 12-05-2010 06:16:05 6.8 C 6.58 g/m*3 6.8 C 0 km/h
1112 12-05-2010 06:28:05 6.8 C 6.5 g/m*3 6.8 C 0 km/h
1113 12-05-2010 06:40:05 6.8 C 6.58 g/m*3 6.8 C 0 km/h
1114 12-05-2010 06:52:05 6.8 C 6.58 g/m*3 6.8 C 0 km/h
1115 12-05-2010 07:04:03 6.9 C 6.54 g/m*3 6.9 C 0 km/h
1116 12-05-2010 07:16:03 7 C 6.59 g/m*3 7 C 0 km/h
1117 12-05-2010 07:28:03 7.1 C 6.71 g/m*3 7.1 C 0 km/h
1118 12-05-2010 07:40:03 7.2 C 6.67 g/m*3 7.2 C 0 km/h
1119 12-05-2010 07:52:02 7.2 C 6.59 g/m*3 7.2 C 0 km/h
1120 12-05-2010 08:04:02 7.3 C 6.56 g/m*3 7.3 C 0 km/h
1121 12-05-2010 08:16:02 7.6 C 6.69 g/m*3 7.6 C 0 km/h
1122 12-05-2010 08:28:02 7.7 C 6.57 g/m*3 7.7 C 0 km/h
1123 12-05-2010 08:40:02 7.8 C 6.45 g/m*3 7.8 C 0 km/h
1124 12-05-2010 08:52:01 7.8 C 6.45 g/m*3 7.8 C 0 km/h
1125 12-05-2010 09:04:02 8 C 6.37 g/m*3 8 C 0 km/h
Sensor: Nr:Datum:Temp:Abs-Feuchte:Windchill:Wind:
Aussen-T/F 1126 12-05-2010 09:16:01 8.3 C 6.41 g/m*3 8.3 C 0 km/h
1127 12-05-2010 09:28:01 8.4 C 6.19 g/m*3 8.4 C 0 km/h
1128 12-05-2010 09:40:01 8.3 C 6.07 g/m*3 8.3 C 0 km/h
1129 12-05-2010 09:52:01 8.4 C 6.11 g/m*3 8.4 C 0 km/h
1130 12-05-2010 10:04:02 8.4 C 6.02 g/m*3 8.4 C 0 km/h
1131 12-05-2010 10:16:01 8.6 C 6.1 g/m*3 8.6 C 0 km/h
1132 12-05-2010 10:28:01 8.6 C 6.02 g/m*3 8.6 C 0 km/h
1133 12-05-2010 10:40:01 8.7 C 5.97 g/m*3 8.7 C 0 km/h
1134 12-05-2010 10:52:01 8.7 C 5.79 g/m*3 8.7 C 0 km/h
1135 12-05-2010 11:04:01 8.7 C 5.79 g/m*3 8.7 C 0 km/h
1136 12-05-2010 11:16:02 8.9 C 5.87 g/m*3 8.9 C 0 km/h
1137 12-05-2010 11:28:02 8.9 C 5.61 g/m*3 8.9 C 0 km/h
1138 12-05-2010 11:40:01 9.3 C 5.57 g/m*3 9.3 C 0 km/h
1139 12-05-2010 11:52:01 10.1 C 5.67 g/m*3 10.1 C 0 km/h
1140 12-05-2010 12:04:01 10 C 5.54 g/m*3 10 C 0 km/h
1141 12-05-2010 12:16:02 9.7 C 5.35 g/m*3 9.7 C 0 km/h
1142 12-05-2010 12:28:02 9.9 C 5.51 g/m*3 9.9 C 0 km/h
1143 12-05-2010 12:40:01 10.5 C 5.33 g/m*3 10.5 C 0 km/h
1144 12-05-2010 12:52:03 10.2 C 5.42 g/m*3 10.2 C 0 km/h
1145 12-05-2010 13:04:02 10.5 C 5.43 g/m*3 10.5 C 0 km/h
1146 12-05-2010 13:16:02 11.1 C 5.34 g/m*3 11.1 C 0 km/h
1147 12-05-2010 13:28:02 10.7 C 5.3 g/m*3 10.7 C 0 km/h
1148 12-05-2010 13:40:02 10.4 C 5.2 g/m*3 10.4 C 0 km/h
1149 12-05-2010 13:52:02 10.7 C 5.21 g/m*3 10.7 C 0 km/h
1150 12-05-2010 14:04:02 10.2 C 5.23 g/m*3 10.2 C 0 km/h
Sensor: Nr:Datum:Temp:Abs-Feuchte:Windchill:Wind:
Aussen-T/F 1151 12-05-2010 14:16:02 10.2 C 5.23 g/m*3 10.2 C 0 km/h
1152 12-05-2010 14:28:02 10.6 C 5.17 g/m*3 10.6 C 0 km/h
1153 12-05-2010 14:40:01 10.9 C 5.17 g/m*3 10.9 C 0 km/h
1154 12-05-2010 14:52:02 10.7 C 4.81 g/m*3 10.7 C 0 km/h
1155 12-05-2010 15:04:01 11.1 C 5.14 g/m*3 11.1 C 0 km/h
1156 12-05-2010 15:16:02 10.8 C 4.94 g/m*3 10.8 C 0 km/h
1157 12-05-2010 15:28:02 10.8 C 4.84 g/m*3 10.8 C 0 km/h
1158 12-05-2010 15:40:02 10.8 C 5.04 g/m*3 10.8 C 0 km/h
1159 12-05-2010 15:52:02 10.7 C 5.11 g/m*3 10.7 C 0 km/h
1160 12-05-2010 16:04:02 10.8 C 5.24 g/m*3 10.8 C 0 km/h
1161 12-05-2010 16:16:02 10.9 C 5.17 g/m*3 10.9 C 0 km/h
1162 12-05-2010 16:28:02 10.7 C 5.3 g/m*3 10.7 C 0 km/h
1163 12-05-2010 16:40:02 10.3 C 5.17 g/m*3 10.3 C 0 km/h
1164 12-05-2010 16:52:01 9.9 C 5.32 g/m*3 9.9 C 0 km/h
1165 12-05-2010 17:04:02 9.6 C 5.22 g/m*3 9.6 C 0 km/h
1166 12-05-2010 17:16:01 9.7 C 5.35 g/m*3 9.7 C 0 km/h
1167 12-05-2010 17:28:01 9.9 C 5.32 g/m*3 9.9 C 0 km/h
1168 12-05-2010 17:40:02 9.9 C 5.32 g/m*3 9.9 C 0 km/h
1169 12-05-2010 17:52:02 9.6 C 5.22 g/m*3 9.6 C 0 km/h
1170 12-05-2010 18:04:02 9.6 C 5.4 g/m*3 9.6 C 0 km/h
1171 12-05-2010 18:16:01 9.3 C 5.39 g/m*3 9.3 C 0 km/h
1172 12-05-2010 18:28:01 9.1 C 5.41 g/m*3 9.1 C 0 km/h
1173 12-05-2010 18:40:02 9.1 C 5.5 g/m*3 9.1 C 0 km/h
1174 12-05-2010 18:52:02 9 C 5.55 g/m*3 9 C 0 km/h
1175 12-05-2010 19:04:02 9 C 5.64 g/m*3 9 C 0 km/h
Sensor: Nr:Datum:Temp:Abs-Feuchte:Windchill:Wind:
Aussen-T/F 1176 12-05-2010 19:16:01 8.8 C 5.66 g/m*3 8.8 C 0 km/h
1177 12-05-2010 19:28:01 9 C 5.73 g/m*3 9 C 0 km/h
1178 12-05-2010 19:40:02 9 C 5.73 g/m*3 9 C 0 km/h
1179 12-05-2010 19:52:02 8.7 C 5.71 g/m*3 8.7 C 0 km/h
1180 12-05-2010 20:04:02 8.6 C 5.76 g/m*3 8.6 C 0 km/h
1181 12-05-2010 20:16:02 8.6 C 5.84 g/m*3 8.6 C 0 km/h
1182 12-05-2010 20:28:02 8.6 C 5.84 g/m*3 8.6 C 0 km/h
1183 12-05-2010 20:40:02 8.5 C 5.81 g/m*3 8.5 C 0 km/h
1184 12-05-2010 20:52:02 8.5 C 5.98 g/m*3 8.5 C 0 km/h
1185 12-05-2010 21:04:02 8.5 C 5.89 g/m*3 8.5 C 0 km/h
1186 12-05-2010 21:16:02 8.4 C 5.94 g/m*3 8.4 C 0 km/h
1187 12-05-2010 21:28:02 8.5 C 6.06 g/m*3 8.5 C 0 km/h
1188 12-05-2010 21:40:01 8.5 C 6.06 g/m*3 8.5 C 0 km/h
1189 12-05-2010 21:52:02 8.3 C 6.07 g/m*3 8.3 C 0 km/h
1190 12-05-2010 22:04:01 8 C 6.2 g/m*3 8 C 0 km/h
1191 12-05-2010 22:17:03 8 C 6.37 g/m*3 8 C 0 km/h
1192 12-05-2010 22:29:03 7.6 C 6.36 g/m*3 7.6 C 0 km/h
1193 12-05-2010 22:41:03 7.5 C 6.48 g/m*3 7.5 C 0 km/h
1194 12-05-2010 22:53:03 7.7 C 6.65 g/m*3 7.7 C 0 km/h
1195 12-05-2010 23:05:03 7.8 C 6.69 g/m*3 7.8 C 0 km/h
1196 12-05-2010 23:17:03 7.8 C 6.69 g/m*3 7.8 C 0 km/h
1197 12-05-2010 23:29:03 7.8 C 6.69 g/m*3 7.8 C 0 km/h
1198 12-05-2010 23:41:04 7.9 C 6.74 g/m*3 7.9 C 0 km/h
1199 12-05-2010 23:53:04 7.7 C 6.57 g/m*3 7.7 C 0 km/h
1200 13-05-2010 00:05:04 7.7 C 6.57 g/m*3 7.7 C 0 km/h
Sensor: Nr:Datum:Temp:Abs-Feuchte:Windchill:Wind:
Aussen-T/F 1201 13-05-2010 00:17:04 7.6 C 6.53 g/m*3 7.6 C 0 km/h
1202 13-05-2010 00:29:04 7.5 C 6.4 g/m*3 7.5 C 0 km/h
1203 13-05-2010 00:41:04 7.6 C 6.44 g/m*3 7.6 C 0 km/h
1204 13-05-2010 00:53:04 7.5 C 6.4 g/m*3 7.5 C 0 km/h
1205 13-05-2010 01:05:04 7.4 C 6.36 g/m*3 7.4 C 0 km/h
1206 13-05-2010 01:17:04 7.3 C 6.48 g/m*3 7.3 C 0 km/h
1207 13-05-2010 01:29:04 7.3 C 6.48 g/m*3 7.3 C 0 km/h
1208 13-05-2010 01:41:04 7.3 C 6.56 g/m*3 7.3 C 0 km/h
1209 13-05-2010 01:53:04 7.4 C 6.68 g/m*3 7.4 C 0 km/h
1210 13-05-2010 02:05:04 7.5 C 6.72 g/m*3 7.5 C 0 km/h
1211 13-05-2010 02:17:04 7.4 C 6.6 g/m*3 7.4 C 0 km/h
1212 13-05-2010 02:29:04 7.4 C 6.52 g/m*3 7.4 C 0 km/h
1213 13-05-2010 02:41:04 7.4 C 6.52 g/m*3 7.4 C 0 km/h
1214 13-05-2010 02:53:04 7.4 C 6.52 g/m*3 7.4 C 0 km/h
1215 13-05-2010 03:05:04 7.4 C 6.52 g/m*3 7.4 C 0 km/h
1216 13-05-2010 03:17:04 7.4 C 6.52 g/m*3 7.4 C 0 km/h
1217 13-05-2010 03:29:04 7.3 C 6.48 g/m*3 7.3 C 0 km/h
1218 13-05-2010 03:41:05 7.3 C 6.56 g/m*3 7.3 C 0 km/h
1219 13-05-2010 03:53:05 7.1 C 6.47 g/m*3 7.1 C 0 km/h
1220 13-05-2010 04:05:05 6.9 C 6.54 g/m*3 6.9 C 0 km/h
1221 13-05-2010 04:17:05 7 C 6.51 g/m*3 7 C 0 km/h
1222 13-05-2010 04:29:05 7.1 C 6.63 g/m*3 7.1 C 0 km/h
1223 13-05-2010 04:41:05 7.1 C 6.63 g/m*3 7.1 C 0 km/h
1224 13-05-2010 04:53:05 6.9 C 6.62 g/m*3 6.9 C 0 km/h
1225 13-05-2010 05:05:05 6.9 C 6.7 g/m*3 6.9 C 0 km/h
Sensor: Nr:Datum:Temp:Abs-Feuchte:Windchill:Wind:
Aussen-T/F 1226 13-05-2010 05:17:05 6.8 C 6.65 g/m*3 6.8 C 0 km/h
1227 13-05-2010 05:29:05 6.8 C 6.65 g/m*3 6.8 C 0 km/h
1228 13-05-2010 05:41:05 6.7 C 6.61 g/m*3 6.7 C 0 km/h
1229 13-05-2010 05:53:05 6.6 C 6.64 g/m*3 6.6 C 0 km/h
1230 13-05-2010 06:05:05 6.6 C 6.64 g/m*3 6.6 C 0 km/h
1231 13-05-2010 06:17:05 6.7 C 6.69 g/m*3 6.7 C 0 km/h
1232 13-05-2010 06:29:05 6.7 C 6.69 g/m*3 6.7 C 0 km/h
1233 13-05-2010 06:41:05 6.6 C 6.64 g/m*3 6.6 C 0 km/h
1234 13-05-2010 06:53:05 6.6 C 6.64 g/m*3 6.6 C 0 km/h
1235 13-05-2010 07:05:05 6.7 C 6.76 g/m*3 6.7 C 0 km/h
1236 13-05-2010 07:17:05 6.7 C 6.76 g/m*3 6.7 C 0 km/h
1237 13-05-2010 07:29:05 6.9 C 6.77 g/m*3 6.9 C 0 km/h
1238 13-05-2010 07:41:05 6.9 C 6.7 g/m*3 6.9 C 0 km/h
1239 13-05-2010 07:53:01 6.8 C 6.5 g/m*3 6.8 C 0 km/h
1240 13-05-2010 08:05:01 6.8 C 6.42 g/m*3 6.8 C 0 km/h
1241 13-05-2010 08:17:02 6.8 C 6.35 g/m*3 6.8 C 0 km/h
1242 13-05-2010 08:29:02 6.9 C 6.31 g/m*3 6.9 C 0 km/h
1243 13-05-2010 08:41:01 7 C 6.12 g/m*3 7 C 0 km/h
1244 13-05-2010 08:53:02 7.2 C 6.12 g/m*3 7.2 C 0 km/h
1245 13-05-2010 09:05:01 7.5 C 6.24 g/m*3 7.5 C 0 km/h
1246 13-05-2010 09:17:01 7.8 C 6.2 g/m*3 7.8 C 0 km/h
1247 13-05-2010 09:29:01 7.9 C 6 g/m*3 7.9 C 0 km/h
1248 13-05-2010 09:41:01 8.2 C 5.86 g/m*3 8.2 C 0 km/h
1249 13-05-2010 09:53:02 8.3 C 5.65 g/m*3 8.3 C 0 km/h
1250 13-05-2010 10:05:01 8.9 C 5.69 g/m*3 8.9 C 0 km/h
Sensor: Nr:Datum:Temp:Abs-Feuchte:Windchill:Wind:
Aussen-T/F 1251 13-05-2010 10:17:02 9.1 C 5.41 g/m*3 9.1 C 0 km/h
1252 13-05-2010 10:29:02 9.7 C 5.62 g/m*3 9.7 C 0 km/h
1253 13-05-2010 10:41:02 9.7 C 5.16 g/m*3 9.7 C 0 km/h
1254 13-05-2010 10:53:01 9.9 C 5.23 g/m*3 9.9 C 0 km/h
1255 13-05-2010 11:05:02 10.2 C 5.23 g/m*3 10.2 C 0 km/h
1256 13-05-2010 11:17:01 10 C 4.98 g/m*3 10 C 0 km/h
1257 13-05-2010 11:29:01 10.1 C 4.92 g/m*3 10.1 C 0 km/h
1258 13-05-2010 11:41:02 9.5 C 5.01 g/m*3 9.5 C 0 km/h
1259 13-05-2010 11:53:02 9.7 C 5.16 g/m*3 9.7 C 0 km/h
1260 13-05-2010 12:05:02 9.7 C 4.89 g/m*3 9.7 C 0 km/h
1261 13-05-2010 12:17:01 9.5 C 4.92 g/m*3 9.5 C 0 km/h
1262 13-05-2010 12:29:01 10.2 C 4.95 g/m*3 10.2 C 0 km/h
1263 13-05-2010 12:41:02 10.1 C 4.63 g/m*3 10.1 C 0 km/h
1264 13-05-2010 12:53:02 10.8 C 4.84 g/m*3 10.8 C 0 km/h
1265 13-05-2010 13:05:02 11 C 4.8 g/m*3 11 C 0 km/h
1266 13-05-2010 13:17:01 10.1 C 4.92 g/m*3 10.1 C 0 km/h
1267 13-05-2010 13:29:01 9.3 C 4.94 g/m*3 9.3 C 0 km/h
1268 13-05-2010 13:41:02 8.9 C 5.08 g/m*3 8.9 C 0 km/h
1269 13-05-2010 13:53:02 9.4 C 5.16 g/m*3 9.4 C 0 km/h
1270 13-05-2010 14:05:02 10 C 5.17 g/m*3 10 C 0 km/h
1271 13-05-2010 14:17:02 10.5 C 5.14 g/m*3 10.5 C 0 km/h
1272 13-05-2010 14:29:02 10.9 C 5.07 g/m*3 10.9 C 0 km/h
1273 13-05-2010 14:41:02 10.6 C 4.78 g/m*3 10.6 C 0 km/h
1274 13-05-2010 14:53:01 11 C 4.9 g/m*3 11 C 0 km/h
1275 13-05-2010 15:05:02 11 C 4.8 g/m*3 11 C 0 km/h
Sensor: Nr:Datum:Temp:Abs-Feuchte:Windchill:Wind:
Aussen-T/F 1276 13-05-2010 15:17:02 10.5 C 4.85 g/m*3 10.5 C 0 km/h
1277 13-05-2010 15:29:02 10 C 4.79 g/m*3 10 C 0 km/h
1278 13-05-2010 15:41:02 9.8 C 5.1 g/m*3 9.8 C 0 km/h
1279 13-05-2010 15:53:02 9.2 C 5.36 g/m*3 9.2 C 0 km/h
1280 13-05-2010 16:05:01 8.7 C 5.53 g/m*3 8.7 C 0 km/h
1281 13-05-2010 16:17:02 8.5 C 5.81 g/m*3 8.5 C 0 km/h
1282 13-05-2010 16:29:02 8.6 C 6.02 g/m*3 8.6 C 0 km/h
1283 13-05-2010 16:41:01 8.6 C 6.19 g/m*3 8.6 C 0 km/h
1284 13-05-2010 16:53:02 8.9 C 6.57 g/m*3 8.9 C 0 km/h
1285 13-05-2010 17:05:01 8.4 C 6.19 g/m*3 8.4 C 0 km/h
1286 13-05-2010 17:17:02 8.2 C 6.28 g/m*3 8.2 C 0 km/h
1287 13-05-2010 17:29:03 8.2 C 6.36 g/m*3 8.2 C 0 km/h
1288 13-05-2010 17:41:01 8.2 C 6.53 g/m*3 8.2 C 0 km/h
1289 13-05-2010 17:53:02 8.1 C 6.49 g/m*3 8.1 C 0 km/h
1290 13-05-2010 18:05:02 8.3 C 6.66 g/m*3 8.3 C 0 km/h
1291 13-05-2010 18:17:02 9 C 7.05 g/m*3 9 C 0 km/h
1292 13-05-2010 18:29:02 8.9 C 7.1 g/m*3 8.9 C 0 km/h
1293 13-05-2010 18:41:02 8.7 C 7.01 g/m*3 8.7 C 0 km/h
1294 13-05-2010 18:53:02 7.9 C 6.74 g/m*3 7.9 C 0 km/h
1295 13-05-2010 19:05:02 7.7 C 6.81 g/m*3 7.7 C 0 km/h
1296 13-05-2010 19:17:01 7.5 C 6.8 g/m*3 7.5 C 0 km/h
1297 13-05-2010 19:29:01 7.3 C 6.72 g/m*3 7.3 C 0 km/h
1298 13-05-2010 19:41:02 7.3 C 6.79 g/m*3 7.3 C 0 km/h
1299 13-05-2010 19:53:02 7.2 C 6.75 g/m*3 7.2 C 0 km/h
1300 13-05-2010 20:05:02 7.3 C 6.87 g/m*3 7.3 C 0 km/h
Sensor: Nr:Datum:Temp:Abs-Feuchte:Windchill:Wind:
Aussen-T/F 1301 13-05-2010 20:17:02 7.4 C 6.92 g/m*3 7.4 C 0 km/h
1302 13-05-2010 20:29:02 7.4 C 7 g/m*3 7.4 C 0 km/h
1303 13-05-2010 20:41:02 7.5 C 7.04 g/m*3 7.5 C 0 km/h
1304 13-05-2010 20:53:01 7.6 C 7.09 g/m*3 7.6 C 0 km/h
1305 13-05-2010 21:05:02 7.5 C 7.12 g/m*3 7.5 C 0 km/h
1306 13-05-2010 21:17:01 7.5 C 7.12 g/m*3 7.5 C 0 km/h
1307 13-05-2010 21:29:01 7.4 C 7.08 g/m*3 7.4 C 0 km/h
1308 13-05-2010 21:41:01 7.4 C 7.08 g/m*3 7.4 C 0 km/h
1309 13-05-2010 21:53:01 7.4 C 7.16 g/m*3 7.4 C 0 km/h
1310 13-05-2010 22:05:02 7.4 C 7.16 g/m*3 7.4 C 0 km/h
1311 13-05-2010 22:17:01 7.4 C 7.16 g/m*3 7.4 C 0 km/h
1312 13-05-2010 22:29:01 7.3 C 7.11 g/m*3 7.3 C 0 km/h
1313 13-05-2010 22:41:02 7.2 C 7.06 g/m*3 7.2 C 0 km/h
1314 13-05-2010 22:54:02 7.2 C 7.06 g/m*3 7.2 C 0 km/h
1315 13-05-2010 23:06:02 7.2 C 7.06 g/m*3 7.2 C 0 km/h
1316 13-05-2010 23:18:03 7.3 C 7.11 g/m*3 7.3 C 0 km/h
1317 13-05-2010 23:30:03 7.3 C 7.19 g/m*3 7.3 C 0 km/h
1318 13-05-2010 23:42:03 7.2 C 7.14 g/m*3 7.2 C 0 km/h
1319 13-05-2010 23:54:03 7.2 C 7.14 g/m*3 7.2 C 0 km/h
1320 14-05-2010 00:06:03 7 C 7.05 g/m*3 7 C 0 km/h
1321 14-05-2010 00:18:03 6.9 C 7.16 g/m*3 6.9 C 0 km/h
1322 14-05-2010 00:30:03 6.9 C 7.16 g/m*3 6.9 C 0 km/h
1323 14-05-2010 00:42:03 7 C 7.21 g/m*3 7 C 0 km/h
1324 14-05-2010 00:54:03 7 C 7.21 g/m*3 7 C 0 km/h
1325 14-05-2010 01:06:03 6.9 C 7.24 g/m*3 6.9 C 0 km/h
Sensor: Nr:Datum:Temp:Abs-Feuchte:Windchill:Wind:
Aussen-T/F 1326 14-05-2010 01:18:03 7 C 7.21 g/m*3 7 C 0 km/h
1327 14-05-2010 01:30:03 7.1 C 7.25 g/m*3 7.1 C 0 km/h
1328 14-05-2010 01:42:03 7.1 C 7.25 g/m*3 7.1 C 0 km/h
1329 14-05-2010 01:54:03 7.1 C 7.25 g/m*3 7.1 C 0 km/h
1330 14-05-2010 02:06:03 7.1 C 7.25 g/m*3 7.1 C 0 km/h
1331 14-05-2010 02:18:03 7 C 7.21 g/m*3 7 C 0 km/h
1332 14-05-2010 02:30:03 6.9 C 7.24 g/m*3 6.9 C 0 km/h
1333 14-05-2010 02:42:03 7 C 7.21 g/m*3 7 C 0 km/h
1334 14-05-2010 02:54:03 7 C 7.28 g/m*3 7 C 0 km/h
1335 14-05-2010 03:06:03 7 C 7.28 g/m*3 7 C 0 km/h
1336 14-05-2010 03:18:03 6.9 C 7.24 g/m*3 6.9 C 0 km/h
1337 14-05-2010 03:30:04 7 C 7.28 g/m*3 7 C 0 km/h
1338 14-05-2010 03:42:04 7 C 7.28 g/m*3 7 C 0 km/h
1339 14-05-2010 03:54:04 7 C 7.28 g/m*3 7 C 0 km/h
1340 14-05-2010 04:06:04 7 C 7.28 g/m*3 7 C 0 km/h
1341 14-05-2010 04:18:04 7 C 7.28 g/m*3 7 C 0 km/h
1342 14-05-2010 04:30:04 6.9 C 7.24 g/m*3 6.9 C 0 km/h
1343 14-05-2010 04:42:04 6.9 C 7.24 g/m*3 6.9 C 0 km/h
1344 14-05-2010 04:54:04 6.9 C 7.24 g/m*3 6.9 C 0 km/h
1345 14-05-2010 05:06:04 6.8 C 7.19 g/m*3 6.8 C 0 km/h
1346 14-05-2010 05:18:04 6.9 C 7.24 g/m*3 6.9 C 0 km/h
1347 14-05-2010 05:30:04 6.8 C 7.27 g/m*3 6.8 C 0 km/h
1348 14-05-2010 05:42:04 6.9 C 7.31 g/m*3 6.9 C 0 km/h
1349 14-05-2010 05:54:04 7 C 7.28 g/m*3 7 C 0 km/h
1350 14-05-2010 06:06:04 7.1 C 7.33 g/m*3 7.1 C 0 km/h
Sensor: Nr:Datum:Temp:Abs-Feuchte:Windchill:Wind:
Aussen-T/F 1351 14-05-2010 06:18:04 7.1 C 7.33 g/m*3 7.1 C 0 km/h
1352 14-05-2010 06:30:04 7 C 7.28 g/m*3 7 C 0 km/h
1353 14-05-2010 06:42:04 7.1 C 7.33 g/m*3 7.1 C 0 km/h
1354 14-05-2010 06:54:04 7.2 C 7.38 g/m*3 7.2 C 0 km/h
1355 14-05-2010 07:06:02 7.2 C 7.3 g/m*3 7.2 C 0 km/h
1356 14-05-2010 07:18:02 7.3 C 7.35 g/m*3 7.3 C 0 km/h
1357 14-05-2010 07:30:02 7.5 C 7.44 g/m*3 7.5 C 0 km/h
1358 14-05-2010 07:42:02 7.5 C 7.44 g/m*3 7.5 C 0 km/h
1359 14-05-2010 07:54:01 7.5 C 7.36 g/m*3 7.5 C 0 km/h
1360 14-05-2010 08:06:02 7.7 C 7.38 g/m*3 7.7 C 0 km/h
1361 14-05-2010 08:18:01 7.9 C 7.47 g/m*3 7.9 C 0 km/h
1362 14-05-2010 08:30:01 8.1 C 7.41 g/m*3 8.1 C 0 km/h
1363 14-05-2010 08:42:02 7.9 C 7.31 g/m*3 7.9 C 0 km/h
1364 14-05-2010 08:54:02 8 C 7.19 g/m*3 8 C 0 km/h
1365 14-05-2010 09:06:02 8 C 7.19 g/m*3 8 C 0 km/h
1366 14-05-2010 09:18:01 7.9 C 7.15 g/m*3 7.9 C 0 km/h
1367 14-05-2010 09:30:01 8 C 7.03 g/m*3 8 C 0 km/h
1368 14-05-2010 09:42:02 8.6 C 7.39 g/m*3 8.6 C 0 km/h
1369 14-05-2010 09:54:02 8.4 C 7.13 g/m*3 8.4 C 0 km/h
1370 14-05-2010 10:06:02 8.7 C 7.18 g/m*3 8.7 C 0 km/h
1371 14-05-2010 10:18:02 9.4 C 7.33 g/m*3 9.4 C 0 km/h
1372 14-05-2010 10:30:02 9.5 C 7.01 g/m*3 9.5 C 0 km/h
1373 14-05-2010 10:42:02 10 C 7.24 g/m*3 10 C 0 km/h
1374 14-05-2010 10:54:01 10.3 C 7.18 g/m*3 10.3 C 0 km/h
1375 14-05-2010 11:06:02 11 C 7.31 g/m*3 11 C 0 km/h
Sensor: Nr:Datum:Temp:Abs-Feuchte:Windchill:Wind:
Aussen-T/F 1376 14-05-2010 11:18:02 10.5 C 6.6 g/m*3 10.5 C 0 km/h
1377 14-05-2010 11:30:02 10.1 C 6.34 g/m*3 10.1 C 0 km/h
1378 14-05-2010 11:42:02 10.4 C 6.75 g/m*3 10.4 C 0 km/h
1379 14-05-2010 11:54:02 9.9 C 6.82 g/m*3 9.9 C 0 km/h
1380 14-05-2010 12:06:01 9.1 C 6.39 g/m*3 9.1 C 0 km/h
1381 14-05-2010 12:18:02 9 C 6.44 g/m*3 9 C 0 km/h
1382 14-05-2010 12:30:02 9.3 C 7.1 g/m*3 9.3 C 0 km/h
1383 14-05-2010 12:42:01 9.3 C 7.28 g/m*3 9.3 C 0 km/h
1384 14-05-2010 12:54:02 9.1 C 7.28 g/m*3 9.1 C 0 km/h
1385 14-05-2010 13:06:01 9.3 C 7.46 g/m*3 9.3 C 0 km/h
1386 14-05-2010 13:18:01 9.5 C 7.65 g/m*3 9.5 C 0 km/h
1387 14-05-2010 13:30:01 9.6 C 7.69 g/m*3 9.6 C 0 km/h
1388 14-05-2010 13:42:02 9.7 C 7.74 g/m*3 9.7 C 0 km/h
1389 14-05-2010 13:54:02 9.2 C 7.41 g/m*3 9.2 C 0 km/h
1390 14-05-2010 14:06:01 9 C 7.41 g/m*3 9 C 0 km/h
1391 14-05-2010 14:18:02 9.2 C 7.59 g/m*3 9.2 C 0 km/h
1392 14-05-2010 14:30:02 9.5 C 7.74 g/m*3 9.5 C 0 km/h
1393 14-05-2010 14:42:02 9.7 C 7.84 g/m*3 9.7 C 0 km/h
1394 14-05-2010 14:54:02 10.5 C 8.15 g/m*3 10.5 C 0 km/h
1395 14-05-2010 15:06:02 11.2 C 8.21 g/m*3 11.2 C 0 km/h
1396 14-05-2010 15:18:01 11.7 C 7.95 g/m*3 11.7 C 0 km/h
1397 14-05-2010 15:30:01 12 C 7.67 g/m*3 12 C 0 km/h
1398 14-05-2010 15:42:02 12.2 C 7.23 g/m*3 12.2 C 0 km/h
1399 14-05-2010 15:54:02 12.2 C 6.91 g/m*3 12.2 C 0 km/h
1400 14-05-2010 16:06:02 12.6 C 6.97 g/m*3 12.6 C 0 km/h
Sensor: Nr:Datum:Temp:Abs-Feuchte:Windchill:Wind:
Aussen-T/F 1401 14-05-2010 16:18:01 12.8 C 7.06 g/m*3 12.8 C 0 km/h
1402 14-05-2010 16:30:01 13.3 C 6.93 g/m*3 13.3 C 0 km/h
1403 14-05-2010 16:42:02 13.4 C 6.63 g/m*3 13.4 C 0 km/h
1404 14-05-2010 16:54:02 12.8 C 6.27 g/m*3 12.8 C 0 km/h
1405 14-05-2010 17:06:02 12.2 C 6.37 g/m*3 12.2 C 0 km/h
1406 14-05-2010 17:18:02 11.9 C 6.25 g/m*3 11.9 C 0 km/h
1407 14-05-2010 17:30:02 11.4 C 6.77 g/m*3 11.4 C 0 km/h
1408 14-05-2010 17:42:02 11 C 6.81 g/m*3 11 C 0 km/h
1409 14-05-2010 17:54:02 11.2 C 6.79 g/m*3 11.2 C 0 km/h
1410 14-05-2010 18:06:02 11.5 C 6.71 g/m*3 11.5 C 0 km/h
1411 14-05-2010 18:18:03 11.8 C 6.74 g/m*3 11.8 C 0 km/h
1412 14-05-2010 18:30:03 12 C 6.82 g/m*3 12 C 0 km/h
1413 14-05-2010 18:42:02 11.5 C 6.71 g/m*3 11.5 C 0 km/h
1414 14-05-2010 18:54:02 11 C 6.81 g/m*3 11 C 0 km/h
1415 14-05-2010 19:06:02 10.5 C 6.89 g/m*3 10.5 C 0 km/h
1416 14-05-2010 19:18:03 10.3 C 6.99 g/m*3 10.3 C 0 km/h
1417 14-05-2010 19:30:03 10.4 C 7.13 g/m*3 10.4 C 0 km/h
1418 14-05-2010 19:42:02 10.5 C 6.98 g/m*3 10.5 C 0 km/h
1419 14-05-2010 19:54:02 10.6 C 7.03 g/m*3 10.6 C 0 km/h
1420 14-05-2010 20:06:02 10.5 C 7.08 g/m*3 10.5 C 0 km/h
1421 14-05-2010 20:18:02 10.2 C 6.95 g/m*3 10.2 C 0 km/h
1422 14-05-2010 20:30:02 9.9 C 6.91 g/m*3 9.9 C 0 km/h
1423 14-05-2010 20:42:02 9.6 C 6.78 g/m*3 9.6 C 0 km/h
1424 14-05-2010 20:54:02 9.5 C 6.92 g/m*3 9.5 C 0 km/h
1425 14-05-2010 21:06:02 9.3 C 6.83 g/m*3 9.3 C 0 km/h
Sensor: Nr:Datum:Temp:Abs-Feuchte:Windchill:Wind:
Aussen-T/F 1426 14-05-2010 21:18:02 9.2 C 6.88 g/m*3 9.2 C 0 km/h
1427 14-05-2010 21:30:02 9.1 C 6.83 g/m*3 9.1 C 0 km/h
1428 14-05-2010 21:42:02 9.1 C 6.92 g/m*3 9.1 C 0 km/h
1429 14-05-2010 21:54:02 9 C 6.88 g/m*3 9 C 0 km/h
1430 14-05-2010 22:06:02 9.1 C 7.01 g/m*3 9.1 C 0 km/h
1431 14-05-2010 22:18:02 9.1 C 7.01 g/m*3 9.1 C 0 km/h
1432 14-05-2010 22:30:02 9.1 C 7.1 g/m*3 9.1 C 0 km/h
1433 14-05-2010 22:42:02 9.1 C 7.1 g/m*3 9.1 C 0 km/h
1434 14-05-2010 22:55:03 9 C 7.14 g/m*3 9 C 0 km/h
1435 14-05-2010 23:07:03 8.6 C 7.13 g/m*3 8.6 C 0 km/h
1436 14-05-2010 23:19:03 8.2 C 7.12 g/m*3 8.2 C 0 km/h
1437 14-05-2010 23:31:03 8.2 C 7.2 g/m*3 8.2 C 0 km/h
1438 14-05-2010 23:43:03 8.1 C 7.16 g/m*3 8.1 C 0 km/h
1439 14-05-2010 23:55:03 8.1 C 7.24 g/m*3 8.1 C 0 km/h
1440 15-05-2010 00:07:03 8 C 7.19 g/m*3 8 C 0 km/h
1441 15-05-2010 00:19:03 8 C 7.19 g/m*3 8 C 0 km/h
1442 15-05-2010 00:31:04 7.9 C 7.23 g/m*3 7.9 C 0 km/h
1443 15-05-2010 00:43:04 7.8 C 7.18 g/m*3 7.8 C 0 km/h
1444 15-05-2010 00:55:04 7.8 C 7.18 g/m*3 7.8 C 0 km/h
1445 15-05-2010 01:07:04 7.9 C 7.23 g/m*3 7.9 C 0 km/h
1446 15-05-2010 01:19:04 7.8 C 7.18 g/m*3 7.8 C 0 km/h
1447 15-05-2010 01:31:04 7.6 C 7.09 g/m*3 7.6 C 0 km/h
1448 15-05-2010 01:43:04 7.6 C 7.09 g/m*3 7.6 C 0 km/h
1449 15-05-2010 01:55:04 7.6 C 7.09 g/m*3 7.6 C 0 km/h
1450 15-05-2010 02:07:04 7.5 C 7.04 g/m*3 7.5 C 0 km/h
Sensor: Nr:Datum:Temp:Abs-Feuchte:Windchill:Wind:
Aussen-T/F 1451 15-05-2010 02:19:04 7.5 C 7.12 g/m*3 7.5 C 0 km/h
1452 15-05-2010 02:31:04 7.6 C 7.17 g/m*3 7.6 C 0 km/h
1453 15-05-2010 02:43:04 7.8 C 7.26 g/m*3 7.8 C 0 km/h
1454 15-05-2010 02:55:04 7.8 C 7.26 g/m*3 7.8 C 0 km/h
1455 15-05-2010 03:07:04 7.6 C 7.17 g/m*3 7.6 C 0 km/h
1456 15-05-2010 03:19:04 7.6 C 7.17 g/m*3 7.6 C 0 km/h
1457 15-05-2010 03:31:04 7.6 C 7.25 g/m*3 7.6 C 0 km/h
1458 15-05-2010 03:43:04 7.6 C 7.25 g/m*3 7.6 C 0 km/h
1459 15-05-2010 03:55:04 7.6 C 7.25 g/m*3 7.6 C 0 km/h
1460 15-05-2010 04:07:04 7.6 C 7.25 g/m*3 7.6 C 0 km/h
1461 15-05-2010 04:19:04 7.7 C 7.3 g/m*3 7.7 C 0 km/h
1462 15-05-2010 04:31:04 7.6 C 7.25 g/m*3 7.6 C 0 km/h
1463 15-05-2010 04:43:05 7.6 C 7.25 g/m*3 7.6 C 0 km/h
1464 15-05-2010 04:55:05 7.5 C 7.2 g/m*3 7.5 C 0 km/h
1465 15-05-2010 05:07:05 7.4 C 7.24 g/m*3 7.4 C 0 km/h
1466 15-05-2010 05:19:05 7.3 C 7.19 g/m*3 7.3 C 0 km/h
1467 15-05-2010 05:31:05 7.3 C 7.19 g/m*3 7.3 C 0 km/h
1468 15-05-2010 05:43:05 7.2 C 7.14 g/m*3 7.2 C 0 km/h
1469 15-05-2010 05:55:05 7.1 C 7.1 g/m*3 7.1 C 0 km/h
1470 15-05-2010 06:07:05 7.1 C 7.1 g/m*3 7.1 C 0 km/h
1471 15-05-2010 06:19:05 7.1 C 7.1 g/m*3 7.1 C 0 km/h
1472 15-05-2010 06:31:05 7.1 C 7.18 g/m*3 7.1 C 0 km/h
1473 15-05-2010 06:43:05 7.1 C 7.18 g/m*3 7.1 C 0 km/h
1474 15-05-2010 06:55:05 7.1 C 7.18 g/m*3 7.1 C 0 km/h
1475 15-05-2010 07:07:05 7.1 C 7.18 g/m*3 7.1 C 0 km/h
Sensor: Nr:Datum:Temp:Abs-Feuchte:Windchill:Wind:
Aussen-T/F 1476 15-05-2010 07:19:05 7.4 C 7.32 g/m*3 7.4 C 0 km/h
1477 15-05-2010 07:31:05 7.5 C 7.36 g/m*3 7.5 C 0 km/h
1478 15-05-2010 07:43:05 7.8 C 7.51 g/m*3 7.8 C 0 km/h
1479 15-05-2010 07:55:02 8.2 C 7.62 g/m*3 8.2 C 0 km/h
1480 15-05-2010 08:07:02 8.3 C 7.59 g/m*3 8.3 C 0 km/h
1481 15-05-2010 08:19:02 8.2 C 7.29 g/m*3 8.2 C 0 km/h
1482 15-05-2010 08:31:03 8.6 C 7.39 g/m*3 8.6 C 0 km/h
1483 15-05-2010 08:43:03 8.5 C 7 g/m*3 8.5 C 0 km/h
1484 15-05-2010 08:55:02 8.8 C 7.05 g/m*3 8.8 C 0 km/h
1485 15-05-2010 09:07:02 9 C 6.88 g/m*3 9 C 0 km/h
1486 15-05-2010 09:19:02 9.3 C 6.92 g/m*3 9.3 C 0 km/h
1487 15-05-2010 09:31:02 9.5 C 6.83 g/m*3 9.5 C 0 km/h
1488 15-05-2010 09:43:02 9.6 C 6.78 g/m*3 9.6 C 0 km/h
1489 15-05-2010 09:55:01 10 C 6.67 g/m*3 10 C 0 km/h
1490 15-05-2010 10:07:02 10.5 C 6.6 g/m*3 10.5 C 0 km/h
1491 15-05-2010 10:19:01 10.7 C 6.48 g/m*3 10.7 C 0 km/h
1492 15-05-2010 10:31:02 10.6 C 6.34 g/m*3 10.6 C 0 km/h
1493 15-05-2010 10:43:02 11.1 C 6.35 g/m*3 11.1 C 0 km/h
1494 15-05-2010 10:55:02 11.1 C 6.35 g/m*3 11.1 C 0 km/h
1495 15-05-2010 11:07:02 10.9 C 6.27 g/m*3 10.9 C 0 km/h
1496 15-05-2010 11:19:01 10.8 C 6.23 g/m*3 10.8 C 0 km/h
1497 15-05-2010 11:31:02 10.9 C 6.17 g/m*3 10.9 C 0 km/h
1498 15-05-2010 11:43:02 11.5 C 5.89 g/m*3 11.5 C 0 km/h
1499 15-05-2010 11:55:02 11.9 C 6.04 g/m*3 11.9 C 0 km/h
1500 15-05-2010 12:07:02 11.2 C 5.68 g/m*3 11.2 C 0 km/h
Sensor: Nr:Datum:Temp:Abs-Feuchte:Windchill:Wind:
Aussen-T/F 1501 15-05-2010 12:19:02 11.1 C 5.64 g/m*3 11.1 C 0 km/h
1502 15-05-2010 12:31:02 11.2 C 5.57 g/m*3 11.2 C 0 km/h
1503 15-05-2010 12:43:02 12.4 C 5.46 g/m*3 12.4 C 0 km/h
1504 15-05-2010 12:55:02 12.3 C 4.78 g/m*3 12.3 C 0 km/h
1505 15-05-2010 13:07:02 13.9 C 5.04 g/m*3 13.9 C 0 km/h
1506 15-05-2010 13:19:03 12 C 4.58 g/m*3 12 C 0 km/h
1507 15-05-2010 13:31:02 11.1 C 5.14 g/m*3 11.1 C 0 km/h
1508 15-05-2010 13:43:02 11.2 C 4.87 g/m*3 11.2 C 0 km/h
1509 15-05-2010 13:55:02 12.1 C 4.5 g/m*3 12.1 C 0 km/h
1510 15-05-2010 14:07:02 13.7 C 4.5 g/m*3 13.7 C 0 km/h
1511 15-05-2010 14:19:02 15 C 4.62 g/m*3 15 C 0 km/h
1512 15-05-2010 14:31:02 14.7 C 4.15 g/m*3 14.7 C 0 km/h
1513 15-05-2010 14:43:02 14 C 3.98 g/m*3 14 C 0 km/h
1514 15-05-2010 14:55:01 13.9 C 3.72 g/m*3 13.9 C 0 km/h
1515 15-05-2010 15:07:01 14.3 C 3.56 g/m*3 14.3 C 0 km/h
1516 15-05-2010 15:19:01 15.2 C 3.24 g/m*3 15.2 C 0 km/h
1517 15-05-2010 15:31:01 15.8 C 2.69 g/m*3 15.8 C 0 km/h
1518 15-05-2010 15:43:01 16 C 2.72 g/m*3 16 C 0 km/h
1519 15-05-2010 15:55:01 16.2 C 2.76 g/m*3 16.2 C 0 km/h
1520 15-05-2010 16:07:02 16.2 C 2.76 g/m*3 16.2 C 0 km/h
1521 15-05-2010 16:19:01 15.1 C 2.58 g/m*3 15.1 C 0 km/h
1522 15-05-2010 16:31:01 14.4 C 2.47 g/m*3 14.4 C 0 km/h
1523 15-05-2010 16:43:01 14.4 C 2.97 g/m*3 14.4 C 0 km/h
1524 15-05-2010 16:55:01 13.8 C 2.98 g/m*3 13.8 C 0 km/h
1525 15-05-2010 17:07:02 13.9 C 3.12 g/m*3 13.9 C 0 km/h
Sensor: Nr:Datum:Temp:Abs-Feuchte:Windchill:Wind:
Aussen-T/F 1526 15-05-2010 17:19:01 14 C 3.02 g/m*3 14 C 0 km/h
1527 15-05-2010 17:31:02 14.1 C 3.16 g/m*3 14.1 C 0 km/h
1528 15-05-2010 17:43:02 14 C 3.26 g/m*3 14 C 0 km/h
1529 15-05-2010 17:55:02 14 C 3.26 g/m*3 14 C 0 km/h
1530 15-05-2010 18:07:02 13.7 C 3.43 g/m*3 13.7 C 0 km/h
1531 15-05-2010 18:19:01 14 C 3.62 g/m*3 14 C 0 km/h
1532 15-05-2010 18:31:02 13.8 C 3.46 g/m*3 13.8 C 0 km/h
1533 15-05-2010 18:43:02 13.7 C 3.43 g/m*3 13.7 C 0 km/h
1534 15-05-2010 18:55:02 13.9 C 3.36 g/m*3 13.9 C 0 km/h
1535 15-05-2010 19:07:02 13.9 C 3.24 g/m*3 13.9 C 0 km/h
1536 15-05-2010 19:19:02 14.6 C 3.5 g/m*3 14.6 C 0 km/h
1537 15-05-2010 19:31:02 15.1 C 3.23 g/m*3 15.1 C 0 km/h
1538 15-05-2010 19:43:02 14.9 C 3.44 g/m*3 14.9 C 0 km/h
1539 15-05-2010 19:55:02 14.4 C 3.58 g/m*3 14.4 C 0 km/h
1540 15-05-2010 20:07:02 13.9 C 4.2 g/m*3 13.9 C 0 km/h
1541 15-05-2010 20:19:02 13.3 C 4.62 g/m*3 13.3 C 0 km/h
1542 15-05-2010 20:31:02 12.4 C 4.48 g/m*3 12.4 C 0 km/h
1543 15-05-2010 20:43:02 11.6 C 4.47 g/m*3 11.6 C 0 km/h
1544 15-05-2010 20:55:02 11.3 C 4.59 g/m*3 11.3 C 0 km/h
1545 15-05-2010 21:07:02 11.4 C 4.62 g/m*3 11.4 C 0 km/h
1546 15-05-2010 21:19:02 11.1 C 4.53 g/m*3 11.1 C 0 km/h
1547 15-05-2010 21:31:02 10.8 C 4.55 g/m*3 10.8 C 0 km/h
1548 15-05-2010 21:43:02 10.8 C 4.84 g/m*3 10.8 C 0 km/h
1549 15-05-2010 21:55:01 10.8 C 4.84 g/m*3 10.8 C 0 km/h
1550 15-05-2010 22:07:02 10.8 C 4.94 g/m*3 10.8 C 0 km/h
Sensor: Nr:Datum:Temp:Abs-Feuchte:Windchill:Wind:
Aussen-T/F 1551 15-05-2010 22:19:02 11 C 5 g/m*3 11 C 0 km/h
1552 15-05-2010 22:32:02 11.1 C 4.83 g/m*3 11.1 C 0 km/h
1553 15-05-2010 22:44:03 11.2 C 4.66 g/m*3 11.2 C 0 km/h
1554 15-05-2010 22:56:03 11.2 C 4.66 g/m*3 11.2 C 0 km/h
1555 15-05-2010 23:08:03 11.1 C 4.73 g/m*3 11.1 C 0 km/h
1556 15-05-2010 23:20:03 10.9 C 4.97 g/m*3 10.9 C 0 km/h
1557 15-05-2010 23:32:03 10.9 C 5.07 g/m*3 10.9 C 0 km/h
1558 15-05-2010 23:44:03 10.8 C 5.04 g/m*3 10.8 C 0 km/h
1559 15-05-2010 23:56:03 10.5 C 5.04 g/m*3 10.5 C 0 km/h
1560 16-05-2010 00:08:03 10.2 C 5.04 g/m*3 10.2 C 0 km/h
1561 16-05-2010 00:20:03 10.1 C 5.3 g/m*3 10.1 C 0 km/h
1562 16-05-2010 00:32:03 10.1 C 5.39 g/m*3 10.1 C 0 km/h
1563 16-05-2010 00:44:03 10 C 5.45 g/m*3 10 C 0 km/h
1564 16-05-2010 00:56:03 10.1 C 5.48 g/m*3 10.1 C 0 km/h
1565 16-05-2010 01:08:03 10 C 5.54 g/m*3 10 C 0 km/h
1566 16-05-2010 01:20:03 9.7 C 5.62 g/m*3 9.7 C 0 km/h
1567 16-05-2010 01:32:03 9.3 C 5.66 g/m*3 9.3 C 0 km/h
1568 16-05-2010 01:44:03 9 C 5.64 g/m*3 9 C 0 km/h
1569 16-05-2010 01:56:03 8.7 C 5.88 g/m*3 8.7 C 0 km/h
1570 16-05-2010 02:08:03 8.4 C 5.85 g/m*3 8.4 C 0 km/h
1571 16-05-2010 02:20:03 8.2 C 5.86 g/m*3 8.2 C 0 km/h
1572 16-05-2010 02:32:03 8 C 5.87 g/m*3 8 C 0 km/h
1573 16-05-2010 02:44:04 7.8 C 5.96 g/m*3 7.8 C 0 km/h
1574 16-05-2010 02:56:04 7.8 C 5.88 g/m*3 7.8 C 0 km/h
1575 16-05-2010 03:08:04 7.6 C 5.88 g/m*3 7.6 C 0 km/h
Sensor: Nr:Datum:Temp:Abs-Feuchte:Windchill:Wind:
Aussen-T/F 1576 16-05-2010 03:20:04 7.4 C 5.88 g/m*3 7.4 C 0 km/h
1577 16-05-2010 03:32:04 7.4 C 5.88 g/m*3 7.4 C 0 km/h
1578 16-05-2010 03:44:04 7.5 C 5.92 g/m*3 7.5 C 0 km/h
1579 16-05-2010 03:56:04 7.5 C 5.92 g/m*3 7.5 C 0 km/h
1580 16-05-2010 04:08:04 7.6 C 5.96 g/m*3 7.6 C 0 km/h
1581 16-05-2010 04:20:04 7.6 C 5.88 g/m*3 7.6 C 0 km/h
1582 16-05-2010 04:32:04 7.6 C 5.96 g/m*3 7.6 C 0 km/h
1583 16-05-2010 04:44:04 7.6 C 5.96 g/m*3 7.6 C 0 km/h
1584 16-05-2010 04:56:04 7.6 C 5.96 g/m*3 7.6 C 0 km/h
1585 16-05-2010 05:08:04 7.6 C 5.96 g/m*3 7.6 C 0 km/h
1586 16-05-2010 05:20:04 7.5 C 5.92 g/m*3 7.5 C 0 km/h
1587 16-05-2010 05:32:04 7.2 C 5.89 g/m*3 7.2 C 0 km/h
1588 16-05-2010 05:44:04 7 C 5.89 g/m*3 7 C 0 km/h
1589 16-05-2010 05:56:04 7.2 C 5.97 g/m*3 7.2 C 0 km/h
1590 16-05-2010 06:08:04 7.4 C 6.04 g/m*3 7.4 C 0 km/h
1591 16-05-2010 06:20:04 7.4 C 5.96 g/m*3 7.4 C 0 km/h
1592 16-05-2010 06:32:04 7.4 C 5.96 g/m*3 7.4 C 0 km/h
1593 16-05-2010 06:44:04 7.4 C 5.96 g/m*3 7.4 C 0 km/h
1594 16-05-2010 06:56:05 7.5 C 6 g/m*3 7.5 C 0 km/h
1595 16-05-2010 07:08:05 7.7 C 6.08 g/m*3 7.7 C 0 km/h
1596 16-05-2010 07:20:05 7.8 C 6.04 g/m*3 7.8 C 0 km/h
1597 16-05-2010 07:32:05 7.9 C 6.08 g/m*3 7.9 C 0 km/h
1598 16-05-2010 07:44:05 7.9 C 6.08 g/m*3 7.9 C 0 km/h
1599 16-05-2010 07:56:05 7.9 C 6.08 g/m*3 7.9 C 0 km/h
1600 16-05-2010 08:08:05 8 C 6.04 g/m*3 8 C 0 km/h
Sensor: Nr:Datum:Temp:Abs-Feuchte:Windchill:Wind:
Aussen-T/F 1601 16-05-2010 08:20:05 8.2 C 6.2 g/m*3 8.2 C 0 km/h
1602 16-05-2010 08:32:05 8.7 C 6.14 g/m*3 8.7 C 0 km/h
1603 16-05-2010 08:44:05 9.1 C 6.03 g/m*3 9.1 C 0 km/h
1604 16-05-2010 08:56:05 9.6 C 6.05 g/m*3 9.6 C 0 km/h
1605 16-05-2010 09:08:02 10.2 C 5.8 g/m*3 10.2 C 0 km/h
1606 16-05-2010 09:20:01 10.6 C 4.98 g/m*3 10.6 C 0 km/h
1607 16-05-2010 09:32:02 11 C 4.7 g/m*3 11 C 0 km/h
1608 16-05-2010 09:44:02 11.3 C 4.39 g/m*3 11.3 C 0 km/h
1609 16-05-2010 09:56:02 11.7 C 4.39 g/m*3 11.7 C 0 km/h
1610 16-05-2010 10:08:02 11.9 C 4.24 g/m*3 11.9 C 0 km/h
1611 16-05-2010 10:20:01 12.2 C 4.1 g/m*3 12.2 C 0 km/h
1612 16-05-2010 10:32:02 12.4 C 4.15 g/m*3 12.4 C 0 km/h
1613 16-05-2010 10:44:02 13 C 4.31 g/m*3 13 C 0 km/h
1614 16-05-2010 10:56:01 13.3 C 4.16 g/m*3 13.3 C 0 km/h
1615 16-05-2010 11:08:02 13.7 C 4.03 g/m*3 13.7 C 0 km/h
1616 16-05-2010 11:20:02 14.3 C 4.05 g/m*3 14.3 C 0 km/h
1617 16-05-2010 11:32:02 15.4 C 4.07 g/m*3 15.4 C 0 km/h
1618 16-05-2010 11:44:02 15.4 C 3.94 g/m*3 15.4 C 0 km/h
1619 16-05-2010 11:56:01 15.4 C 3.81 g/m*3 15.4 C 0 km/h
1620 16-05-2010 12:08:02 15.9 C 3.52 g/m*3 15.9 C 0 km/h
1621 16-05-2010 12:20:02 16.1 C 3.84 g/m*3 16.1 C 0 km/h
1622 16-05-2010 12:32:02 17.9 C 3.82 g/m*3 17.9 C 0 km/h
1623 16-05-2010 12:44:02 17.2 C 3.37 g/m*3 17.2 C 0 km/h
1624 16-05-2010 12:56:01 16.1 C 3.43 g/m*3 16.1 C 0 km/h
1625 16-05-2010 13:08:02 18.3 C 3.6 g/m*3 18.3 C 0 km/h
Sensor: Nr:Datum:Temp:Abs-Feuchte:Windchill:Wind:
Aussen-T/F 1626 16-05-2010 13:20:02 17.3 C 3.39 g/m*3 17.3 C 0 km/h
1627 16-05-2010 13:32:01 17.4 C 3.41 g/m*3 17.4 C 0 km/h
1628 16-05-2010 13:44:01 18 C 3.69 g/m*3 18 C 0 km/h
1629 16-05-2010 13:56:02 17.3 C 3.54 g/m*3 17.3 C 0 km/h
1630 16-05-2010 14:08:01 16.7 C 3.55 g/m*3 16.7 C 0 km/h
1631 16-05-2010 14:20:02 18.4 C 3.93 g/m*3 18.4 C 0 km/h
1632 16-05-2010 14:32:02 18.4 C 3.3 g/m*3 18.4 C 0 km/h
1633 16-05-2010 14:44:02 17.9 C 3.51 g/m*3 17.9 C 0 km/h
1634 16-05-2010 14:56:02 18.2 C 3.42 g/m*3 18.2 C 0 km/h
1635 16-05-2010 15:08:02 19 C 3.26 g/m*3 19 C 0 km/h
1636 16-05-2010 15:20:02 19.3 C 3.32 g/m*3 19.3 C 0 km/h
1637 16-05-2010 15:32:02 19.8 C 3.42 g/m*3 19.8 C 0 km/h
1638 16-05-2010 15:44:02 19.1 C 3.28 g/m*3 19.1 C 0 km/h
1639 16-05-2010 15:56:02 20.3 C 3.52 g/m*3 20.3 C 0 km/h
1640 16-05-2010 16:08:02 21 C 3.66 g/m*3 21 C 0 km/h
1641 16-05-2010 16:20:01 20.1 C 3.48 g/m*3 20.1 C 0 km/h
1642 16-05-2010 16:32:02 20.4 C 3.54 g/m*3 20.4 C 0 km/h
1643 16-05-2010 16:44:02 20 C 3.46 g/m*3 20 C 0 km/h
1644 16-05-2010 16:56:02 21.2 C 3.71 g/m*3 21.2 C 0 km/h
1645 16-05-2010 17:08:02 21.7 C 3.82 g/m*3 21.7 C 0 km/h
1646 16-05-2010 17:20:02 21.1 C 3.69 g/m*3 21.1 C 0 km/h
1647 16-05-2010 17:32:02 21.5 C 3.77 g/m*3 21.5 C 0 km/h
1648 16-05-2010 17:44:02 21.4 C 3.75 g/m*3 21.4 C 0 km/h
1649 16-05-2010 17:56:02 20.8 C 3.62 g/m*3 20.8 C 0 km/h
1650 16-05-2010 18:08:02 20.8 C 3.62 g/m*3 20.8 C 0 km/h
Sensor: Nr:Datum:Temp:Abs-Feuchte:Windchill:Wind:
Aussen-T/F 1651 16-05-2010 18:20:02 20 C 3.46 g/m*3 20 C 0 km/h
1652 16-05-2010 18:32:02 19.5 C 3.52 g/m*3 19.5 C 0 km/h
1653 16-05-2010 18:44:02 18.9 C 3.56 g/m*3 18.9 C 0 km/h
1654 16-05-2010 18:56:02 19.9 C 3.44 g/m*3 19.9 C 0 km/h
1655 16-05-2010 19:08:02 19.7 C 3.57 g/m*3 19.7 C 0 km/h
1656 16-05-2010 19:20:03 19.5 C 3.52 g/m*3 19.5 C 0 km/h
1657 16-05-2010 19:32:02 18.6 C 3.5 g/m*3 18.6 C 0 km/h
1658 16-05-2010 19:44:02 18.2 C 3.89 g/m*3 18.2 C 0 km/h
1659 16-05-2010 19:56:02 18.3 C 3.91 g/m*3 18.3 C 0 km/h
1660 16-05-2010 20:08:02 19.3 C 4.15 g/m*3 19.3 C 0 km/h
1661 16-05-2010 20:20:02 19.3 C 4.48 g/m*3 19.3 C 0 km/h
1662 16-05-2010 20:32:02 18.2 C 4.51 g/m*3 18.2 C 0 km/h
1663 16-05-2010 20:44:02 17 C 4.63 g/m*3 17 C 0 km/h
1664 16-05-2010 20:56:02 16 C 4.5 g/m*3 16 C 0 km/h
1665 16-05-2010 21:08:02 15.1 C 4.52 g/m*3 15.1 C 0 km/h
1666 16-05-2010 21:20:02 14.6 C 4.63 g/m*3 14.6 C 0 km/h
1667 16-05-2010 21:32:02 14.2 C 4.76 g/m*3 14.2 C 0 km/h
1668 16-05-2010 21:44:02 13.9 C 4.92 g/m*3 13.9 C 0 km/h
1669 16-05-2010 21:56:02 13.6 C 5.18 g/m*3 13.6 C 0 km/h
1670 16-05-2010 22:08:02 13.2 C 5.05 g/m*3 13.2 C 0 km/h
1671 16-05-2010 22:20:03 12.6 C 5.31 g/m*3 12.6 C 0 km/h
1672 16-05-2010 22:33:03 12.3 C 5.32 g/m*3 12.3 C 0 km/h
1673 16-05-2010 22:45:03 11.9 C 5.4 g/m*3 11.9 C 0 km/h
1674 16-05-2010 22:57:03 11.8 C 5.58 g/m*3 11.8 C 0 km/h
1675 16-05-2010 23:09:03 11.4 C 5.65 g/m*3 11.4 C 0 km/h
Sensor: Nr:Datum:Temp:Abs-Feuchte:Windchill:Wind:
Aussen-T/F 1676 16-05-2010 23:21:03 11 C 5.71 g/m*3 11 C 0 km/h
1677 16-05-2010 23:33:03 10.7 C 5.8 g/m*3 10.7 C 0 km/h
1678 16-05-2010 23:45:03 10.7 C 5.89 g/m*3 10.7 C 0 km/h
1679 16-05-2010 23:57:03 10.5 C 6.01 g/m*3 10.5 C 0 km/h
1680 17-05-2010 00:09:03 10.3 C 6.03 g/m*3 10.3 C 0 km/h
1681 17-05-2010 00:21:03 10.4 C 5.98 g/m*3 10.4 C 0 km/h
1682 17-05-2010 00:33:03 10 C 5.92 g/m*3 10 C 0 km/h
1683 17-05-2010 00:45:03 10 C 5.92 g/m*3 10 C 0 km/h
1684 17-05-2010 00:57:03 9.9 C 5.98 g/m*3 9.9 C 0 km/h
1685 17-05-2010 01:09:03 9.8 C 5.85 g/m*3 9.8 C 0 km/h
1686 17-05-2010 01:21:04 9.7 C 5.99 g/m*3 9.7 C 0 km/h
1687 17-05-2010 01:33:04 9.3 C 6.02 g/m*3 9.3 C 0 km/h
1688 17-05-2010 01:45:04 9 C 5.99 g/m*3 9 C 0 km/h
1689 17-05-2010 01:57:04 9 C 6.08 g/m*3 9 C 0 km/h
1690 17-05-2010 02:09:04 8.7 C 6.14 g/m*3 8.7 C 0 km/h
1691 17-05-2010 02:21:04 8.6 C 6.1 g/m*3 8.6 C 0 km/h
1692 17-05-2010 02:33:04 8.6 C 6.19 g/m*3 8.6 C 0 km/h
1693 17-05-2010 02:45:04 8.5 C 6.15 g/m*3 8.5 C 0 km/h
1694 17-05-2010 02:57:04 8.4 C 6.11 g/m*3 8.4 C 0 km/h
1695 17-05-2010 03:09:04 8.1 C 6.07 g/m*3 8.1 C 0 km/h
1696 17-05-2010 03:21:04 7.8 C 6.12 g/m*3 7.8 C 0 km/h
1697 17-05-2010 03:33:04 7.6 C 6.12 g/m*3 7.6 C 0 km/h
1698 17-05-2010 03:45:04 7.4 C 6.12 g/m*3 7.4 C 0 km/h
1699 17-05-2010 03:57:04 7.3 C 6.16 g/m*3 7.3 C 0 km/h
1700 17-05-2010 04:09:04 7.2 C 6.12 g/m*3 7.2 C 0 km/h
Sensor: Nr:Datum:Temp:Abs-Feuchte:Windchill:Wind:
Aussen-T/F 1701 17-05-2010 04:21:04 7.1 C 6.08 g/m*3 7.1 C 0 km/h
1702 17-05-2010 04:33:04 7 C 6.04 g/m*3 7 C 0 km/h
1703 17-05-2010 04:45:04 6.8 C 6.12 g/m*3 6.8 C 0 km/h
1704 17-05-2010 04:57:04 6.7 C 6.15 g/m*3 6.7 C 0 km/h
1705 17-05-2010 05:09:04 6.5 C 6.15 g/m*3 6.5 C 0 km/h
1706 17-05-2010 05:21:04 6.3 C 6.07 g/m*3 6.3 C 0 km/h
1707 17-05-2010 05:33:04 6.2 C 6.1 g/m*3 6.2 C 0 km/h
1708 17-05-2010 05:45:05 6.1 C 6.06 g/m*3 6.1 C 0 km/h
1709 17-05-2010 05:57:05 6 C 6.02 g/m*3 6 C 0 km/h
1710 17-05-2010 06:09:05 6 C 6.1 g/m*3 6 C 0 km/h
1711 17-05-2010 06:21:05 6 C 6.02 g/m*3 6 C 0 km/h
1712 17-05-2010 06:33:03 6 C 6.02 g/m*3 6 C 0 km/h
1713 17-05-2010 06:45:02 5.9 C 6.06 g/m*3 5.9 C 0 km/h
1714 17-05-2010 06:57:02 6.1 C 6.06 g/m*3 6.1 C 0 km/h
1715 17-05-2010 07:09:01 6.3 C 6.14 g/m*3 6.3 C 0 km/h
1716 17-05-2010 07:21:02 6.5 C 6.15 g/m*3 6.5 C 0 km/h
1717 17-05-2010 07:33:01 7.2 C 6.2 g/m*3 7.2 C 0 km/h
1718 17-05-2010 07:45:02 7.4 C 6.2 g/m*3 7.4 C 0 km/h
1719 17-05-2010 07:57:02 8 C 6.2 g/m*3 8 C 0 km/h
1720 17-05-2010 08:09:01 8.3 C 6.24 g/m*3 8.3 C 0 km/h
1721 17-05-2010 08:21:02 8.8 C 6.35 g/m*3 8.8 C 0 km/h
1722 17-05-2010 08:33:02 9.2 C 6.25 g/m*3 9.2 C 0 km/h
1723 17-05-2010 08:45:02 10.1 C 6.24 g/m*3 10.1 C 0 km/h
1724 17-05-2010 08:57:02 10.7 C 6.29 g/m*3 10.7 C 0 km/h
1725 17-05-2010 09:09:02 11.2 C 6.28 g/m*3 11.2 C 0 km/h
Sensor: Nr:Datum:Temp:Abs-Feuchte:Windchill:Wind:
Aussen-T/F 1726 17-05-2010 09:21:02 11.6 C 6.44 g/m*3 11.6 C 0 km/h
1727 17-05-2010 09:33:02 12.2 C 6.47 g/m*3 12.2 C 0 km/h
1728 17-05-2010 09:45:02 12.2 C 6.47 g/m*3 12.2 C 0 km/h
1729 17-05-2010 09:57:02 12.2 C 6.47 g/m*3 12.2 C 0 km/h
1730 17-05-2010 10:09:02 13 C 6.35 g/m*3 13 C 0 km/h
1731 17-05-2010 10:21:02 13.2 C 6.2 g/m*3 13.2 C 0 km/h
1732 17-05-2010 10:33:03 13.7 C 6.39 g/m*3 13.7 C 0 km/h
1733 17-05-2010 10:45:02 14.1 C 6.55 g/m*3 14.1 C 0 km/h
1734 17-05-2010 10:57:03 14.5 C 6.47 g/m*3 14.5 C 0 km/h
1735 17-05-2010 11:09:01 14.1 C 6.55 g/m*3 14.1 C 0 km/h
1736 17-05-2010 11:21:02 13.9 C 6.83 g/m*3 13.9 C 0 km/h
1737 17-05-2010 11:33:02 13.5 C 6.67 g/m*3 13.5 C 0 km/h
1738 17-05-2010 11:45:02 13.5 C 7.13 g/m*3 13.5 C 0 km/h
1739 17-05-2010 11:57:02 13 C 7.14 g/m*3 13 C 0 km/h
1740 17-05-2010 12:09:02 13.2 C 7.23 g/m*3 13.2 C 0 km/h
1741 17-05-2010 12:21:02 13 C 7.48 g/m*3 13 C 0 km/h
1742 17-05-2010 12:33:02 13.2 C 7.69 g/m*3 13.2 C 0 km/h
1743 17-05-2010 12:45:01 14.2 C 7.45 g/m*3 14.2 C 0 km/h
1744 17-05-2010 12:57:01 15.8 C 7.27 g/m*3 15.8 C 0 km/h
1745 17-05-2010 13:09:02 15.4 C 6.7 g/m*3 15.4 C 0 km/h
1746 17-05-2010 13:21:01 16.9 C 6.9 g/m*3 16.9 C 0 km/h
1747 17-05-2010 13:33:01 18.1 C 6.49 g/m*3 18.1 C 0 km/h
1748 17-05-2010 13:45:01 17.7 C 6.04 g/m*3 17.7 C 0 km/h
1749 17-05-2010 13:57:01 15 C 7.05 g/m*3 15 C 0 km/h
1750 17-05-2010 14:09:02 15.6 C 7.05 g/m*3 15.6 C 0 km/h
Sensor: Nr:Datum:Temp:Abs-Feuchte:Windchill:Wind:
Aussen-T/F 1751 17-05-2010 14:21:01 15.5 C 7.4 g/m*3 15.5 C 0 km/h
1752 17-05-2010 14:33:01 17.1 C 6.7 g/m*3 17.1 C 0 km/h
1753 17-05-2010 14:45:01 16.5 C 6.46 g/m*3 16.5 C 0 km/h
1754 17-05-2010 14:57:01 14.7 C 7.18 g/m*3 14.7 C 0 km/h
1755 17-05-2010 15:09:02 12.6 C 8.3 g/m*3 12.6 C 0 km/h
1756 17-05-2010 15:21:02 12.6 C 9.07 g/m*3 12.6 C 0 km/h
1757 17-05-2010 15:33:01 12.9 C 9.58 g/m*3 12.9 C 0 km/h
1758 17-05-2010 15:45:02 12.7 C 9.57 g/m*3 12.7 C 0 km/h
1759 17-05-2010 15:57:02 12.5 C 9.57 g/m*3 12.5 C 0 km/h
1760 17-05-2010 16:09:01 13.3 C 10.05 g/m*3 13.3 C 0 km/h
1761 17-05-2010 16:21:02 13.8 C 9.89 g/m*3 13.8 C 0 km/h
1762 17-05-2010 16:33:01 13.7 C 9.24 g/m*3 13.7 C 0 km/h
1763 17-05-2010 16:45:02 13.1 C 8.9 g/m*3 13.1 C 0 km/h
1764 17-05-2010 16:57:02 13.3 C 9.24 g/m*3 13.3 C 0 km/h
1765 17-05-2010 17:09:01 13.8 C 9.29 g/m*3 13.8 C 0 km/h
1766 17-05-2010 17:21:01 14.1 C 8.98 g/m*3 14.1 C 0 km/h
1767 17-05-2010 17:33:01 13.9 C 8.99 g/m*3 13.9 C 0 km/h
1768 17-05-2010 17:45:02 13.7 C 8.64 g/m*3 13.7 C 0 km/h
1769 17-05-2010 17:57:02 13.8 C 8.7 g/m*3 13.8 C 0 km/h
1770 17-05-2010 18:09:02 13.6 C 8.47 g/m*3 13.6 C 0 km/h
1771 17-05-2010 18:21:02 14.4 C 8.9 g/m*3 14.4 C 0 km/h
1772 17-05-2010 18:33:02 11.8 C 6.63 g/m*3 11.8 C 0 km/h
1773 17-05-2010 18:45:01 10.7 C 6.88 g/m*3 10.7 C 0 km/h
1774 17-05-2010 18:57:01 10 C 7.24 g/m*3 10 C 0 km/h
1775 17-05-2010 19:09:02 9.8 C 7.7 g/m*3 9.8 C 0 km/h
Sensor: Nr:Datum:Temp:Abs-Feuchte:Windchill:Wind:
Aussen-T/F 1776 17-05-2010 19:21:01 10.3 C 7.85 g/m*3 10.3 C 0 km/h
1777 17-05-2010 19:33:02 10.3 C 7.95 g/m*3 10.3 C 0 km/h
1778 17-05-2010 19:45:02 9.8 C 7.7 g/m*3 9.8 C 0 km/h
1779 17-05-2010 19:57:02 10 C 7.8 g/m*3 10 C 0 km/h
1780 17-05-2010 20:09:02 9.8 C 7.89 g/m*3 9.8 C 0 km/h
1781 17-05-2010 20:21:01 9.5 C 7.83 g/m*3 9.5 C 0 km/h
1782 17-05-2010 20:33:02 9.5 C 7.92 g/m*3 9.5 C 0 km/h
1783 17-05-2010 20:45:02 9.4 C 7.87 g/m*3 9.4 C 0 km/h
1784 17-05-2010 20:57:02 9.1 C 7.81 g/m*3 9.1 C 0 km/h
1785 17-05-2010 21:09:02 9 C 7.76 g/m*3 9 C 0 km/h
1786 17-05-2010 21:21:02 9 C 7.85 g/m*3 9 C 0 km/h
1787 17-05-2010 21:33:02 9 C 7.85 g/m*3 9 C 0 km/h
1788 17-05-2010 21:45:02 8.7 C 7.78 g/m*3 8.7 C 0 km/h
1789 17-05-2010 21:57:02 8.7 C 7.87 g/m*3 8.7 C 0 km/h
1790 17-05-2010 22:09:02 8.3 C 7.67 g/m*3 8.3 C 0 km/h
1791 17-05-2010 22:21:02 8.6 C 7.82 g/m*3 8.6 C 0 km/h
1792 17-05-2010 22:34:03 8.7 C 7.96 g/m*3 8.7 C 0 km/h
1793 17-05-2010 22:46:03 8.5 C 7.85 g/m*3 8.5 C 0 km/h
1794 17-05-2010 22:58:03 8.4 C 7.8 g/m*3 8.4 C 0 km/h
1795 17-05-2010 23:10:04 8.1 C 7.57 g/m*3 8.1 C 0 km/h
1796 17-05-2010 23:22:04 7.8 C 7.51 g/m*3 7.8 C 0 km/h
1797 17-05-2010 23:34:04 7.8 C 7.51 g/m*3 7.8 C 0 km/h
1798 17-05-2010 23:46:04 7.7 C 7.54 g/m*3 7.7 C 0 km/h
1799 17-05-2010 23:58:04 7.6 C 7.49 g/m*3 7.6 C 0 km/h
1800 18-05-2010 00:10:04 7.4 C 7.32 g/m*3 7.4 C 0 km/h
Sensor: Nr:Datum:Temp:Abs-Feuchte:Windchill:Wind:
Aussen-T/F 1801 18-05-2010 00:22:04 7.1 C 7.18 g/m*3 7.1 C 0 km/h
1802 18-05-2010 00:34:04 7 C 7.13 g/m*3 7 C 0 km/h
1803 18-05-2010 00:46:04 7 C 7.13 g/m*3 7 C 0 km/h
1804 18-05-2010 00:58:04 6.9 C 7.16 g/m*3 6.9 C 0 km/h
1805 18-05-2010 01:10:04 6.8 C 7.11 g/m*3 6.8 C 0 km/h
1806 18-05-2010 01:22:04 6.6 C 7.02 g/m*3 6.6 C 0 km/h
1807 18-05-2010 01:34:04 6.4 C 6.85 g/m*3 6.4 C 0 km/h
1808 18-05-2010 01:46:04 6.3 C 6.88 g/m*3 6.3 C 0 km/h
1809 18-05-2010 01:58:04 6.2 C 6.84 g/m*3 6.2 C 0 km/h
1810 18-05-2010 02:10:04 6.3 C 6.88 g/m*3 6.3 C 0 km/h
1811 18-05-2010 02:22:04 6.2 C 6.84 g/m*3 6.2 C 0 km/h
1812 18-05-2010 02:34:04 6.1 C 6.79 g/m*3 6.1 C 0 km/h
1813 18-05-2010 02:46:04 6 C 6.75 g/m*3 6 C 0 km/h
1814 18-05-2010 02:58:04 5.9 C 6.71 g/m*3 5.9 C 0 km/h
1815 18-05-2010 03:10:04 5.8 C 6.66 g/m*3 5.8 C 0 km/h
1816 18-05-2010 03:22:04 5.7 C 6.62 g/m*3 5.7 C 0 km/h
1817 18-05-2010 03:34:05 5.7 C 6.69 g/m*3 5.7 C 0 km/h
1818 18-05-2010 03:46:05 5.8 C 6.73 g/m*3 5.8 C 0 km/h
1819 18-05-2010 03:58:05 6 C 6.75 g/m*3 6 C 0 km/h
1820 18-05-2010 04:10:05 6.3 C 6.96 g/m*3 6.3 C 0 km/h
1821 18-05-2010 04:22:05 6.3 C 6.96 g/m*3 6.3 C 0 km/h
1822 18-05-2010 04:34:05 6.3 C 6.96 g/m*3 6.3 C 0 km/h
1823 18-05-2010 04:46:05 6.2 C 6.91 g/m*3 6.2 C 0 km/h
1824 18-05-2010 04:58:05 6.3 C 6.88 g/m*3 6.3 C 0 km/h
1825 18-05-2010 05:10:05 6.4 C 7 g/m*3 6.4 C 0 km/h
Sensor: Nr:Datum:Temp:Abs-Feuchte:Windchill:Wind:
Aussen-T/F 1826 18-05-2010 05:22:05 6.5 C 7.05 g/m*3 6.5 C 0 km/h
1827 18-05-2010 05:34:05 6.4 C 6.93 g/m*3 6.4 C 0 km/h
1828 18-05-2010 05:46:05 6.5 C 6.97 g/m*3 6.5 C 0 km/h
1829 18-05-2010 05:58:05 6.7 C 7.07 g/m*3 6.7 C 0 km/h
1830 18-05-2010 06:10:05 6.9 C 7.16 g/m*3 6.9 C 0 km/h
1831 18-05-2010 06:22:05 6.9 C 7.16 g/m*3 6.9 C 0 km/h
1832 18-05-2010 06:34:05 7.1 C 7.18 g/m*3 7.1 C 0 km/h
1833 18-05-2010 06:46:05 7.3 C 7.27 g/m*3 7.3 C 0 km/h
1834 18-05-2010 06:58:05 7.5 C 7.28 g/m*3 7.5 C 0 km/h
1835 18-05-2010 07:10:04 7.9 C 7.47 g/m*3 7.9 C 0 km/h
1836 18-05-2010 07:22:03 7.9 C 7.39 g/m*3 7.9 C 0 km/h
1837 18-05-2010 07:34:03 8 C 7.36 g/m*3 8 C 0 km/h
1838 18-05-2010 07:46:01 8.5 C 7.6 g/m*3 8.5 C 0 km/h
1839 18-05-2010 07:58:01 8.7 C 7.52 g/m*3 8.7 C 0 km/h
1840 18-05-2010 08:10:02 9 C 7.23 g/m*3 9 C 0 km/h
1841 18-05-2010 08:22:01 8.7 C 6.66 g/m*3 8.7 C 0 km/h
1842 18-05-2010 08:34:02 9 C 6.44 g/m*3 9 C 0 km/h
1843 18-05-2010 08:46:02 9.3 C 6.56 g/m*3 9.3 C 0 km/h
1844 18-05-2010 08:58:02 9.2 C 6.52 g/m*3 9.2 C 0 km/h
1845 18-05-2010 09:10:01 9.3 C 6.47 g/m*3 9.3 C 0 km/h
1846 18-05-2010 09:22:02 9.6 C 6.41 g/m*3 9.6 C 0 km/h
1847 18-05-2010 09:34:01 9.9 C 6.35 g/m*3 9.9 C 0 km/h
1848 18-05-2010 09:46:02 9.7 C 6.08 g/m*3 9.7 C 0 km/h
1849 18-05-2010 09:58:02 10 C 6.01 g/m*3 10 C 0 km/h
1850 18-05-2010 10:10:01 10.5 C 6.01 g/m*3 10.5 C 0 km/h
Sensor: Nr:Datum:Temp:Abs-Feuchte:Windchill:Wind:
Aussen-T/F 1851 18-05-2010 10:22:01 10.5 C 6.01 g/m*3 10.5 C 0 km/h
1852 18-05-2010 10:34:02 10.6 C 5.66 g/m*3 10.6 C 0 km/h
1853 18-05-2010 10:46:02 11.2 C 5.57 g/m*3 11.2 C 0 km/h
1854 18-05-2010 10:58:02 11.4 C 5.65 g/m*3 11.4 C 0 km/h
1855 18-05-2010 11:10:02 12.5 C 5.61 g/m*3 12.5 C 0 km/h
1856 18-05-2010 11:22:02 12.4 C 5.24 g/m*3 12.4 C 0 km/h
1857 18-05-2010 11:34:02 12.1 C 5.25 g/m*3 12.1 C 0 km/h
1858 18-05-2010 11:46:02 13 C 5.22 g/m*3 13 C 0 km/h
1859 18-05-2010 11:58:02 13.7 C 5.21 g/m*3 13.7 C 0 km/h
1860 18-05-2010 12:10:03 13.7 C 4.86 g/m*3 13.7 C 0 km/h
1861 18-05-2010 12:22:02 12.7 C 5.12 g/m*3 12.7 C 0 km/h
1862 18-05-2010 12:34:02 14.2 C 5.13 g/m*3 14.2 C 0 km/h
1863 18-05-2010 12:46:01 14.4 C 4.82 g/m*3 14.4 C 0 km/h
1864 18-05-2010 12:58:01 15.2 C 4.67 g/m*3 15.2 C 0 km/h
1865 18-05-2010 13:10:02 16.8 C 5 g/m*3 16.8 C 0 km/h
1866 18-05-2010 13:22:01 16.9 C 4.46 g/m*3 16.9 C 0 km/h
1867 18-05-2010 13:34:01 16.5 C 4.49 g/m*3 16.5 C 0 km/h
1868 18-05-2010 13:46:01 17.8 C 4.4 g/m*3 17.8 C 0 km/h
1869 18-05-2010 13:58:01 15.8 C 4.04 g/m*3 15.8 C 0 km/h
1870 18-05-2010 14:10:02 15.1 C 4.13 g/m*3 15.1 C 0 km/h
1871 18-05-2010 14:22:01 15.8 C 4.17 g/m*3 15.8 C 0 km/h
1872 18-05-2010 14:34:01 15 C 4.23 g/m*3 15 C 0 km/h
1873 18-05-2010 14:46:01 15.8 C 4.31 g/m*3 15.8 C 0 km/h
1874 18-05-2010 14:58:01 16.3 C 4.16 g/m*3 16.3 C 0 km/h
1875 18-05-2010 15:10:02 16.4 C 4.47 g/m*3 16.4 C 0 km/h
Sensor: Nr:Datum:Temp:Abs-Feuchte:Windchill:Wind:
Aussen-T/F 1876 18-05-2010 15:22:02 16.5 C 4.21 g/m*3 16.5 C 0 km/h
1877 18-05-2010 15:34:01 16.6 C 3.96 g/m*3 16.6 C 0 km/h
1878 18-05-2010 15:46:02 16 C 3.95 g/m*3 16 C 0 km/h
1879 18-05-2010 15:58:02 16.9 C 4.17 g/m*3 16.9 C 0 km/h
1880 18-05-2010 16:10:01 18.2 C 4.04 g/m*3 18.2 C 0 km/h
1881 18-05-2010 16:22:02 18.2 C 3.89 g/m*3 18.2 C 0 km/h
1882 18-05-2010 16:34:01 17.9 C 3.05 g/m*3 17.9 C 0 km/h
1883 18-05-2010 16:46:02 17.6 C 3.3 g/m*3 17.6 C 0 km/h
1884 18-05-2010 16:58:02 16.8 C 3.29 g/m*3 16.8 C 0 km/h
1885 18-05-2010 17:10:02 16.6 C 3.53 g/m*3 16.6 C 0 km/h
1886 18-05-2010 17:22:02 17.7 C 3.77 g/m*3 17.7 C 0 km/h
1887 18-05-2010 17:34:02 17.5 C 4.03 g/m*3 17.5 C 0 km/h
1888 18-05-2010 17:46:02 16.8 C 3.86 g/m*3 16.8 C 0 km/h
1889 18-05-2010 17:58:02 17.2 C 3.66 g/m*3 17.2 C 0 km/h
1890 18-05-2010 18:10:01 18.2 C 3.57 g/m*3 18.2 C 0 km/h
1891 18-05-2010 18:22:02 18.2 C 3.73 g/m*3 18.2 C 0 km/h
1892 18-05-2010 18:34:02 16.9 C 3.88 g/m*3 16.9 C 0 km/h
1893 18-05-2010 18:46:02 16.2 C 4.14 g/m*3 16.2 C 0 km/h
1894 18-05-2010 18:58:02 16.4 C 4.33 g/m*3 16.4 C 0 km/h
1895 18-05-2010 19:10:02 15.7 C 4.42 g/m*3 15.7 C 0 km/h
1896 18-05-2010 19:22:02 16.1 C 4.25 g/m*3 16.1 C 0 km/h
1897 18-05-2010 19:34:03 15.3 C 4.31 g/m*3 15.3 C 0 km/h
1898 18-05-2010 19:46:02 14.8 C 4.56 g/m*3 14.8 C 0 km/h
1899 18-05-2010 19:58:02 14.7 C 4.66 g/m*3 14.7 C 0 km/h
1900 18-05-2010 20:10:02 14.5 C 4.6 g/m*3 14.5 C 0 km/h
Sensor: Nr:Datum:Temp:Abs-Feuchte:Windchill:Wind:
Aussen-T/F 1901 18-05-2010 20:22:01 14.4 C 4.94 g/m*3 14.4 C 0 km/h
1902 18-05-2010 20:34:02 14.5 C 4.85 g/m*3 14.5 C 0 km/h
1903 18-05-2010 20:46:02 14.1 C 4.85 g/m*3 14.1 C 0 km/h
1904 18-05-2010 20:58:02 13.8 C 4.89 g/m*3 13.8 C 0 km/h
1905 18-05-2010 21:10:02 13.5 C 5.03 g/m*3 13.5 C 0 km/h
1906 18-05-2010 21:22:02 13.1 C 4.79 g/m*3 13.1 C 0 km/h
1907 18-05-2010 21:34:02 12.6 C 4.76 g/m*3 12.6 C 0 km/h
1908 18-05-2010 21:46:02 12.4 C 4.48 g/m*3 12.4 C 0 km/h
1909 18-05-2010 21:58:02 12.4 C 4.37 g/m*3 12.4 C 0 km/h
1910 18-05-2010 22:10:02 12 C 4.37 g/m*3 12 C 0 km/h
1911 18-05-2010 22:22:02 11.7 C 4.39 g/m*3 11.7 C 0 km/h
1912 18-05-2010 22:35:02 11.5 C 4.44 g/m*3 11.5 C 0 km/h
1913 18-05-2010 22:47:02 11.2 C 4.66 g/m*3 11.2 C 0 km/h
1914 18-05-2010 22:59:02 10.8 C 4.94 g/m*3 10.8 C 0 km/h
1915 18-05-2010 23:11:02 10.5 C 5.04 g/m*3 10.5 C 0 km/h
1916 18-05-2010 23:23:02 10.2 C 5.33 g/m*3 10.2 C 0 km/h
1917 18-05-2010 23:35:03 9.9 C 5.51 g/m*3 9.9 C 0 km/h
1918 18-05-2010 23:47:03 9.7 C 5.53 g/m*3 9.7 C 0 km/h
1919 18-05-2010 23:59:03 9.6 C 5.59 g/m*3 9.6 C 0 km/h
1920 19-05-2010 00:11:03 9.4 C 5.79 g/m*3 9.4 C 0 km/h
1921 19-05-2010 00:23:03 9.4 C 5.79 g/m*3 9.4 C 0 km/h
1922 19-05-2010 00:35:03 9.3 C 5.75 g/m*3 9.3 C 0 km/h
1923 19-05-2010 00:47:03 9.3 C 5.75 g/m*3 9.3 C 0 km/h
1924 19-05-2010 00:59:03 9.2 C 5.71 g/m*3 9.2 C 0 km/h
1925 19-05-2010 01:11:03 9.2 C 5.54 g/m*3 9.2 C 0 km/h
Sensor: Nr:Datum:Temp:Abs-Feuchte:Windchill:Wind:
Aussen-T/F 1926 19-05-2010 01:23:03 9.3 C 5.39 g/m*3 9.3 C 0 km/h
1927 19-05-2010 01:35:03 9.3 C 5.3 g/m*3 9.3 C 0 km/h
1928 19-05-2010 01:47:03 9.3 C 5.3 g/m*3 9.3 C 0 km/h
1929 19-05-2010 01:59:03 9.3 C 5.3 g/m*3 9.3 C 0 km/h
1930 19-05-2010 02:11:03 9.2 C 5.27 g/m*3 9.2 C 0 km/h
1931 19-05-2010 02:23:03 9.1 C 5.32 g/m*3 9.1 C 0 km/h
1932 19-05-2010 02:35:03 9.2 C 5.36 g/m*3 9.2 C 0 km/h
1933 19-05-2010 02:47:03 9 C 5.29 g/m*3 9 C 0 km/h
1934 19-05-2010 02:59:03 8.8 C 5.4 g/m*3 8.8 C 0 km/h
1935 19-05-2010 03:11:03 8.8 C 5.4 g/m*3 8.8 C 0 km/h
1936 19-05-2010 03:23:03 8.8 C 5.31 g/m*3 8.8 C 0 km/h
1937 19-05-2010 03:35:03 8.7 C 5.36 g/m*3 8.7 C 0 km/h
1938 19-05-2010 03:47:03 8.6 C 5.33 g/m*3 8.6 C 0 km/h
1939 19-05-2010 03:59:03 8.5 C 5.38 g/m*3 8.5 C 0 km/h
1940 19-05-2010 04:11:04 8.4 C 5.43 g/m*3 8.4 C 0 km/h
1941 19-05-2010 04:23:04 8.2 C 5.44 g/m*3 8.2 C 0 km/h
1942 19-05-2010 04:35:04 8.1 C 5.49 g/m*3 8.1 C 0 km/h
1943 19-05-2010 04:47:04 8.1 C 5.66 g/m*3 8.1 C 0 km/h
1944 19-05-2010 04:59:04 8 C 5.7 g/m*3 8 C 0 km/h
1945 19-05-2010 05:11:04 8 C 5.7 g/m*3 8 C 0 km/h
1946 19-05-2010 05:23:04 7.9 C 5.83 g/m*3 7.9 C 0 km/h
1947 19-05-2010 05:35:04 7.9 C 5.91 g/m*3 7.9 C 0 km/h
1948 19-05-2010 05:47:04 7.9 C 5.91 g/m*3 7.9 C 0 km/h
1949 19-05-2010 05:59:04 7.9 C 5.91 g/m*3 7.9 C 0 km/h
1950 19-05-2010 06:11:04 7.8 C 5.96 g/m*3 7.8 C 0 km/h
Sensor: Nr:Datum:Temp:Abs-Feuchte:Windchill:Wind:
Aussen-T/F 1951 19-05-2010 06:23:04 8 C 5.95 g/m*3 8 C 0 km/h
1952 19-05-2010 06:35:04 8.1 C 5.91 g/m*3 8.1 C 0 km/h
1953 19-05-2010 06:47:04 8.1 C 5.91 g/m*3 8.1 C 0 km/h
1954 19-05-2010 06:59:04 8.2 C 5.95 g/m*3 8.2 C 0 km/h
1955 19-05-2010 07:11:02 8.4 C 6.02 g/m*3 8.4 C 0 km/h
1956 19-05-2010 07:23:02 8.5 C 5.89 g/m*3 8.5 C 0 km/h
1957 19-05-2010 07:35:02 8.6 C 5.84 g/m*3 8.6 C 0 km/h
1958 19-05-2010 07:47:02 8.7 C 5.88 g/m*3 8.7 C 0 km/h
1959 19-05-2010 07:59:02 9.1 C 5.86 g/m*3 9.1 C 0 km/h
1960 19-05-2010 08:11:02 9.1 C 5.68 g/m*3 9.1 C 0 km/h
1961 19-05-2010 08:23:02 9.3 C 5.66 g/m*3 9.3 C 0 km/h
1962 19-05-2010 08:35:02 9 C 5.55 g/m*3 9 C 0 km/h
1963 19-05-2010 08:47:02 9.1 C 5.59 g/m*3 9.1 C 0 km/h
1964 19-05-2010 08:59:02 9.2 C 5.63 g/m*3 9.2 C 0 km/h
1965 19-05-2010 09:11:01 8.9 C 5.69 g/m*3 8.9 C 0 km/h
1966 19-05-2010 09:23:01 9.1 C 5.77 g/m*3 9.1 C 0 km/h
1967 19-05-2010 09:35:01 9.2 C 5.71 g/m*3 9.2 C 0 km/h
1968 19-05-2010 09:47:02 9.2 C 5.71 g/m*3 9.2 C 0 km/h
1969 19-05-2010 09:59:02 9.5 C 5.73 g/m*3 9.5 C 0 km/h
1970 19-05-2010 10:11:02 9.6 C 5.77 g/m*3 9.6 C 0 km/h
1971 19-05-2010 10:23:02 9.6 C 5.68 g/m*3 9.6 C 0 km/h
1972 19-05-2010 10:35:01 9.8 C 5.75 g/m*3 9.8 C 0 km/h
1973 19-05-2010 10:47:02 9.5 C 5.64 g/m*3 9.5 C 0 km/h
1974 19-05-2010 10:59:02 9.6 C 5.77 g/m*3 9.6 C 0 km/h
1975 19-05-2010 11:11:01 9.7 C 5.81 g/m*3 9.7 C 0 km/h
Sensor: Nr:Datum:Temp:Abs-Feuchte:Windchill:Wind:
Aussen-T/F 1976 19-05-2010 11:23:02 10.1 C 5.77 g/m*3 10.1 C 0 km/h
1977 19-05-2010 11:35:02 10.3 C 5.84 g/m*3 10.3 C 0 km/h
1978 19-05-2010 11:47:02 10.7 C 5.89 g/m*3 10.7 C 0 km/h
1979 19-05-2010 11:59:02 10.3 C 5.75 g/m*3 10.3 C 0 km/h
1980 19-05-2010 12:11:02 10.7 C 5.99 g/m*3 10.7 C 0 km/h
1981 19-05-2010 12:23:02 10.9 C 5.97 g/m*3 10.9 C 0 km/h
1982 19-05-2010 12:35:02 10.7 C 5.8 g/m*3 10.7 C 0 km/h
1983 19-05-2010 12:47:02 11.1 C 5.64 g/m*3 11.1 C 0 km/h
1984 19-05-2010 12:59:02 11.7 C 5.75 g/m*3 11.7 C 0 km/h
1985 19-05-2010 13:11:02 11.9 C 5.61 g/m*3 11.9 C 0 km/h
1986 19-05-2010 13:23:01 11.7 C 5.33 g/m*3 11.7 C 0 km/h
1987 19-05-2010 13:35:02 11.5 C 5.99 g/m*3 11.5 C 0 km/h
1988 19-05-2010 13:47:02 11.3 C 6.32 g/m*3 11.3 C 0 km/h
1989 19-05-2010 13:59:02 11.3 C 6.32 g/m*3 11.3 C 0 km/h
1990 19-05-2010 14:11:02 11.4 C 6.47 g/m*3 11.4 C 0 km/h
1991 19-05-2010 14:23:02 11.2 C 6.39 g/m*3 11.2 C 0 km/h
1992 19-05-2010 14:35:02 10.9 C 6.76 g/m*3 10.9 C 0 km/h
1993 19-05-2010 14:47:02 11.9 C 7.31 g/m*3 11.9 C 0 km/h
1994 19-05-2010 14:59:02 11.9 C 6.99 g/m*3 11.9 C 0 km/h
1995 19-05-2010 15:11:02 11.8 C 7.37 g/m*3 11.8 C 0 km/h
1996 19-05-2010 15:23:02 11.5 C 7.64 g/m*3 11.5 C 0 km/h
1997 19-05-2010 15:35:02 11.4 C 7.9 g/m*3 11.4 C 0 km/h
1998 19-05-2010 15:47:02 11.1 C 7.86 g/m*3 11.1 C 0 km/h
1999 19-05-2010 15:59:02 11.2 C 8.01 g/m*3 11.2 C 0 km/h
2000 19-05-2010 16:11:02 11 C 8.01 g/m*3 11 C 0 km/h
Sensor: Nr:Datum:Temp:Abs-Feuchte:Windchill:Wind:
Aussen-T/F 2001 19-05-2010 16:23:02 10.8 C 8.01 g/m*3 10.8 C 0 km/h
2002 19-05-2010 16:35:02 10.7 C 8.05 g/m*3 10.7 C 0 km/h
2003 19-05-2010 16:47:02 10.8 C 8.2 g/m*3 10.8 C 0 km/h
2004 19-05-2010 16:59:02 10.6 C 8.1 g/m*3 10.6 C 0 km/h
2005 19-05-2010 17:11:02 10.7 C 8.25 g/m*3 10.7 C 0 km/h
2006 19-05-2010 17:23:03 10.6 C 8.3 g/m*3 10.6 C 0 km/h
2007 19-05-2010 17:35:02 10.7 C 8.35 g/m*3 10.7 C 0 km/h
2008 19-05-2010 17:47:02 10.7 C 8.35 g/m*3 10.7 C 0 km/h
2009 19-05-2010 17:59:02 10.7 C 8.35 g/m*3 10.7 C 0 km/h
2010 19-05-2010 18:11:02 11.1 C 8.46 g/m*3 11.1 C 0 km/h
2011 19-05-2010 18:23:03 11.1 C 8.36 g/m*3 11.1 C 0 km/h
2012 19-05-2010 18:35:02 11.1 C 8.16 g/m*3 11.1 C 0 km/h
2013 19-05-2010 18:47:02 11.2 C 8.11 g/m*3 11.2 C 0 km/h
2014 19-05-2010 18:59:02 11.2 C 8.01 g/m*3 11.2 C 0 km/h
2015 19-05-2010 19:11:02 11.3 C 7.96 g/m*3 11.3 C 0 km/h
2016 19-05-2010 19:23:02 11.4 C 8.01 g/m*3 11.4 C 0 km/h
2017 19-05-2010 19:35:02 11.5 C 8.06 g/m*3 11.5 C 0 km/h
2018 19-05-2010 19:47:02 11.6 C 8.11 g/m*3 11.6 C 0 km/h
2019 19-05-2010 19:59:02 11.6 C 8 g/m*3 11.6 C 0 km/h
2020 19-05-2010 20:11:02 11.6 C 8 g/m*3 11.6 C 0 km/h
2021 19-05-2010 20:23:02 11.7 C 7.95 g/m*3 11.7 C 0 km/h
2022 19-05-2010 20:35:01 11.7 C 7.84 g/m*3 11.7 C 0 km/h
2023 19-05-2010 20:47:02 11.8 C 7.68 g/m*3 11.8 C 0 km/h
2024 19-05-2010 20:59:02 12 C 7.14 g/m*3 12 C 0 km/h
2025 19-05-2010 21:11:01 12.6 C 6.2 g/m*3 12.6 C 0 km/h
Sensor: Nr:Datum:Temp:Abs-Feuchte:Windchill:Wind:
Aussen-T/F 2026 19-05-2010 21:23:02 12.8 C 6.16 g/m*3 12.8 C 0 km/h
2027 19-05-2010 21:35:02 13.2 C 5.51 g/m*3 13.2 C 0 km/h
2028 19-05-2010 21:47:02 13 C 5.78 g/m*3 13 C 0 km/h
2029 19-05-2010 21:59:03 13.1 C 5.48 g/m*3 13.1 C 0 km/h
2030 19-05-2010 22:11:02 13.2 C 5.51 g/m*3 13.2 C 0 km/h
2031 19-05-2010 22:23:02 13.1 C 5.71 g/m*3 13.1 C 0 km/h
2032 19-05-2010 22:35:03 13.2 C 5.63 g/m*3 13.2 C 0 km/h
2033 19-05-2010 22:47:02 13 C 5.67 g/m*3 13 C 0 km/h
2034 19-05-2010 22:59:03 12.8 C 5.94 g/m*3 12.8 C 0 km/h
2035 19-05-2010 23:11:01 12.8 C 5.94 g/m*3 12.8 C 0 km/h
2036 19-05-2010 23:23:02 12.8 C 5.82 g/m*3 12.8 C 0 km/h
2037 19-05-2010 23:35:02 12.8 C 5.94 g/m*3 12.8 C 0 km/h
2038 19-05-2010 23:47:02 12.9 C 5.75 g/m*3 12.9 C 0 km/h
2039 19-05-2010 23:59:02 12.7 C 5.68 g/m*3 12.7 C 0 km/h
2040 20-05-2010 00:11:02 12.9 C 5.52 g/m*3 12.9 C 0 km/h
2041 20-05-2010 00:23:03 12.8 C 5.49 g/m*3 12.8 C 0 km/h
2042 20-05-2010 00:35:02 12.8 C 5.26 g/m*3 12.8 C 0 km/h
2043 20-05-2010 00:47:02 13 C 4.99 g/m*3 13 C 0 km/h
2044 20-05-2010 00:59:02 13 C 4.76 g/m*3 13 C 0 km/h
2045 20-05-2010 01:11:02 12.8 C 4.93 g/m*3 12.8 C 0 km/h
2046 20-05-2010 01:23:03 12.6 C 5.2 g/m*3 12.6 C 0 km/h
2047 20-05-2010 01:35:02 12.5 C 5.61 g/m*3 12.5 C 0 km/h
2048 20-05-2010 01:47:03 12.4 C 5.68 g/m*3 12.4 C 0 km/h
2049 20-05-2010 01:59:03 12.2 C 5.61 g/m*3 12.2 C 0 km/h
2050 20-05-2010 02:11:02 12.1 C 5.47 g/m*3 12.1 C 0 km/h
Sensor: Nr:Datum:Temp:Abs-Feuchte:Windchill:Wind:
Aussen-T/F 2051 20-05-2010 02:23:03 12 C 5.65 g/m*3 12 C 0 km/h
2052 20-05-2010 02:35:02 11.8 C 5.68 g/m*3 11.8 C 0 km/h
2053 20-05-2010 02:48:04 11.7 C 5.65 g/m*3 11.7 C 0 km/h
2054 20-05-2010 03:00:04 11.5 C 5.68 g/m*3 11.5 C 0 km/h
2055 20-05-2010 03:12:03 11.7 C 5.54 g/m*3 11.7 C 0 km/h
2056 20-05-2010 03:24:03 11.5 C 5.37 g/m*3 11.5 C 0 km/h
2057 20-05-2010 03:36:01 11.4 C 5.44 g/m*3 11.4 C 0 km/h
2058 20-05-2010 03:48:01 11.5 C 5.47 g/m*3 11.5 C 0 km/h
2059 20-05-2010 04:00:01 11.2 C 5.47 g/m*3 11.2 C 0 km/h
2060 20-05-2010 04:12:02 11.3 C 5.3 g/m*3 11.3 C 0 km/h
2061 20-05-2010 04:24:01 11.2 C 5.27 g/m*3 11.2 C 0 km/h
2062 20-05-2010 04:36:02 11.1 C 5.24 g/m*3 11.1 C 0 km/h
2063 20-05-2010 04:48:01 11 C 5.2 g/m*3 11 C 0 km/h
2064 20-05-2010 05:00:01 11.1 C 5.24 g/m*3 11.1 C 0 km/h
2065 20-05-2010 05:12:02 11.1 C 5.14 g/m*3 11.1 C 0 km/h
2066 20-05-2010 05:24:02 11 C 5.31 g/m*3 11 C 0 km/h
2067 20-05-2010 05:36:02 11 C 5.2 g/m*3 11 C 0 km/h
2068 20-05-2010 05:48:01 10.9 C 5.27 g/m*3 10.9 C 0 km/h
2069 20-05-2010 06:00:01 10.9 C 5.27 g/m*3 10.9 C 0 km/h
2070 20-05-2010 06:12:02 10.9 C 5.37 g/m*3 10.9 C 0 km/h
2071 20-05-2010 06:24:02 11 C 5 g/m*3 11 C 0 km/h
2072 20-05-2010 06:36:02 11.1 C 5.04 g/m*3 11.1 C 0 km/h
2073 20-05-2010 06:48:02 11.2 C 5.27 g/m*3 11.2 C 0 km/h
2074 20-05-2010 07:00:02 11.2 C 5.17 g/m*3 11.2 C 0 km/h
2075 20-05-2010 07:12:02 11.2 C 5.17 g/m*3 11.2 C 0 km/h
Sensor: Nr:Datum:Temp:Abs-Feuchte:Windchill:Wind:
Aussen-T/F 2076 20-05-2010 07:24:02 11.2 C 5.17 g/m*3 11.2 C 0 km/h
2077 20-05-2010 07:36:01 11.4 C 5.44 g/m*3 11.4 C 0 km/h
2078 20-05-2010 07:48:02 11.3 C 5.3 g/m*3 11.3 C 0 km/h
2079 20-05-2010 08:00:02 11.2 C 5.27 g/m*3 11.2 C 0 km/h
2080 20-05-2010 08:12:01 11 C 5.2 g/m*3 11 C 0 km/h
2081 20-05-2010 08:24:02 11 C 5.31 g/m*3 11 C 0 km/h
2082 20-05-2010 08:36:01 11.1 C 5.44 g/m*3 11.1 C 0 km/h
2083 20-05-2010 08:48:02 11.4 C 5.54 g/m*3 11.4 C 0 km/h
2084 20-05-2010 09:00:02 11.8 C 5.47 g/m*3 11.8 C 0 km/h
2085 20-05-2010 09:12:02 11.8 C 5.37 g/m*3 11.8 C 0 km/h
2086 20-05-2010 09:24:02 11.8 C 5.47 g/m*3 11.8 C 0 km/h
2087 20-05-2010 09:36:01 11.7 C 5.44 g/m*3 11.7 C 0 km/h
2088 20-05-2010 09:48:02 12 C 5.33 g/m*3 12 C 0 km/h
2089 20-05-2010 10:00:02 12.1 C 5.36 g/m*3 12.1 C 0 km/h
2090 20-05-2010 10:12:01 12.1 C 5.36 g/m*3 12.1 C 0 km/h
2091 20-05-2010 10:24:02 12.4 C 5.46 g/m*3 12.4 C 0 km/h
2092 20-05-2010 10:36:01 12.5 C 5.39 g/m*3 12.5 C 0 km/h
2093 20-05-2010 10:48:02 12.4 C 5.35 g/m*3 12.4 C 0 km/h
2094 20-05-2010 11:00:02 12.5 C 5.28 g/m*3 12.5 C 0 km/h
2095 20-05-2010 11:12:02 12.7 C 5.23 g/m*3 12.7 C 0 km/h
2096 20-05-2010 11:24:02 13.1 C 5.14 g/m*3 13.1 C 0 km/h
2097 20-05-2010 11:36:02 13.4 C 5 g/m*3 13.4 C 0 km/h
2098 20-05-2010 11:48:02 13.8 C 5.12 g/m*3 13.8 C 0 km/h
2099 20-05-2010 12:00:02 13.8 C 5 g/m*3 13.8 C 0 km/h
2100 20-05-2010 12:12:01 13.8 C 4.89 g/m*3 13.8 C 0 km/h
Sensor: Nr:Datum:Temp:Abs-Feuchte:Windchill:Wind:
Aussen-T/F 2101 20-05-2010 12:24:01 14.4 C 4.82 g/m*3 14.4 C 0 km/h
2102 20-05-2010 12:36:02 14.2 C 4.88 g/m*3 14.2 C 0 km/h
2103 20-05-2010 12:48:02 14 C 4.82 g/m*3 14 C 0 km/h
2104 20-05-2010 13:00:02 14 C 4.95 g/m*3 14 C 0 km/h
2105 20-05-2010 13:12:02 14.1 C 5.1 g/m*3 14.1 C 0 km/h
2106 20-05-2010 13:24:01 13 C 6.01 g/m*3 13 C 0 km/h
2107 20-05-2010 13:36:02 12.9 C 6.88 g/m*3 12.9 C 0 km/h
2108 20-05-2010 13:48:02 13.1 C 7.3 g/m*3 13.1 C 0 km/h
2109 20-05-2010 14:00:02 12.8 C 7.39 g/m*3 12.8 C 0 km/h
2110 20-05-2010 14:12:02 13.5 C 7.84 g/m*3 13.5 C 0 km/h
2111 20-05-2010 14:24:02 13.9 C 7.67 g/m*3 13.9 C 0 km/h
2112 20-05-2010 14:36:02 13.9 C 7.43 g/m*3 13.9 C 0 km/h
2113 20-05-2010 14:48:02 13.8 C 7.63 g/m*3 13.8 C 0 km/h
2114 20-05-2010 15:00:02 13.7 C 7.7 g/m*3 13.7 C 0 km/h
2115 20-05-2010 15:12:03 13.4 C 7.56 g/m*3 13.4 C 0 km/h
2116 20-05-2010 15:24:02 12 C 7.67 g/m*3 12 C 0 km/h
2117 20-05-2010 15:36:02 12.1 C 7.83 g/m*3 12.1 C 0 km/h
2118 20-05-2010 15:48:02 12.5 C 7.59 g/m*3 12.5 C 0 km/h
2119 20-05-2010 16:00:02 13.1 C 7.87 g/m*3 13.1 C 0 km/h
2120 20-05-2010 16:12:02 12.9 C 7.55 g/m*3 12.9 C 0 km/h
2121 20-05-2010 16:24:01 12.4 C 7.21 g/m*3 12.4 C 0 km/h
2122 20-05-2010 16:36:02 12.6 C 7.85 g/m*3 12.6 C 0 km/h
2123 20-05-2010 16:48:02 12.8 C 8.06 g/m*3 12.8 C 0 km/h
2124 20-05-2010 17:00:02 13.3 C 8.2 g/m*3 13.3 C 0 km/h
2125 20-05-2010 17:12:02 14.2 C 7.82 g/m*3 14.2 C 0 km/h
Sensor: Nr:Datum:Temp:Abs-Feuchte:Windchill:Wind:
Aussen-T/F 2126 20-05-2010 17:24:02 14 C 7.24 g/m*3 14 C 0 km/h
2127 20-05-2010 17:36:02 14.3 C 7.86 g/m*3 14.3 C 0 km/h
2128 20-05-2010 17:48:02 14.2 C 7.57 g/m*3 14.2 C 0 km/h
2129 20-05-2010 18:00:02 14.4 C 7.91 g/m*3 14.4 C 0 km/h
2130 20-05-2010 18:12:02 14.6 C 7.88 g/m*3 14.6 C 0 km/h
2131 20-05-2010 18:24:02 14.7 C 7.81 g/m*3 14.7 C 0 km/h
2132 20-05-2010 18:36:02 15 C 8.08 g/m*3 15 C 0 km/h
2133 20-05-2010 18:48:02 14.8 C 7.73 g/m*3 14.8 C 0 km/h
2134 20-05-2010 19:00:02 14.7 C 8.06 g/m*3 14.7 C 0 km/h
2135 20-05-2010 19:12:02 14.8 C 8.23 g/m*3 14.8 C 0 km/h
2136 20-05-2010 19:24:03 14.8 C 8.23 g/m*3 14.8 C 0 km/h
2137 20-05-2010 19:36:02 14.9 C 8.28 g/m*3 14.9 C 0 km/h
2138 20-05-2010 19:48:02 14.8 C 8.11 g/m*3 14.8 C 0 km/h
2139 20-05-2010 20:00:02 14.8 C 8.11 g/m*3 14.8 C 0 km/h
2140 20-05-2010 20:12:02 14.7 C 8.06 g/m*3 14.7 C 0 km/h
2141 20-05-2010 20:24:03 14.4 C 7.91 g/m*3 14.4 C 0 km/h
2142 20-05-2010 20:36:02 14.1 C 7.65 g/m*3 14.1 C 0 km/h
2143 20-05-2010 20:48:03 13.8 C 7.86 g/m*3 13.8 C 0 km/h
2144 20-05-2010 21:00:03 13.5 C 7.95 g/m*3 13.5 C 0 km/h
2145 20-05-2010 21:12:02 13.2 C 7.58 g/m*3 13.2 C 0 km/h
2146 20-05-2010 21:24:02 12.8 C 7.5 g/m*3 12.8 C 0 km/h
2147 20-05-2010 21:36:02 12.8 C 7.62 g/m*3 12.8 C 0 km/h
2148 20-05-2010 21:48:02 12.6 C 7.41 g/m*3 12.6 C 0 km/h
2149 20-05-2010 22:00:02 12.5 C 7.37 g/m*3 12.5 C 0 km/h
2150 20-05-2010 22:12:02 12.4 C 7.32 g/m*3 12.4 C 0 km/h
Sensor: Nr:Datum:Temp:Abs-Feuchte:Windchill:Wind:
Aussen-T/F 2151 20-05-2010 22:24:02 12.2 C 7.01 g/m*3 12.2 C 0 km/h
2152 20-05-2010 22:36:02 12.2 C 7.12 g/m*3 12.2 C 0 km/h
2153 20-05-2010 22:49:03 12.2 C 7.23 g/m*3 12.2 C 0 km/h
2154 20-05-2010 23:01:03 12.2 C 7.34 g/m*3 12.2 C 0 km/h
2155 20-05-2010 23:13:03 12.1 C 7.51 g/m*3 12.1 C 0 km/h
2156 20-05-2010 23:25:03 12.1 C 7.61 g/m*3 12.1 C 0 km/h
2157 20-05-2010 23:37:03 11.7 C 7.64 g/m*3 11.7 C 0 km/h
2158 20-05-2010 23:49:03 11.4 C 7.6 g/m*3 11.4 C 0 km/h
2159 21-05-2010 00:01:03 11.1 C 7.45 g/m*3 11.1 C 0 km/h
2160 21-05-2010 00:13:03 10.7 C 7.27 g/m*3 10.7 C 0 km/h
2161 21-05-2010 00:25:03 10.6 C 7.32 g/m*3 10.6 C 0 km/h
2162 21-05-2010 00:37:03 10.5 C 7.27 g/m*3 10.5 C 0 km/h
2163 21-05-2010 00:49:03 10.3 C 7.18 g/m*3 10.3 C 0 km/h
2164 21-05-2010 01:01:03 10.1 C 7.19 g/m*3 10.1 C 0 km/h
2165 21-05-2010 01:13:03 10.1 C 7.28 g/m*3 10.1 C 0 km/h
2166 21-05-2010 01:25:03 10.2 C 7.33 g/m*3 10.2 C 0 km/h
2167 21-05-2010 01:37:03 10.2 C 7.33 g/m*3 10.2 C 0 km/h
2168 21-05-2010 01:49:03 10.1 C 7.38 g/m*3 10.1 C 0 km/h
2169 21-05-2010 02:01:03 10 C 7.33 g/m*3 10 C 0 km/h
2170 21-05-2010 02:13:03 9.7 C 7.28 g/m*3 9.7 C 0 km/h
2171 21-05-2010 02:25:03 9.5 C 7.28 g/m*3 9.5 C 0 km/h
2172 21-05-2010 02:37:03 9.2 C 7.23 g/m*3 9.2 C 0 km/h
2173 21-05-2010 02:49:04 9.1 C 7.19 g/m*3 9.1 C 0 km/h
2174 21-05-2010 03:01:04 9 C 7.23 g/m*3 9 C 0 km/h
2175 21-05-2010 03:13:04 8.8 C 7.31 g/m*3 8.8 C 0 km/h
Sensor: Nr:Datum:Temp:Abs-Feuchte:Windchill:Wind:
Aussen-T/F 2176 21-05-2010 03:25:04 8.6 C 7.22 g/m*3 8.6 C 0 km/h
2177 21-05-2010 03:37:04 8.5 C 7.34 g/m*3 8.5 C 0 km/h
2178 21-05-2010 03:49:04 8.2 C 7.2 g/m*3 8.2 C 0 km/h
2179 21-05-2010 04:01:04 8.1 C 7.16 g/m*3 8.1 C 0 km/h
2180 21-05-2010 04:13:04 8 C 7.11 g/m*3 8 C 0 km/h
2181 21-05-2010 04:25:04 7.9 C 7.15 g/m*3 7.9 C 0 km/h
2182 21-05-2010 04:37:04 7.8 C 7.1 g/m*3 7.8 C 0 km/h
2183 21-05-2010 04:49:04 7.6 C 7.09 g/m*3 7.6 C 0 km/h
2184 21-05-2010 05:01:04 8.1 C 7.32 g/m*3 8.1 C 0 km/h
2185 21-05-2010 05:13:04 8.2 C 7.37 g/m*3 8.2 C 0 km/h
2186 21-05-2010 05:25:04 8.2 C 7.37 g/m*3 8.2 C 0 km/h
2187 21-05-2010 05:37:04 8.1 C 7.32 g/m*3 8.1 C 0 km/h
2188 21-05-2010 05:49:04 7.9 C 7.23 g/m*3 7.9 C 0 km/h
2189 21-05-2010 06:01:04 7.8 C 7.26 g/m*3 7.8 C 0 km/h
2190 21-05-2010 06:13:04 7.9 C 7.39 g/m*3 7.9 C 0 km/h
2191 21-05-2010 06:25:04 8 C 7.36 g/m*3 8 C 0 km/h
2192 21-05-2010 06:37:04 8.2 C 7.45 g/m*3 8.2 C 0 km/h
2193 21-05-2010 06:49:04 8.5 C 7.68 g/m*3 8.5 C 0 km/h
2194 21-05-2010 07:01:02 8.7 C 7.78 g/m*3 8.7 C 0 km/h
2195 21-05-2010 07:13:02 8.6 C 7.65 g/m*3 8.6 C 0 km/h
2196 21-05-2010 07:25:03 8.4 C 7.47 g/m*3 8.4 C 0 km/h
2197 21-05-2010 07:37:02 8.4 C 7.47 g/m*3 8.4 C 0 km/h
2198 21-05-2010 07:49:02 8.5 C 7.51 g/m*3 8.5 C 0 km/h
2199 21-05-2010 08:01:02 8.7 C 7.52 g/m*3 8.7 C 0 km/h
2200 21-05-2010 08:13:02 8.8 C 7.57 g/m*3 8.8 C 0 km/h
Sensor: Nr:Datum:Temp:Abs-Feuchte:Windchill:Wind:
Aussen-T/F 2201 21-05-2010 08:25:02 9.2 C 7.5 g/m*3 9.2 C 0 km/h
2202 21-05-2010 08:37:03 9.6 C 7.6 g/m*3 9.6 C 0 km/h
2203 21-05-2010 08:49:02 9.7 C 7.56 g/m*3 9.7 C 0 km/h
2204 21-05-2010 09:01:01 9.9 C 7.66 g/m*3 9.9 C 0 km/h
2205 21-05-2010 09:13:01 10.2 C 7.71 g/m*3 10.2 C 0 km/h
2206 21-05-2010 09:25:02 10.6 C 7.91 g/m*3 10.6 C 0 km/h
2207 21-05-2010 09:37:02 11.4 C 8.11 g/m*3 11.4 C 0 km/h
2208 21-05-2010 09:49:02 12 C 8.1 g/m*3 12 C 0 km/h
2209 21-05-2010 10:01:03 12.8 C 8.4 g/m*3 12.8 C 0 km/h
2210 21-05-2010 10:13:03 13.6 C 8.47 g/m*3 13.6 C 0 km/h
2211 21-05-2010 10:25:02 14.5 C 8.46 g/m*3 14.5 C 0 km/h
2212 21-05-2010 10:37:03 15.5 C 8.2 g/m*3 15.5 C 0 km/h
2213 21-05-2010 10:49:02 16.5 C 7.72 g/m*3 16.5 C 0 km/h
2214 21-05-2010 11:01:02 17.2 C 7.47 g/m*3 17.2 C 0 km/h
2215 21-05-2010 11:13:02 17.8 C 7.59 g/m*3 17.8 C 0 km/h
2216 21-05-2010 11:25:01 18.6 C 7.48 g/m*3 18.6 C 0 km/h
2217 21-05-2010 11:37:02 19.2 C 7.42 g/m*3 19.2 C 0 km/h
2218 21-05-2010 11:49:02 19.5 C 6.71 g/m*3 19.5 C 0 km/h
2219 21-05-2010 12:01:02 19.2 C 6.27 g/m*3 19.2 C 0 km/h
2220 21-05-2010 12:13:02 20.6 C 6.62 g/m*3 20.6 C 0 km/h
2221 21-05-2010 12:25:02 20.9 C 6.19 g/m*3 20.9 C 0 km/h
2222 21-05-2010 12:37:02 20.8 C 5.61 g/m*3 20.8 C 0 km/h
2223 21-05-2010 12:49:02 21.2 C 5.37 g/m*3 21.2 C 0 km/h
2224 21-05-2010 13:01:02 21.9 C 5.79 g/m*3 21.9 C 0 km/h
2225 21-05-2010 13:13:02 23.7 C 5.35 g/m*3 23.7 C 0 km/h
Sensor: Nr:Datum:Temp:Abs-Feuchte:Windchill:Wind:
Aussen-T/F 2226 21-05-2010 13:25:02 24.8 C 5.01 g/m*3 24.8 C 0 km/h
2227 21-05-2010 13:37:02 25.2 C 4.89 g/m*3 25.2 C 0 km/h
2228 21-05-2010 13:49:02 23.3 C 4.39 g/m*3 23.3 C 0 km/h
2229 21-05-2010 14:01:02 23.1 C 5.17 g/m*3 23.1 C 0 km/h
2230 21-05-2010 14:13:02 23.5 C 5.29 g/m*3 23.5 C 0 km/h
2231 21-05-2010 14:25:02 24.4 C 5.12 g/m*3 24.4 C 0 km/h
2232 21-05-2010 14:37:02 23.8 C 4.95 g/m*3 23.8 C 0 km/h
2233 21-05-2010 14:49:02 24.6 C 5.63 g/m*3 24.6 C 0 km/h
2234 21-05-2010 15:01:02 23.9 C 4.98 g/m*3 23.9 C 0 km/h
2235 21-05-2010 15:13:02 25.2 C 5.12 g/m*3 25.2 C 0 km/h
2236 21-05-2010 15:25:03 25.8 C 5.54 g/m*3 25.8 C 0 km/h
2237 21-05-2010 15:37:02 25.7 C 4.79 g/m*3 25.7 C 0 km/h
2238 21-05-2010 15:49:02 26.5 C 5.26 g/m*3 26.5 C 0 km/h
2239 21-05-2010 16:01:02 26.3 C 4.95 g/m*3 26.3 C 0 km/h
2240 21-05-2010 16:13:02 24.4 C 4.9 g/m*3 24.4 C 0 km/h
2241 21-05-2010 16:25:02 25.3 C 4.92 g/m*3 25.3 C 0 km/h
2242 21-05-2010 16:37:02 25 C 4.83 g/m*3 25 C 0 km/h
2243 21-05-2010 16:49:02 25.4 C 4.71 g/m*3 25.4 C 0 km/h
2244 21-05-2010 17:01:02 26.4 C 4.98 g/m*3 26.4 C 0 km/h
2245 21-05-2010 17:13:02 25.7 C 4.79 g/m*3 25.7 C 0 km/h
2246 21-05-2010 17:25:02 26.1 C 4.9 g/m*3 26.1 C 0 km/h
2247 21-05-2010 17:37:02 26.7 C 5.06 g/m*3 26.7 C 0 km/h
2248 21-05-2010 17:49:02 25.8 C 4.82 g/m*3 25.8 C 0 km/h
2249 21-05-2010 18:01:01 26.4 C 4.98 g/m*3 26.4 C 0 km/h
2250 21-05-2010 18:13:01 27 C 5.15 g/m*3 27 C 0 km/h
Sensor: Nr:Datum:Temp:Abs-Feuchte:Windchill:Wind:
Aussen-T/F 2251 21-05-2010 18:25:02 26.2 C 4.92 g/m*3 26.2 C 0 km/h
2252 21-05-2010 18:37:02 25.3 C 4.92 g/m*3 25.3 C 0 km/h
2253 21-05-2010 18:49:02 24.8 C 5.24 g/m*3 24.8 C 0 km/h
2254 21-05-2010 19:01:01 24.9 C 5.72 g/m*3 24.9 C 0 km/h
2255 21-05-2010 19:13:01 24.6 C 5.63 g/m*3 24.6 C 0 km/h
2256 21-05-2010 19:25:01 24.6 C 5.85 g/m*3 24.6 C 0 km/h
2257 21-05-2010 19:37:02 24.1 C 5.69 g/m*3 24.1 C 0 km/h
2258 21-05-2010 19:49:02 24 C 6.09 g/m*3 24 C 0 km/h
2259 21-05-2010 20:01:02 23.6 C 5.96 g/m*3 23.6 C 0 km/h
2260 21-05-2010 20:13:02 23.3 C 6.27 g/m*3 23.3 C 0 km/h
2261 21-05-2010 20:25:02 22.9 C 6.34 g/m*3 22.9 C 0 km/h
2262 21-05-2010 20:37:02 22.3 C 6.12 g/m*3 22.3 C 0 km/h
2263 21-05-2010 20:49:02 21.2 C 6.49 g/m*3 21.2 C 0 km/h
2264 21-05-2010 21:01:03 20.8 C 6.52 g/m*3 20.8 C 0 km/h
2265 21-05-2010 21:13:03 20.4 C 6.55 g/m*3 20.4 C 0 km/h
2266 21-05-2010 21:25:03 20 C 6.57 g/m*3 20 C 0 km/h
2267 21-05-2010 21:37:03 19.8 C 6.66 g/m*3 19.8 C 0 km/h
2268 21-05-2010 21:49:02 19.4 C 6.67 g/m*3 19.4 C 0 km/h
2269 21-05-2010 22:01:02 18.9 C 6.97 g/m*3 18.9 C 0 km/h
2270 21-05-2010 22:13:02 18.4 C 6.92 g/m*3 18.4 C 0 km/h
2271 21-05-2010 22:25:02 18.2 C 7.15 g/m*3 18.2 C 0 km/h
2272 21-05-2010 22:37:02 17.9 C 7.33 g/m*3 17.9 C 0 km/h
2273 21-05-2010 22:49:02 17 C 7.38 g/m*3 17 C 0 km/h
2274 21-05-2010 23:01:02 17 C 7.23 g/m*3 17 C 0 km/h
2275 21-05-2010 23:13:02 16.4 C 7.12 g/m*3 16.4 C 0 km/h
Sensor: Nr:Datum:Temp:Abs-Feuchte:Windchill:Wind:
Aussen-T/F 2276 21-05-2010 23:25:02 16.2 C 7.17 g/m*3 16.2 C 0 km/h
2277 21-05-2010 23:38:04 15.9 C 7.31 g/m*3 15.9 C 0 km/h
2278 21-05-2010 23:50:04 15.8 C 7.54 g/m*3 15.8 C 0 km/h
2279 22-05-2010 00:02:04 15.6 C 7.58 g/m*3 15.6 C 0 km/h
2280 22-05-2010 00:14:04 15.4 C 7.49 g/m*3 15.4 C 0 km/h
2281 22-05-2010 00:26:04 15.1 C 7.61 g/m*3 15.1 C 0 km/h
2282 22-05-2010 00:38:04 14.8 C 7.73 g/m*3 14.8 C 0 km/h
2283 22-05-2010 00:50:04 14.5 C 7.71 g/m*3 14.5 C 0 km/h
2284 22-05-2010 01:02:04 14.4 C 7.79 g/m*3 14.4 C 0 km/h
2285 22-05-2010 01:14:04 14.1 C 7.77 g/m*3 14.1 C 0 km/h
2286 22-05-2010 01:26:04 13.9 C 7.91 g/m*3 13.9 C 0 km/h
2287 22-05-2010 01:38:04 13.6 C 7.77 g/m*3 13.6 C 0 km/h
2288 22-05-2010 01:50:04 13.4 C 7.9 g/m*3 13.4 C 0 km/h
2289 22-05-2010 02:02:04 13.2 C 7.92 g/m*3 13.2 C 0 km/h
2290 22-05-2010 02:14:04 12.9 C 7.89 g/m*3 12.9 C 0 km/h
2291 22-05-2010 02:26:04 12.7 C 7.9 g/m*3 12.7 C 0 km/h
2292 22-05-2010 02:38:04 12.5 C 7.92 g/m*3 12.5 C 0 km/h
2293 22-05-2010 02:50:04 12.4 C 7.98 g/m*3 12.4 C 0 km/h
2294 22-05-2010 03:02:04 12.3 C 7.93 g/m*3 12.3 C 0 km/h
2295 22-05-2010 03:14:04 12.1 C 7.94 g/m*3 12.1 C 0 km/h
2296 22-05-2010 03:26:04 12 C 7.89 g/m*3 12 C 0 km/h
2297 22-05-2010 03:38:05 11.9 C 7.94 g/m*3 11.9 C 0 km/h
2298 22-05-2010 03:50:05 11.7 C 7.95 g/m*3 11.7 C 0 km/h
2299 22-05-2010 04:02:05 11.5 C 7.95 g/m*3 11.5 C 0 km/h
2300 22-05-2010 04:14:05 11.2 C 7.91 g/m*3 11.2 C 0 km/h
Sensor: Nr:Datum:Temp:Abs-Feuchte:Windchill:Wind:
Aussen-T/F 2301 22-05-2010 04:26:05 11 C 7.81 g/m*3 11 C 0 km/h
2302 22-05-2010 04:38:05 10.9 C 7.96 g/m*3 10.9 C 0 km/h
2303 22-05-2010 04:50:05 10.7 C 7.86 g/m*3 10.7 C 0 km/h
2304 22-05-2010 05:02:05 10.7 C 7.86 g/m*3 10.7 C 0 km/h
2305 22-05-2010 05:14:05 10.3 C 7.76 g/m*3 10.3 C 0 km/h
2306 22-05-2010 05:26:05 10.3 C 7.76 g/m*3 10.3 C 0 km/h
2307 22-05-2010 05:38:05 10.2 C 7.8 g/m*3 10.2 C 0 km/h
2308 22-05-2010 05:50:05 10 C 7.71 g/m*3 10 C 0 km/h
2309 22-05-2010 06:02:05 9.9 C 7.75 g/m*3 9.9 C 0 km/h
2310 22-05-2010 06:14:05 9.9 C 7.75 g/m*3 9.9 C 0 km/h
2311 22-05-2010 06:26:05 9.9 C 7.75 g/m*3 9.9 C 0 km/h
2312 22-05-2010 06:38:05 10.1 C 7.75 g/m*3 10.1 C 0 km/h
2313 22-05-2010 06:50:05 10 C 7.71 g/m*3 10 C 0 km/h
2314 22-05-2010 07:02:05 10.2 C 7.8 g/m*3 10.2 C 0 km/h
2315 22-05-2010 07:14:05 10.2 C 7.8 g/m*3 10.2 C 0 km/h
2316 22-05-2010 07:26:03 10.3 C 7.85 g/m*3 10.3 C 0 km/h
2317 22-05-2010 07:38:03 10.7 C 8.05 g/m*3 10.7 C 0 km/h
2318 22-05-2010 07:50:02 11.3 C 8.36 g/m*3 11.3 C 0 km/h
2319 22-05-2010 08:02:02 11.7 C 8.26 g/m*3 11.7 C 0 km/h
2320 22-05-2010 08:14:02 12 C 8.1 g/m*3 12 C 0 km/h
2321 22-05-2010 08:26:02 12.3 C 8.04 g/m*3 12.3 C 0 km/h
2322 22-05-2010 08:38:03 12.6 C 7.85 g/m*3 12.6 C 0 km/h
2323 22-05-2010 08:50:02 13 C 7.48 g/m*3 13 C 0 km/h
2324 22-05-2010 09:02:02 13.3 C 7.39 g/m*3 13.3 C 0 km/h
2325 22-05-2010 09:14:02 13.7 C 7.46 g/m*3 13.7 C 0 km/h
Sensor: Nr:Datum:Temp:Abs-Feuchte:Windchill:Wind:
Aussen-T/F 2326 22-05-2010 09:26:02 13.9 C 7.55 g/m*3 13.9 C 0 km/h
2327 22-05-2010 09:38:02 14.3 C 7.13 g/m*3 14.3 C 0 km/h
2328 22-05-2010 09:50:02 14.8 C 7.09 g/m*3 14.8 C 0 km/h
2329 22-05-2010 10:02:02 15.3 C 6.4 g/m*3 15.3 C 0 km/h
2330 22-05-2010 10:14:02 15.8 C 6.33 g/m*3 15.8 C 0 km/h
2331 22-05-2010 10:26:02 16 C 6.13 g/m*3 16 C 0 km/h
2332 22-05-2010 10:38:02 16.7 C 6.4 g/m*3 16.7 C 0 km/h
2333 22-05-2010 10:50:01 17 C 6.22 g/m*3 17 C 0 km/h
2334 22-05-2010 11:02:02 17.6 C 6.3 g/m*3 17.6 C 0 km/h
2335 22-05-2010 11:14:02 18 C 6.14 g/m*3 18 C 0 km/h
2336 22-05-2010 11:26:01 18.1 C 6.03 g/m*3 18.1 C 0 km/h
2337 22-05-2010 11:38:02 18.7 C 6.08 g/m*3 18.7 C 0 km/h
2338 22-05-2010 11:50:02 19.1 C 5.9 g/m*3 19.1 C 0 km/h
2339 22-05-2010 12:02:02 19.3 C 5.81 g/m*3 19.3 C 0 km/h
2340 22-05-2010 12:14:02 20.2 C 5.94 g/m*3 20.2 C 0 km/h
2341 22-05-2010 12:26:01 21.8 C 5.95 g/m*3 21.8 C 0 km/h
2342 22-05-2010 12:38:01 21.3 C 5.59 g/m*3 21.3 C 0 km/h
2343 22-05-2010 12:50:01 23.3 C 5.85 g/m*3 23.3 C 0 km/h
2344 22-05-2010 13:02:01 23.7 C 5.78 g/m*3 23.7 C 0 km/h
2345 22-05-2010 13:14:01 24.2 C 5.72 g/m*3 24.2 C 0 km/h
2346 22-05-2010 13:26:01 24.2 C 5.5 g/m*3 24.2 C 0 km/h
2347 22-05-2010 13:38:00 24.7 C 5.43 g/m*3 24.7 C 0 km/h
2348 22-05-2010 13:50:01 24.4 C 5.56 g/m*3 24.4 C 0 km/h
2349 22-05-2010 14:02:01 24 C 5 g/m*3 24 C 0 km/h
2350 22-05-2010 14:14:01 23.6 C 5.74 g/m*3 23.6 C 0 km/h
Sensor: Nr:Datum:Temp:Abs-Feuchte:Windchill:Wind:
Aussen-T/F 2351 22-05-2010 14:26:01 24 C 5.66 g/m*3 24 C 0 km/h
2352 22-05-2010 14:38:01 23.9 C 5.84 g/m*3 23.9 C 0 km/h
2353 22-05-2010 14:50:01 24.3 C 5.75 g/m*3 24.3 C 0 km/h
2354 22-05-2010 15:02:01 24.9 C 5.95 g/m*3 24.9 C 0 km/h
2355 22-05-2010 15:14:01 25.4 C 5.89 g/m*3 25.4 C 0 km/h
2356 22-05-2010 15:26:02 25.6 C 5.95 g/m*3 25.6 C 0 km/h
2357 22-05-2010 15:38:01 25.3 C 6.09 g/m*3 25.3 C 0 km/h
2358 22-05-2010 15:50:03 25.5 C 5.92 g/m*3 25.5 C 0 km/h
2359 22-05-2010 16:02:02 25.7 C 6.22 g/m*3 25.7 C 0 km/h
2360 22-05-2010 16:14:02 25.8 C 6.02 g/m*3 25.8 C 0 km/h
2361 22-05-2010 16:26:03 26.1 C 6.12 g/m*3 26.1 C 0 km/h
2362 22-05-2010 16:38:02 25.6 C 6.19 g/m*3 25.6 C 0 km/h
2363 22-05-2010 16:50:02 26.3 C 6.19 g/m*3 26.3 C 0 km/h
2364 22-05-2010 17:02:01 26.7 C 6.33 g/m*3 26.7 C 0 km/h
2365 22-05-2010 17:14:01 27 C 6.18 g/m*3 27 C 0 km/h
2366 22-05-2010 17:26:02 27.1 C 6.47 g/m*3 27.1 C 0 km/h
2367 22-05-2010 17:38:01 27.2 C 6.51 g/m*3 27.2 C 0 km/h
2368 22-05-2010 17:50:02 26.4 C 6.47 g/m*3 26.4 C 0 km/h
2369 22-05-2010 18:02:02 26.4 C 6.47 g/m*3 26.4 C 0 km/h
2370 22-05-2010 18:14:02 26.9 C 6.65 g/m*3 26.9 C 0 km/h
2371 22-05-2010 18:26:02 26.6 C 6.54 g/m*3 26.6 C 0 km/h
2372 22-05-2010 18:38:03 26.1 C 6.37 g/m*3 26.1 C 0 km/h
2373 22-05-2010 18:50:02 26.8 C 6.62 g/m*3 26.8 C 0 km/h
2374 22-05-2010 19:02:02 26.4 C 6.47 g/m*3 26.4 C 0 km/h
2375 22-05-2010 19:14:02 26.6 C 6.54 g/m*3 26.6 C 0 km/h
Sensor: Nr:Datum:Temp:Abs-Feuchte:Windchill:Wind:
Aussen-T/F 2376 22-05-2010 19:26:02 26.4 C 6.72 g/m*3 26.4 C 0 km/h
2377 22-05-2010 19:38:02 26.2 C 6.65 g/m*3 26.2 C 0 km/h
2378 22-05-2010 19:50:01 25.9 C 7.02 g/m*3 25.9 C 0 km/h
2379 22-05-2010 20:02:02 25.4 C 6.83 g/m*3 25.4 C 0 km/h
2380 22-05-2010 20:14:02 24.9 C 7.1 g/m*3 24.9 C 0 km/h
2381 22-05-2010 20:26:01 24.6 C 7.43 g/m*3 24.6 C 0 km/h
2382 22-05-2010 20:38:02 24.2 C 7.48 g/m*3 24.2 C 0 km/h
2383 22-05-2010 20:50:02 23.3 C 7.32 g/m*3 23.3 C 0 km/h
2384 22-05-2010 21:02:02 22.7 C 7.48 g/m*3 22.7 C 0 km/h
2385 22-05-2010 21:14:02 22 C 7.76 g/m*3 22 C 0 km/h
2386 22-05-2010 21:26:02 21.2 C 7.41 g/m*3 21.2 C 0 km/h
2387 22-05-2010 21:38:02 20.8 C 7.24 g/m*3 20.8 C 0 km/h
2388 22-05-2010 21:50:02 20.3 C 7.03 g/m*3 20.3 C 0 km/h
2389 22-05-2010 22:02:03 19.9 C 7.22 g/m*3 19.9 C 0 km/h
2390 22-05-2010 22:14:03 19.5 C 6.88 g/m*3 19.5 C 0 km/h
2391 22-05-2010 22:26:02 19.4 C 6.84 g/m*3 19.4 C 0 km/h
2392 22-05-2010 22:38:02 19.2 C 7.26 g/m*3 19.2 C 0 km/h
2393 22-05-2010 22:50:02 18.7 C 7.36 g/m*3 18.7 C 0 km/h
2394 22-05-2010 23:02:02 18.4 C 7.39 g/m*3 18.4 C 0 km/h
2395 22-05-2010 23:14:02 18.1 C 7.42 g/m*3 18.1 C 0 km/h
2396 22-05-2010 23:26:01 17.9 C 7.48 g/m*3 17.9 C 0 km/h
2397 22-05-2010 23:38:02 17.6 C 7.5 g/m*3 17.6 C 0 km/h
2398 22-05-2010 23:50:02 17.5 C 7.6 g/m*3 17.5 C 0 km/h
2399 23-05-2010 00:02:02 17.3 C 7.66 g/m*3 17.3 C 0 km/h
2400 23-05-2010 00:14:02 17.1 C 7.71 g/m*3 17.1 C 0 km/h
Sensor: Nr:Datum:Temp:Abs-Feuchte:Windchill:Wind:
Aussen-T/F 2401 23-05-2010 00:26:02 16.6 C 7.91 g/m*3 16.6 C 0 km/h
2402 23-05-2010 00:38:02 16.2 C 7.86 g/m*3 16.2 C 0 km/h
2403 23-05-2010 00:50:01 16 C 8.04 g/m*3 16 C 0 km/h
2404 23-05-2010 01:02:02 15.7 C 8.16 g/m*3 15.7 C 0 km/h
2405 23-05-2010 01:14:02 15.4 C 8.15 g/m*3 15.4 C 0 km/h
2406 23-05-2010 01:26:02 15.2 C 8.18 g/m*3 15.2 C 0 km/h
2407 23-05-2010 01:38:02 14.9 C 8.28 g/m*3 14.9 C 0 km/h
2408 23-05-2010 01:50:02 14.5 C 8.33 g/m*3 14.5 C 0 km/h
2409 23-05-2010 02:02:02 14.4 C 8.41 g/m*3 14.4 C 0 km/h
2410 23-05-2010 02:14:02 14.2 C 8.3 g/m*3 14.2 C 0 km/h
2411 23-05-2010 02:26:02 14.2 C 8.43 g/m*3 14.2 C 0 km/h
2412 23-05-2010 02:38:01 14 C 8.32 g/m*3 14 C 0 km/h
2413 23-05-2010 02:50:02 13.9 C 8.51 g/m*3 13.9 C 0 km/h
2414 23-05-2010 03:02:02 13.8 C 8.46 g/m*3 13.8 C 0 km/h
2415 23-05-2010 03:14:01 13.7 C 8.53 g/m*3 13.7 C 0 km/h
2416 23-05-2010 03:26:01 13.5 C 8.54 g/m*3 13.5 C 0 km/h
2417 23-05-2010 03:38:01 13.2 C 8.5 g/m*3 13.2 C 0 km/h
2418 23-05-2010 03:50:01 12.9 C 8.45 g/m*3 12.9 C 0 km/h
2419 23-05-2010 04:02:02 12.8 C 8.51 g/m*3 12.8 C 0 km/h
2420 23-05-2010 04:14:02 12.7 C 8.46 g/m*3 12.7 C 0 km/h
2421 23-05-2010 04:26:01 12.7 C 8.57 g/m*3 12.7 C 0 km/h
2422 23-05-2010 04:38:02 12.4 C 8.41 g/m*3 12.4 C 0 km/h
2423 23-05-2010 04:50:01 12.3 C 8.47 g/m*3 12.3 C 0 km/h
2424 23-05-2010 05:02:02 12.1 C 8.36 g/m*3 12.1 C 0 km/h
2425 23-05-2010 05:14:02 12 C 8.42 g/m*3 12 C 0 km/h
Sensor: Nr:Datum:Temp:Abs-Feuchte:Windchill:Wind:
Aussen-T/F 2426 23-05-2010 05:26:01 11.9 C 8.37 g/m*3 11.9 C 0 km/h
2427 23-05-2010 05:38:01 11.8 C 8.31 g/m*3 11.8 C 0 km/h
2428 23-05-2010 05:50:01 11.8 C 8.42 g/m*3 11.8 C 0 km/h
2429 23-05-2010 06:02:01 11.6 C 8.32 g/m*3 11.6 C 0 km/h
2430 23-05-2010 06:14:02 11.5 C 8.26 g/m*3 11.5 C 0 km/h
2431 23-05-2010 06:26:01 11.5 C 8.37 g/m*3 11.5 C 0 km/h
2432 23-05-2010 06:38:01 11.5 C 8.37 g/m*3 11.5 C 0 km/h
2433 23-05-2010 06:50:01 11.5 C 8.37 g/m*3 11.5 C 0 km/h
2434 23-05-2010 07:02:01 11.5 C 8.47 g/m*3 11.5 C 0 km/h
2435 23-05-2010 07:14:01 11.8 C 8.63 g/m*3 11.8 C 0 km/h
2436 23-05-2010 07:26:02 11.9 C 8.68 g/m*3 11.9 C 0 km/h
2437 23-05-2010 07:38:01 12.1 C 8.69 g/m*3 12.1 C 0 km/h
2438 23-05-2010 07:50:01 12.4 C 8.85 g/m*3 12.4 C 0 km/h
2439 23-05-2010 08:02:01 12.7 C 8.91 g/m*3 12.7 C 0 km/h
2440 23-05-2010 08:14:01 13.3 C 9.24 g/m*3 13.3 C 0 km/h
2441 23-05-2010 08:26:02 14 C 9.41 g/m*3 14 C 0 km/h
2442 23-05-2010 08:38:01 14.4 C 9.27 g/m*3 14.4 C 0 km/h
2443 23-05-2010 08:50:01 14.8 C 9.37 g/m*3 14.8 C 0 km/h
2444 23-05-2010 09:02:01 15.2 C 9.22 g/m*3 15.2 C 0 km/h
2445 23-05-2010 09:14:01 15.7 C 9.37 g/m*3 15.7 C 0 km/h
2446 23-05-2010 09:26:02 16.1 C 9.32 g/m*3 16.1 C 0 km/h
2447 23-05-2010 09:38:01 16.7 C 9.38 g/m*3 16.7 C 0 km/h
2448 23-05-2010 09:50:02 17.2 C 9.08 g/m*3 17.2 C 0 km/h
2449 23-05-2010 10:02:01 17.8 C 9.41 g/m*3 17.8 C 0 km/h
2450 23-05-2010 10:14:01 18.7 C 9.45 g/m*3 18.7 C 0 km/h
Sensor: Nr:Datum:Temp:Abs-Feuchte:Windchill:Wind:
Aussen-T/F 2451 23-05-2010 10:26:01 19.2 C 9.4 g/m*3 19.2 C 0 km/h
2452 23-05-2010 10:38:01 20 C 9.16 g/m*3 20 C 0 km/h
2453 23-05-2010 10:50:01 20.3 C 9.15 g/m*3 20.3 C 0 km/h
2454 23-05-2010 11:02:01 20.5 C 8.9 g/m*3 20.5 C 0 km/h
2455 23-05-2010 11:14:02 21.2 C 8.9 g/m*3 21.2 C 0 km/h
2456 23-05-2010 11:26:01 20.4 C 8.49 g/m*3 20.4 C 0 km/h
2457 23-05-2010 11:38:02 20.9 C 8.74 g/m*3 20.9 C 0 km/h
2458 23-05-2010 11:50:02 21.5 C 8.11 g/m*3 21.5 C 0 km/h
2459 23-05-2010 12:02:01 22.1 C 8 g/m*3 22.1 C 0 km/h
2460 23-05-2010 12:14:01 23.1 C 7.65 g/m*3 23.1 C 0 km/h
2461 23-05-2010 12:26:01 23.7 C 6.84 g/m*3 23.7 C 0 km/h
2462 23-05-2010 12:38:02 24.6 C 6.75 g/m*3 24.6 C 0 km/h
2463 23-05-2010 12:50:01 24.7 C 5.66 g/m*3 24.7 C 0 km/h
2464 23-05-2010 13:02:01 25.1 C 4.86 g/m*3 25.1 C 0 km/h
2465 23-05-2010 13:14:01 25.8 C 4.82 g/m*3 25.8 C 0 km/h
2466 23-05-2010 13:26:01 27.2 C 5.2 g/m*3 27.2 C 0 km/h
2467 23-05-2010 13:38:02 26.9 C 5.37 g/m*3 26.9 C 0 km/h
2468 23-05-2010 13:50:01 26.8 C 5.09 g/m*3 26.8 C 0 km/h
2469 23-05-2010 14:02:02 26.2 C 4.92 g/m*3 26.2 C 0 km/h
2470 23-05-2010 14:14:02 25.5 C 5.45 g/m*3 25.5 C 0 km/h
2471 23-05-2010 14:26:01 25.6 C 5.48 g/m*3 25.6 C 0 km/h
2472 23-05-2010 14:38:01 25.8 C 6.02 g/m*3 25.8 C 0 km/h
2473 23-05-2010 14:50:01 27.4 C 6.31 g/m*3 27.4 C 0 km/h
2474 23-05-2010 15:02:02 27.7 C 5.88 g/m*3 27.7 C 0 km/h
2475 23-05-2010 15:14:02 27.2 C 5.99 g/m*3 27.2 C 0 km/h
Sensor: Nr:Datum:Temp:Abs-Feuchte:Windchill:Wind:
Aussen-T/F 2476 23-05-2010 15:26:01 27.9 C 5.68 g/m*3 27.9 C 0 km/h
2477 23-05-2010 15:38:01 28.2 C 5.77 g/m*3 28.2 C 0 km/h
2478 23-05-2010 15:50:01 28.4 C 5.56 g/m*3 28.4 C 0 km/h
2479 23-05-2010 16:02:01 28.2 C 5.5 g/m*3 28.2 C 0 km/h
2480 23-05-2010 16:14:01 28.6 C 5.62 g/m*3 28.6 C 0 km/h
2481 23-05-2010 16:26:01 29 C 5.74 g/m*3 29 C 0 km/h
2482 23-05-2010 16:38:01 28.9 C 5.71 g/m*3 28.9 C 0 km/h
2483 23-05-2010 16:50:01 29 C 5.74 g/m*3 29 C 0 km/h
2484 23-05-2010 17:02:01 30.2 C 6.13 g/m*3 30.2 C 0 km/h
2485 23-05-2010 17:14:01 30.1 C 6.1 g/m*3 30.1 C 0 km/h
2486 23-05-2010 17:26:01 29.5 C 5.9 g/m*3 29.5 C 0 km/h
2487 23-05-2010 17:38:01 29.2 C 6.1 g/m*3 29.2 C 0 km/h
2488 23-05-2010 17:50:01 29.2 C 6.1 g/m*3 29.2 C 0 km/h
2489 23-05-2010 18:02:01 28.8 C 6.53 g/m*3 28.8 C 0 km/h
2490 23-05-2010 18:14:01 29.5 C 6.49 g/m*3 29.5 C 0 km/h
2491 23-05-2010 18:26:02 28.6 C 6.74 g/m*3 28.6 C 0 km/h
2492 23-05-2010 18:38:01 28.4 C 6.39 g/m*3 28.4 C 0 km/h
2493 23-05-2010 18:50:02 28.8 C 6.82 g/m*3 28.8 C 0 km/h
2494 23-05-2010 19:02:01 29.8 C 6.6 g/m*3 29.8 C 0 km/h
2495 23-05-2010 19:14:01 27.9 C 6.49 g/m*3 27.9 C 0 km/h
2496 23-05-2010 19:26:02 28.1 C 6.84 g/m*3 28.1 C 0 km/h
2497 23-05-2010 19:38:01 27.4 C 6.84 g/m*3 27.4 C 0 km/h
2498 23-05-2010 19:50:02 27.4 C 7.1 g/m*3 27.4 C 0 km/h
2499 23-05-2010 20:02:01 27.1 C 7.25 g/m*3 27.1 C 0 km/h
2500 23-05-2010 20:14:01 26.4 C 7.47 g/m*3 26.4 C 0 km/h
Sensor: Nr:Datum:Temp:Abs-Feuchte:Windchill:Wind:
Aussen-T/F 2501 23-05-2010 20:26:01 27.2 C 7.29 g/m*3 27.2 C 0 km/h
2502 23-05-2010 20:38:01 26.3 C 7.43 g/m*3 26.3 C 0 km/h
2503 23-05-2010 20:50:01 25.4 C 7.3 g/m*3 25.4 C 0 km/h
2504 23-05-2010 21:02:01 24.5 C 7.83 g/m*3 24.5 C 0 km/h
2505 23-05-2010 21:14:01 24.1 C 7.66 g/m*3 24.1 C 0 km/h
2506 23-05-2010 21:26:01 23.4 C 7.57 g/m*3 23.4 C 0 km/h
2507 23-05-2010 21:38:02 23.1 C 7.86 g/m*3 23.1 C 0 km/h
2508 23-05-2010 21:50:01 22.6 C 8.04 g/m*3 22.6 C 0 km/h
2509 23-05-2010 22:02:02 22.2 C 8.05 g/m*3 22.2 C 0 km/h
2510 23-05-2010 22:14:02 21.7 C 8.39 g/m*3 21.7 C 0 km/h
2511 23-05-2010 22:26:01 21.3 C 8.57 g/m*3 21.3 C 0 km/h
2512 23-05-2010 22:38:02 20.9 C 8.56 g/m*3 20.9 C 0 km/h
2513 23-05-2010 22:51:05 20.7 C 8.82 g/m*3 20.7 C 0 km/h
2514 23-05-2010 23:03:05 20.4 C 8.85 g/m*3 20.4 C 0 km/h
2515 23-05-2010 23:15:05 20 C 8.81 g/m*3 20 C 0 km/h
2516 23-05-2010 23:27:05 19.6 C 8.95 g/m*3 19.6 C 0 km/h
2517 23-05-2010 23:39:05 19.2 C 8.9 g/m*3 19.2 C 0 km/h
2518 23-05-2010 23:51:05 18.8 C 9.18 g/m*3 18.8 C 0 km/h
2519 24-05-2010 00:03:05 18.4 C 9.12 g/m*3 18.4 C 0 km/h
2520 24-05-2010 00:15:05 18 C 9.06 g/m*3 18 C 0 km/h
2521 24-05-2010 00:27:05 17.9 C 9.16 g/m*3 17.9 C 0 km/h
2522 24-05-2010 00:39:05 17.6 C 9.3 g/m*3 17.6 C 0 km/h
2523 24-05-2010 00:51:05 17.3 C 9.28 g/m*3 17.3 C 0 km/h
2524 24-05-2010 01:03:05 17.2 C 9.23 g/m*3 17.2 C 0 km/h
2525 24-05-2010 01:15:05 16.8 C 9.44 g/m*3 16.8 C 0 km/h
Sensor: Nr:Datum:Temp:Abs-Feuchte:Windchill:Wind:
Aussen-T/F 2526 24-05-2010 01:27:05 16.6 C 9.46 g/m*3 16.6 C 0 km/h
2527 24-05-2010 01:39:05 16.3 C 9.43 g/m*3 16.3 C 0 km/h
2528 24-05-2010 01:51:05 16 C 9.4 g/m*3 16 C 0 km/h
2529 24-05-2010 02:03:05 15.8 C 9.56 g/m*3 15.8 C 0 km/h
2530 24-05-2010 02:15:05 15.6 C 9.44 g/m*3 15.6 C 0 km/h
2531 24-05-2010 02:27:05 15.5 C 9.52 g/m*3 15.5 C 0 km/h
2532 24-05-2010 02:39:05 15.3 C 9.4 g/m*3 15.3 C 0 km/h
2533 24-05-2010 02:51:05 15.1 C 9.29 g/m*3 15.1 C 0 km/h
2534 24-05-2010 03:03:06 14.9 C 9.43 g/m*3 14.9 C 0 km/h
2535 24-05-2010 03:15:06 14.6 C 9.26 g/m*3 14.6 C 0 km/h
2536 24-05-2010 03:27:06 14.4 C 9.27 g/m*3 14.4 C 0 km/h
2537 24-05-2010 03:39:06 14.4 C 9.27 g/m*3 14.4 C 0 km/h
2538 24-05-2010 03:51:06 14.2 C 9.28 g/m*3 14.2 C 0 km/h
2539 24-05-2010 04:03:06 14 C 9.17 g/m*3 14 C 0 km/h
2540 24-05-2010 04:15:06 13.8 C 9.29 g/m*3 13.8 C 0 km/h
2541 24-05-2010 04:27:06 13.8 C 9.17 g/m*3 13.8 C 0 km/h
2542 24-05-2010 04:39:06 13.8 C 9.17 g/m*3 13.8 C 0 km/h
2543 24-05-2010 04:51:06 13.7 C 9.12 g/m*3 13.7 C 0 km/h
2544 24-05-2010 05:03:06 13.5 C 9.01 g/m*3 13.5 C 0 km/h
2545 24-05-2010 05:15:06 13.3 C 8.9 g/m*3 13.3 C 0 km/h
2546 24-05-2010 05:27:06 13 C 8.73 g/m*3 13 C 0 km/h
2547 24-05-2010 05:39:06 13 C 8.85 g/m*3 13 C 0 km/h
2548 24-05-2010 05:51:06 12.8 C 8.85 g/m*3 12.8 C 0 km/h
2549 24-05-2010 06:03:06 12.9 C 9.02 g/m*3 12.9 C 0 km/h
2550 24-05-2010 06:15:06 12.7 C 8.79 g/m*3 12.7 C 0 km/h
Sensor: Nr:Datum:Temp:Abs-Feuchte:Windchill:Wind:
Aussen-T/F 2551 24-05-2010 06:27:06 12.5 C 8.8 g/m*3 12.5 C 0 km/h
2552 24-05-2010 06:39:06 12.6 C 8.96 g/m*3 12.6 C 0 km/h
2553 24-05-2010 06:51:06 13 C 9.19 g/m*3 13 C 0 km/h
2554 24-05-2010 07:03:06 13.2 C 9.19 g/m*3 13.2 C 0 km/h
2555 24-05-2010 07:15:07 13.4 C 9.18 g/m*3 13.4 C 0 km/h
2556 24-05-2010 07:27:07 13.7 C 9.35 g/m*3 13.7 C 0 km/h
2557 24-05-2010 07:39:07 13.8 C 9.29 g/m*3 13.8 C 0 km/h
2558 24-05-2010 07:51:07 13.9 C 9.23 g/m*3 13.9 C 0 km/h
2559 24-05-2010 08:03:07 14.2 C 9.28 g/m*3 14.2 C 0 km/h
2560 24-05-2010 08:15:07 14.5 C 9.45 g/m*3 14.5 C 0 km/h
2561 24-05-2010 08:27:07 14.8 C 9.5 g/m*3 14.8 C 0 km/h
2562 24-05-2010 08:39:05 15.2 C 9.61 g/m*3 15.2 C 0 km/h
2563 24-05-2010 08:51:02 15.7 C 9.77 g/m*3 15.7 C 0 km/h
2564 24-05-2010 09:03:02 16.3 C 9.71 g/m*3 16.3 C 0 km/h
2565 24-05-2010 09:15:02 17 C 9.84 g/m*3 17 C 0 km/h
2566 24-05-2010 09:27:02 17.5 C 9.84 g/m*3 17.5 C 0 km/h
2567 24-05-2010 09:39:02 18.3 C 9.85 g/m*3 18.3 C 0 km/h
2568 24-05-2010 09:51:02 19 C 9.61 g/m*3 19 C 0 km/h
2569 24-05-2010 10:03:02 19.7 C 9.85 g/m*3 19.7 C 0 km/h
2570 24-05-2010 10:15:02 20.4 C 9.55 g/m*3 20.4 C 0 km/h
2571 24-05-2010 10:27:02 21.3 C 9.69 g/m*3 21.3 C 0 km/h
2572 24-05-2010 10:39:02 21.7 C 9.16 g/m*3 21.7 C 0 km/h
2573 24-05-2010 10:51:02 22.4 C 9.14 g/m*3 22.4 C 0 km/h
2574 24-05-2010 11:03:02 22.9 C 9.2 g/m*3 22.9 C 0 km/h
2575 24-05-2010 11:15:01 23.3 C 8.57 g/m*3 23.3 C 0 km/h
Sensor: Nr:Datum:Temp:Abs-Feuchte:Windchill:Wind:
Aussen-T/F 2576 24-05-2010 11:27:01 23.8 C 8.82 g/m*3 23.8 C 0 km/h
2577 24-05-2010 11:39:02 24.2 C 8.58 g/m*3 24.2 C 0 km/h
2578 24-05-2010 11:51:02 24.9 C 8.7 g/m*3 24.9 C 0 km/h
2579 24-05-2010 12:03:02 25.7 C 8.38 g/m*3 25.7 C 0 km/h
2580 24-05-2010 12:15:02 25.4 C 7.3 g/m*3 25.4 C 0 km/h
2581 24-05-2010 12:27:02 25.8 C 7.22 g/m*3 25.8 C 0 km/h
2582 24-05-2010 12:39:02 26.6 C 6.29 g/m*3 26.6 C 0 km/h
2583 24-05-2010 12:51:02 27.4 C 6.84 g/m*3 27.4 C 0 km/h
2584 24-05-2010 13:03:02 26.9 C 6.4 g/m*3 26.9 C 0 km/h
2585 24-05-2010 13:15:02 27 C 6.43 g/m*3 27 C 0 km/h
2586 24-05-2010 13:27:02 27.1 C 6.73 g/m*3 27.1 C 0 km/h
2587 24-05-2010 13:39:02 27 C 6.43 g/m*3 27 C 0 km/h
2588 24-05-2010 13:51:02 26.5 C 6.51 g/m*3 26.5 C 0 km/h
2589 24-05-2010 14:03:02 27 C 6.43 g/m*3 27 C 0 km/h
2590 24-05-2010 14:15:02 27.2 C 6.51 g/m*3 27.2 C 0 km/h
2591 24-05-2010 14:27:02 28.4 C 6.67 g/m*3 28.4 C 0 km/h
2592 24-05-2010 14:39:02 28.8 C 5.97 g/m*3 28.8 C 0 km/h
2593 24-05-2010 14:51:01 30 C 6.37 g/m*3 30 C 0 km/h
2594 24-05-2010 15:03:02 29.1 C 6.06 g/m*3 29.1 C 0 km/h
2595 24-05-2010 15:15:02 28.1 C 6.29 g/m*3 28.1 C 0 km/h
2596 24-05-2010 15:27:02 27.6 C 6.65 g/m*3 27.6 C 0 km/h
2597 24-05-2010 15:39:02 28.3 C 6.36 g/m*3 28.3 C 0 km/h
2598 24-05-2010 15:51:02 27.8 C 6.72 g/m*3 27.8 C 0 km/h
2599 24-05-2010 16:03:02 27.3 C 6.8 g/m*3 27.3 C 0 km/h
2600 24-05-2010 16:15:02 27.3 C 6.54 g/m*3 27.3 C 0 km/h
Sensor: Nr:Datum:Temp:Abs-Feuchte:Windchill:Wind:
Aussen-T/F 2601 24-05-2010 16:27:02 27.3 C 6.54 g/m*3 27.3 C 0 km/h
2602 24-05-2010 16:39:01 27.7 C 6.42 g/m*3 27.7 C 0 km/h
2603 24-05-2010 16:51:02 28.5 C 6.15 g/m*3 28.5 C 0 km/h
2604 24-05-2010 17:03:01 28.5 C 6.15 g/m*3 28.5 C 0 km/h
2605 24-05-2010 17:15:02 28.1 C 5.47 g/m*3 28.1 C 0 km/h
2606 24-05-2010 17:27:02 27.9 C 5.41 g/m*3 27.9 C 0 km/h
2607 24-05-2010 17:39:01 27.9 C 5.68 g/m*3 27.9 C 0 km/h
2608 24-05-2010 17:51:03 28.6 C 5.62 g/m*3 28.6 C 0 km/h
2609 24-05-2010 18:03:02 27.8 C 5.65 g/m*3 27.8 C 0 km/h
2610 24-05-2010 18:15:02 28 C 5.44 g/m*3 28 C 0 km/h
2611 24-05-2010 18:27:03 29.2 C 5.81 g/m*3 29.2 C 0 km/h
2612 24-05-2010 18:39:02 28.8 C 5.68 g/m*3 28.8 C 0 km/h
2613 24-05-2010 18:51:02 29.1 C 5.78 g/m*3 29.1 C 0 km/h
2614 24-05-2010 19:03:02 29.2 C 5.81 g/m*3 29.2 C 0 km/h
2615 24-05-2010 19:15:02 28.4 C 5.56 g/m*3 28.4 C 0 km/h
2616 24-05-2010 19:27:02 28.4 C 5.84 g/m*3 28.4 C 0 km/h
2617 24-05-2010 19:39:02 27.9 C 5.68 g/m*3 27.9 C 0 km/h
2618 24-05-2010 19:51:02 27.9 C 5.95 g/m*3 27.9 C 0 km/h
2619 24-05-2010 20:03:01 27.5 C 6.35 g/m*3 27.5 C 0 km/h
2620 24-05-2010 20:15:02 27.4 C 6.58 g/m*3 27.4 C 0 km/h
2621 24-05-2010 20:27:02 27.2 C 6.51 g/m*3 27.2 C 0 km/h
2622 24-05-2010 20:39:01 25.8 C 6.5 g/m*3 25.8 C 0 km/h
2623 24-05-2010 20:51:02 25.3 C 7.02 g/m*3 25.3 C 0 km/h
2624 24-05-2010 21:03:01 24.7 C 7.02 g/m*3 24.7 C 0 km/h
2625 24-05-2010 21:15:02 24.1 C 7 g/m*3 24.1 C 0 km/h
Sensor: Nr:Datum:Temp:Abs-Feuchte:Windchill:Wind:
Aussen-T/F 2626 24-05-2010 21:27:02 23.7 C 7.49 g/m*3 23.7 C 0 km/h
2627 24-05-2010 21:39:01 23.3 C 7.32 g/m*3 23.3 C 0 km/h
2628 24-05-2010 21:51:02 23.1 C 7.23 g/m*3 23.1 C 0 km/h
2629 24-05-2010 22:03:03 22.7 C 7.48 g/m*3 22.7 C 0 km/h
2630 24-05-2010 22:15:02 22.3 C 7.7 g/m*3 22.3 C 0 km/h
2631 24-05-2010 22:27:02 21.9 C 7.91 g/m*3 21.9 C 0 km/h
2632 24-05-2010 22:39:02 21.5 C 8.11 g/m*3 21.5 C 0 km/h
2633 24-05-2010 22:52:03 20.9 C 8.38 g/m*3 20.9 C 0 km/h
2634 24-05-2010 23:04:03 20.5 C 8.36 g/m*3 20.5 C 0 km/h
2635 24-05-2010 23:16:03 20.2 C 8.22 g/m*3 20.2 C 0 km/h
2636 24-05-2010 23:28:03 19.7 C 8.32 g/m*3 19.7 C 0 km/h
2637 24-05-2010 23:40:03 19.6 C 8.27 g/m*3 19.6 C 0 km/h
2638 24-05-2010 23:52:03 19.3 C 8.29 g/m*3 19.3 C 0 km/h
2639 25-05-2010 00:04:03 19.1 C 8.36 g/m*3 19.1 C 0 km/h
2640 25-05-2010 00:16:04 18.7 C 8.49 g/m*3 18.7 C 0 km/h
2641 25-05-2010 00:28:04 18.5 C 8.54 g/m*3 18.5 C 0 km/h
2642 25-05-2010 00:40:04 18.2 C 8.55 g/m*3 18.2 C 0 km/h
2643 25-05-2010 00:52:04 18 C 8.75 g/m*3 18 C 0 km/h
2644 25-05-2010 01:04:04 17.8 C 8.8 g/m*3 17.8 C 0 km/h
2645 25-05-2010 01:16:04 17.5 C 8.8 g/m*3 17.5 C 0 km/h
2646 25-05-2010 01:28:04 17.2 C 8.79 g/m*3 17.2 C 0 km/h
2647 25-05-2010 01:40:04 16.8 C 9.01 g/m*3 16.8 C 0 km/h
2648 25-05-2010 01:52:04 16.6 C 8.9 g/m*3 16.6 C 0 km/h
2649 25-05-2010 02:04:04 16.2 C 8.96 g/m*3 16.2 C 0 km/h
2650 25-05-2010 02:16:04 16.1 C 8.91 g/m*3 16.1 C 0 km/h
Sensor: Nr:Datum:Temp:Abs-Feuchte:Windchill:Wind:
Aussen-T/F 2651 25-05-2010 02:28:04 16 C 8.86 g/m*3 16 C 0 km/h
2652 25-05-2010 02:40:04 15.9 C 8.94 g/m*3 15.9 C 0 km/h
2653 25-05-2010 02:52:04 15.8 C 9.02 g/m*3 15.8 C 0 km/h
2654 25-05-2010 03:04:04 15.5 C 8.99 g/m*3 15.5 C 0 km/h
2655 25-05-2010 03:16:04 15.2 C 9.09 g/m*3 15.2 C 0 km/h
2656 25-05-2010 03:28:04 14.8 C 9.12 g/m*3 14.8 C 0 km/h
2657 25-05-2010 03:40:04 14.7 C 9.19 g/m*3 14.7 C 0 km/h
2658 25-05-2010 03:52:04 14.6 C 9.13 g/m*3 14.6 C 0 km/h
2659 25-05-2010 04:04:04 14.6 C 9.13 g/m*3 14.6 C 0 km/h
2660 25-05-2010 04:16:04 14.5 C 9.2 g/m*3 14.5 C 0 km/h
2661 25-05-2010 04:28:04 14.1 C 9.1 g/m*3 14.1 C 0 km/h
2662 25-05-2010 04:40:05 13.8 C 9.17 g/m*3 13.8 C 0 km/h
2663 25-05-2010 04:52:05 13.9 C 9.23 g/m*3 13.9 C 0 km/h
2664 25-05-2010 05:04:05 14.1 C 9.22 g/m*3 14.1 C 0 km/h
2665 25-05-2010 05:16:05 14 C 9.05 g/m*3 14 C 0 km/h
2666 25-05-2010 05:28:05 13.8 C 9.06 g/m*3 13.8 C 0 km/h
2667 25-05-2010 05:40:05 13.8 C 9.17 g/m*3 13.8 C 0 km/h
2668 25-05-2010 05:52:05 13.8 C 9.06 g/m*3 13.8 C 0 km/h
2669 25-05-2010 06:04:05 14 C 9.17 g/m*3 14 C 0 km/h
2670 25-05-2010 06:16:05 14.1 C 9.1 g/m*3 14.1 C 0 km/h
2671 25-05-2010 06:28:05 14.5 C 9.33 g/m*3 14.5 C 0 km/h
2672 25-05-2010 06:40:05 15 C 9.23 g/m*3 15 C 0 km/h
2673 25-05-2010 06:52:05 15.3 C 9.27 g/m*3 15.3 C 0 km/h
2674 25-05-2010 07:04:05 15.4 C 9.2 g/m*3 15.4 C 0 km/h
2675 25-05-2010 07:16:05 15.5 C 8.99 g/m*3 15.5 C 0 km/h
Sensor: Nr:Datum:Temp:Abs-Feuchte:Windchill:Wind:
Aussen-T/F 2676 25-05-2010 07:28:06 15.6 C 9.18 g/m*3 15.6 C 0 km/h
2677 25-05-2010 07:40:06 15.6 C 9.04 g/m*3 15.6 C 0 km/h
2678 25-05-2010 07:52:06 15.9 C 9.21 g/m*3 15.9 C 0 km/h
2679 25-05-2010 08:04:06 16.1 C 9.18 g/m*3 16.1 C 0 km/h
2680 25-05-2010 08:16:06 16.2 C 9.1 g/m*3 16.2 C 0 km/h
2681 25-05-2010 08:28:06 16.5 C 8.99 g/m*3 16.5 C 0 km/h
2682 25-05-2010 08:40:03 17.2 C 9.23 g/m*3 17.2 C 0 km/h
2683 25-05-2010 08:52:01 17.9 C 9.16 g/m*3 17.9 C 0 km/h
2684 25-05-2010 09:04:02 18.1 C 8.81 g/m*3 18.1 C 0 km/h
2685 25-05-2010 09:16:01 18.2 C 8.39 g/m*3 18.2 C 0 km/h
2686 25-05-2010 09:28:01 18.5 C 8.23 g/m*3 18.5 C 0 km/h
2687 25-05-2010 09:40:02 18.9 C 7.45 g/m*3 18.9 C 0 km/h
2688 25-05-2010 09:52:02 19.4 C 7.17 g/m*3 19.4 C 0 km/h
2689 25-05-2010 10:04:02 19.8 C 7 g/m*3 19.8 C 0 km/h
2690 25-05-2010 10:16:01 20.2 C 6.99 g/m*3 20.2 C 0 km/h
2691 25-05-2010 10:28:01 20.9 C 6.92 g/m*3 20.9 C 0 km/h
2692 25-05-2010 10:40:02 21.2 C 6.67 g/m*3 21.2 C 0 km/h
2693 25-05-2010 10:52:02 21 C 6.59 g/m*3 21 C 0 km/h
2694 25-05-2010 11:04:02 21.2 C 6.49 g/m*3 21.2 C 0 km/h
2695 25-05-2010 11:16:02 21.2 C 7.04 g/m*3 21.2 C 0 km/h
2696 25-05-2010 11:28:02 21.2 C 6.3 g/m*3 21.2 C 0 km/h
2697 25-05-2010 11:40:02 21.8 C 6.33 g/m*3 21.8 C 0 km/h
2698 25-05-2010 11:52:02 22.8 C 6.1 g/m*3 22.8 C 0 km/h
2699 25-05-2010 12:04:01 22.6 C 5.42 g/m*3 22.6 C 0 km/h
2700 25-05-2010 12:16:01 23.7 C 5.78 g/m*3 23.7 C 0 km/h
Sensor: Nr:Datum:Temp:Abs-Feuchte:Windchill:Wind:
Aussen-T/F 2701 25-05-2010 12:28:01 23.5 C 5.71 g/m*3 23.5 C 0 km/h
2702 25-05-2010 12:40:02 24 C 5.44 g/m*3 24 C 0 km/h
2703 25-05-2010 12:52:02 25.9 C 6.05 g/m*3 25.9 C 0 km/h
2704 25-05-2010 13:04:01 25.5 C 5.21 g/m*3 25.5 C 0 km/h
2705 25-05-2010 13:16:02 26.2 C 5.42 g/m*3 26.2 C 0 km/h
2706 25-05-2010 13:28:02 27.3 C 5.23 g/m*3 27.3 C 0 km/h
2707 25-05-2010 13:40:01 27.8 C 5.38 g/m*3 27.8 C 0 km/h
2708 25-05-2010 13:52:02 26.8 C 5.35 g/m*3 26.8 C 0 km/h
2709 25-05-2010 14:04:01 25.3 C 5.15 g/m*3 25.3 C 0 km/h
2710 25-05-2010 14:16:02 26.1 C 5.63 g/m*3 26.1 C 0 km/h
2711 25-05-2010 14:28:03 26.5 C 5.76 g/m*3 26.5 C 0 km/h
2712 25-05-2010 14:40:01 26.7 C 5.82 g/m*3 26.7 C 0 km/h
2713 25-05-2010 14:52:02 27 C 5.4 g/m*3 27 C 0 km/h
2714 25-05-2010 15:04:02 27.4 C 6.05 g/m*3 27.4 C 0 km/h
2715 25-05-2010 15:16:02 26.3 C 5.69 g/m*3 26.3 C 0 km/h
2716 25-05-2010 15:28:02 26.6 C 5.79 g/m*3 26.6 C 0 km/h
2717 25-05-2010 15:40:02 26.5 C 5.51 g/m*3 26.5 C 0 km/h
2718 25-05-2010 15:52:02 27.7 C 5.62 g/m*3 27.7 C 0 km/h
2719 25-05-2010 16:04:02 28.1 C 5.47 g/m*3 28.1 C 0 km/h
2720 25-05-2010 16:16:01 27.6 C 5.85 g/m*3 27.6 C 0 km/h
2721 25-05-2010 16:28:01 27.9 C 5.95 g/m*3 27.9 C 0 km/h
2722 25-05-2010 16:40:02 27.9 C 6.22 g/m*3 27.9 C 0 km/h
2723 25-05-2010 16:52:02 28.1 C 5.74 g/m*3 28.1 C 0 km/h
2724 25-05-2010 17:04:02 28.7 C 6.22 g/m*3 28.7 C 0 km/h
2725 25-05-2010 17:16:02 27.5 C 5.82 g/m*3 27.5 C 0 km/h
Sensor: Nr:Datum:Temp:Abs-Feuchte:Windchill:Wind:
Aussen-T/F 2726 25-05-2010 17:28:02 28.6 C 5.9 g/m*3 28.6 C 0 km/h
2727 25-05-2010 17:40:02 28.1 C 6.02 g/m*3 28.1 C 0 km/h
2728 25-05-2010 17:52:02 27.4 C 6.05 g/m*3 27.4 C 0 km/h
2729 25-05-2010 18:04:02 27.2 C 5.99 g/m*3 27.2 C 0 km/h
2730 25-05-2010 18:16:02 26 C 5.36 g/m*3 26 C 0 km/h
2731 25-05-2010 18:28:02 27 C 5.66 g/m*3 27 C 0 km/h
2732 25-05-2010 18:40:02 25.8 C 5.78 g/m*3 25.8 C 0 km/h
2733 25-05-2010 18:52:02 25.6 C 5.71 g/m*3 25.6 C 0 km/h
2734 25-05-2010 19:04:02 25.2 C 5.82 g/m*3 25.2 C 0 km/h
2735 25-05-2010 19:16:02 25.2 C 5.82 g/m*3 25.2 C 0 km/h
2736 25-05-2010 19:28:02 24 C 5.87 g/m*3 24 C 0 km/h
2737 25-05-2010 19:40:02 24.2 C 5.94 g/m*3 24.2 C 0 km/h
2738 25-05-2010 19:52:02 23.7 C 6.2 g/m*3 23.7 C 0 km/h
2739 25-05-2010 20:04:02 23.5 C 6.13 g/m*3 23.5 C 0 km/h
2740 25-05-2010 20:16:03 23.2 C 6.24 g/m*3 23.2 C 0 km/h
2741 25-05-2010 20:28:03 22.8 C 6.3 g/m*3 22.8 C 0 km/h
2742 25-05-2010 20:40:02 22.5 C 6.19 g/m*3 22.5 C 0 km/h
2743 25-05-2010 20:52:02 22.2 C 6.28 g/m*3 22.2 C 0 km/h
2744 25-05-2010 21:04:02 22 C 6.4 g/m*3 22 C 0 km/h
2745 25-05-2010 21:16:02 21.7 C 6.87 g/m*3 21.7 C 0 km/h
2746 25-05-2010 21:28:02 21.2 C 7.04 g/m*3 21.2 C 0 km/h
2747 25-05-2010 21:40:02 20.7 C 7.2 g/m*3 20.7 C 0 km/h
2748 25-05-2010 21:52:02 20.3 C 6.86 g/m*3 20.3 C 0 km/h
2749 25-05-2010 22:04:02 19.7 C 6.79 g/m*3 19.7 C 0 km/h
2750 25-05-2010 22:16:02 19.5 C 6.88 g/m*3 19.5 C 0 km/h
Sensor: Nr:Datum:Temp:Abs-Feuchte:Windchill:Wind:
Aussen-T/F 2751 25-05-2010 22:28:02 19.3 C 6.97 g/m*3 19.3 C 0 km/h
2752 25-05-2010 22:41:48 19.4 C 7.01 g/m*3 19.4 C 0 km/h
2753 25-05-2010 22:53:48 19.3 C 6.8 g/m*3 19.3 C 0 km/h
2754 25-05-2010 23:05:48 19.1 C 6.56 g/m*3 19.1 C 0 km/h
2755 25-05-2010 23:17:48 18.8 C 6.76 g/m*3 18.8 C 0 km/h
2756 25-05-2010 23:29:48 18.8 C 7.09 g/m*3 18.8 C 0 km/h
2757 25-05-2010 23:41:48 18.7 C 6.88 g/m*3 18.7 C 0 km/h
2758 25-05-2010 23:53:48 18.8 C 6.93 g/m*3 18.8 C 0 km/h
2759 26-05-2010 00:05:48 18.9 C 6.8 g/m*3 18.9 C 0 km/h
2760 26-05-2010 00:17:48 18.7 C 6.72 g/m*3 18.7 C 0 km/h
2761 26-05-2010 00:29:48 18.5 C 6.8 g/m*3 18.5 C 0 km/h
2762 26-05-2010 00:41:48 18.3 C 6.25 g/m*3 18.3 C 0 km/h
2763 26-05-2010 00:53:48 18.2 C 6.22 g/m*3 18.2 C 0 km/h
2764 26-05-2010 01:05:48 18.1 C 6.03 g/m*3 18.1 C 0 km/h
2765 26-05-2010 01:17:49 18.1 C 6.03 g/m*3 18.1 C 0 km/h
2766 26-05-2010 01:29:49 17.9 C 6.41 g/m*3 17.9 C 0 km/h
2767 26-05-2010 01:41:49 15.8 C 7.81 g/m*3 15.8 C 0 km/h
2768 26-05-2010 01:53:49 14.4 C 7.91 g/m*3 14.4 C 0 km/h
2769 26-05-2010 02:05:49 14.2 C 8.3 g/m*3 14.2 C 0 km/h
2770 26-05-2010 02:17:49 14.6 C 8.38 g/m*3 14.6 C 0 km/h
2771 26-05-2010 02:29:49 14.6 C 8.38 g/m*3 14.6 C 0 km/h
2772 26-05-2010 02:41:49 14.3 C 8.72 g/m*3 14.3 C 0 km/h
2773 26-05-2010 02:53:49 14.4 C 9.02 g/m*3 14.4 C 0 km/h
2774 26-05-2010 03:05:49 14.4 C 8.9 g/m*3 14.4 C 0 km/h
2775 26-05-2010 03:17:50 14.5 C 8.58 g/m*3 14.5 C 0 km/h
Sensor: Nr:Datum:Temp:Abs-Feuchte:Windchill:Wind:
Aussen-T/F 2776 26-05-2010 03:29:50 14.8 C 8.49 g/m*3 14.8 C 0 km/h
2777 26-05-2010 03:41:50 14.7 C 8.18 g/m*3 14.7 C 0 km/h
2778 26-05-2010 03:53:50 14.6 C 8.01 g/m*3 14.6 C 0 km/h
2779 26-05-2010 04:05:50 14.8 C 7.85 g/m*3 14.8 C 0 km/h
2780 26-05-2010 04:17:50 14.7 C 7.81 g/m*3 14.7 C 0 km/h
2781 26-05-2010 04:29:50 14.7 C 7.68 g/m*3 14.7 C 0 km/h
2782 26-05-2010 04:41:50 14.7 C 7.55 g/m*3 14.7 C 0 km/h
2783 26-05-2010 04:53:50 14.7 C 7.55 g/m*3 14.7 C 0 km/h
2784 26-05-2010 05:05:50 14.7 C 7.3 g/m*3 14.7 C 0 km/h
2785 26-05-2010 05:17:50 14.7 C 7.43 g/m*3 14.7 C 0 km/h
2786 26-05-2010 05:29:50 14.7 C 7.3 g/m*3 14.7 C 0 km/h
2787 26-05-2010 05:41:50 14.7 C 7.43 g/m*3 14.7 C 0 km/h
2788 26-05-2010 05:53:50 14.5 C 7.34 g/m*3 14.5 C 0 km/h
2789 26-05-2010 06:05:50 14.7 C 7.55 g/m*3 14.7 C 0 km/h
2790 26-05-2010 06:17:51 14.7 C 7.68 g/m*3 14.7 C 0 km/h
2791 26-05-2010 06:29:51 14.5 C 7.84 g/m*3 14.5 C 0 km/h
2792 26-05-2010 06:41:51 14.7 C 8.06 g/m*3 14.7 C 0 km/h
2793 26-05-2010 06:53:51 14.8 C 7.85 g/m*3 14.8 C 0 km/h
2794 26-05-2010 07:05:03 15 C 7.18 g/m*3 15 C 0 km/h
2795 26-05-2010 07:17:02 15.4 C 6.83 g/m*3 15.4 C 0 km/h
2796 26-05-2010 07:29:02 15.8 C 6.46 g/m*3 15.8 C 0 km/h
2797 26-05-2010 07:41:03 16 C 6.27 g/m*3 16 C 0 km/h
2798 26-05-2010 07:53:02 16.2 C 6.48 g/m*3 16.2 C 0 km/h
2799 26-05-2010 08:05:02 16 C 6.4 g/m*3 16 C 0 km/h
2800 26-05-2010 08:17:02 15.9 C 6.37 g/m*3 15.9 C 0 km/h
Sensor: Nr:Datum:Temp:Abs-Feuchte:Windchill:Wind:
Aussen-T/F 2801 26-05-2010 08:29:02 15.8 C 6.33 g/m*3 15.8 C 0 km/h
2802 26-05-2010 08:41:02 15.9 C 6.64 g/m*3 15.9 C 0 km/h
2803 26-05-2010 08:53:02 16.2 C 6.48 g/m*3 16.2 C 0 km/h
2804 26-05-2010 09:05:02 16.9 C 6.47 g/m*3 16.9 C 0 km/h
2805 26-05-2010 09:17:02 17.1 C 6.11 g/m*3 17.1 C 0 km/h
2806 26-05-2010 09:29:02 17 C 6.22 g/m*3 17 C 0 km/h
2807 26-05-2010 09:41:01 16.4 C 6.7 g/m*3 16.4 C 0 km/h
2808 26-05-2010 09:53:02 16 C 6.81 g/m*3 16 C 0 km/h
2809 26-05-2010 10:05:01 16.4 C 6.56 g/m*3 16.4 C 0 km/h
2810 26-05-2010 10:17:02 15.8 C 7.4 g/m*3 15.8 C 0 km/h
2811 26-05-2010 10:29:02 15.1 C 8 g/m*3 15.1 C 0 km/h
2812 26-05-2010 10:41:02 14.1 C 8.86 g/m*3 14.1 C 0 km/h
2813 26-05-2010 10:53:02 14.2 C 9.4 g/m*3 14.2 C 0 km/h
2814 26-05-2010 11:05:02 13.4 C 9.18 g/m*3 13.4 C 0 km/h
2815 26-05-2010 11:17:02 12.9 C 9.35 g/m*3 12.9 C 0 km/h
2816 26-05-2010 11:29:02 13.2 C 9.64 g/m*3 13.2 C 0 km/h
2817 26-05-2010 11:41:02 13.3 C 9.82 g/m*3 13.3 C 0 km/h
2818 26-05-2010 11:53:01 13.4 C 10 g/m*3 13.4 C 0 km/h
2819 26-05-2010 12:05:02 13.2 C 9.87 g/m*3 13.2 C 0 km/h
2820 26-05-2010 12:17:01 13.3 C 9.94 g/m*3 13.3 C 0 km/h
2821 26-05-2010 12:29:01 13.2 C 9.87 g/m*3 13.2 C 0 km/h
2822 26-05-2010 12:41:01 12.8 C 9.74 g/m*3 12.8 C 0 km/h
2823 26-05-2010 12:53:01 13 C 9.87 g/m*3 13 C 0 km/h
2824 26-05-2010 13:05:02 12.8 C 9.74 g/m*3 12.8 C 0 km/h
2825 26-05-2010 13:17:02 13.2 C 10.1 g/m*3 13.2 C 0 km/h
Sensor: Nr:Datum:Temp:Abs-Feuchte:Windchill:Wind:
Aussen-T/F 2826 26-05-2010 13:29:02 12.8 C 9.74 g/m*3 12.8 C 0 km/h
2827 26-05-2010 13:41:01 12.6 C 9.51 g/m*3 12.6 C 0 km/h
2828 26-05-2010 13:53:01 13 C 9.75 g/m*3 13 C 0 km/h
2829 26-05-2010 14:05:01 13.9 C 9.83 g/m*3 13.9 C 0 km/h
2830 26-05-2010 14:17:02 15.2 C 10.12 g/m*3 15.2 C 0 km/h
2831 26-05-2010 14:29:02 15.8 C 9.83 g/m*3 15.8 C 0 km/h
2832 26-05-2010 14:41:01 15.6 C 9.44 g/m*3 15.6 C 0 km/h
2833 26-05-2010 14:53:03 15.5 C 9.39 g/m*3 15.5 C 0 km/h
2834 26-05-2010 15:05:02 15.4 C 9.33 g/m*3 15.4 C 0 km/h
2835 26-05-2010 15:17:02 14.5 C 9.45 g/m*3 14.5 C 0 km/h
2836 26-05-2010 15:29:02 14.1 C 9.59 g/m*3 14.1 C 0 km/h
2837 26-05-2010 15:41:02 14.4 C 10.01 g/m*3 14.4 C 0 km/h
2838 26-05-2010 15:53:02 15.4 C 10.77 g/m*3 15.4 C 0 km/h
2839 26-05-2010 16:05:01 17.8 C 11.23 g/m*3 17.8 C 0 km/h
2840 26-05-2010 16:17:02 19.4 C 11.18 g/m*3 19.4 C 0 km/h
2841 26-05-2010 16:29:02 20.3 C 10.73 g/m*3 20.3 C 0 km/h
2842 26-05-2010 16:41:02 18.8 C 9.99 g/m*3 18.8 C 0 km/h
2843 26-05-2010 16:53:02 18.5 C 9.97 g/m*3 18.5 C 0 km/h
2844 26-05-2010 17:05:03 16.8 C 10.58 g/m*3 16.8 C 0 km/h
2845 26-05-2010 17:17:02 16.2 C 10.76 g/m*3 16.2 C 0 km/h
2846 26-05-2010 17:29:02 15.6 C 11.17 g/m*3 15.6 C 0 km/h
2847 26-05-2010 17:41:02 16.2 C 11.86 g/m*3 16.2 C 0 km/h
2848 26-05-2010 17:53:02 17.1 C 12.52 g/m*3 17.1 C 0 km/h
2849 26-05-2010 18:05:02 16.1 C 11.51 g/m*3 16.1 C 0 km/h
2850 26-05-2010 18:17:02 15.5 C 11.5 g/m*3 15.5 C 0 km/h
Sensor: Nr:Datum:Temp:Abs-Feuchte:Windchill:Wind:
Aussen-T/F 2851 26-05-2010 18:29:02 17 C 12.73 g/m*3 17 C 0 km/h
2852 26-05-2010 18:41:01 18.7 C 13.93 g/m*3 18.7 C 0 km/h
2853 26-05-2010 18:53:02 18.8 C 13.69 g/m*3 18.8 C 0 km/h
2854 26-05-2010 19:05:01 19.1 C 13.28 g/m*3 19.1 C 0 km/h
2855 26-05-2010 19:17:01 19.2 C 13.19 g/m*3 19.2 C 0 km/h
2856 26-05-2010 19:29:01 19.2 C 13.03 g/m*3 19.2 C 0 km/h
2857 26-05-2010 19:41:02 19.3 C 12.77 g/m*3 19.3 C 0 km/h
2858 26-05-2010 19:53:02 18.1 C 11.9 g/m*3 18.1 C 0 km/h
2859 26-05-2010 20:05:02 17.2 C 11.72 g/m*3 17.2 C 0 km/h
2860 26-05-2010 20:17:02 17.2 C 11.86 g/m*3 17.2 C 0 km/h
2861 26-05-2010 20:29:02 17 C 11.87 g/m*3 17 C 0 km/h
2862 26-05-2010 20:41:02 16.7 C 11.8 g/m*3 16.7 C 0 km/h
2863 26-05-2010 20:53:02 16.2 C 11.58 g/m*3 16.2 C 0 km/h
2864 26-05-2010 21:05:03 16.1 C 11.65 g/m*3 16.1 C 0 km/h
2865 26-05-2010 21:17:02 16 C 11.72 g/m*3 16 C 0 km/h
2866 26-05-2010 21:29:02 15.7 C 10.97 g/m*3 15.7 C 0 km/h
2867 26-05-2010 21:41:03 14.6 C 9.89 g/m*3 14.6 C 0 km/h
2868 26-05-2010 21:53:02 13.6 C 9.18 g/m*3 13.6 C 0 km/h
2869 26-05-2010 22:05:02 13.1 C 8.9 g/m*3 13.1 C 0 km/h
2870 26-05-2010 22:18:04 13.1 C 9.01 g/m*3 13.1 C 0 km/h
2871 26-05-2010 22:30:04 12.9 C 9.02 g/m*3 12.9 C 0 km/h
2872 26-05-2010 22:42:04 12.6 C 8.63 g/m*3 12.6 C 0 km/h
2873 26-05-2010 22:54:04 12.6 C 8.63 g/m*3 12.6 C 0 km/h
2874 26-05-2010 23:06:04 12.7 C 8.91 g/m*3 12.7 C 0 km/h
2875 26-05-2010 23:18:04 12.5 C 8.47 g/m*3 12.5 C 0 km/h
Sensor: Nr:Datum:Temp:Abs-Feuchte:Windchill:Wind:
Aussen-T/F 2876 26-05-2010 23:30:04 12.4 C 8.3 g/m*3 12.4 C 0 km/h
2877 26-05-2010 23:42:05 12.5 C 8.47 g/m*3 12.5 C 0 km/h
2878 26-05-2010 23:54:05 12.5 C 8.36 g/m*3 12.5 C 0 km/h
2879 27-05-2010 00:06:05 12.5 C 8.47 g/m*3 12.5 C 0 km/h
2880 27-05-2010 00:18:05 12.4 C 8.41 g/m*3 12.4 C 0 km/h
2881 27-05-2010 00:30:05 12.4 C 8.41 g/m*3 12.4 C 0 km/h
2882 27-05-2010 00:42:05 12.3 C 8.36 g/m*3 12.3 C 0 km/h
2883 27-05-2010 00:54:05 12.2 C 8.31 g/m*3 12.2 C 0 km/h
2884 27-05-2010 01:06:05 12.3 C 8.25 g/m*3 12.3 C 0 km/h
2885 27-05-2010 01:18:05 12.2 C 8.2 g/m*3 12.2 C 0 km/h
2886 27-05-2010 01:30:05 11.7 C 7.95 g/m*3 11.7 C 0 km/h
2887 27-05-2010 01:42:05 11.8 C 8.21 g/m*3 11.8 C 0 km/h
2888 27-05-2010 01:54:05 11.5 C 8.16 g/m*3 11.5 C 0 km/h
2889 27-05-2010 02:06:05 11.4 C 8.21 g/m*3 11.4 C 0 km/h
2890 27-05-2010 02:18:05 11.3 C 8.16 g/m*3 11.3 C 0 km/h
2891 27-05-2010 02:30:05 11.2 C 8.01 g/m*3 11.2 C 0 km/h
2892 27-05-2010 02:42:05 11.2 C 8.11 g/m*3 11.2 C 0 km/h
2893 27-05-2010 02:54:05 11.1 C 8.06 g/m*3 11.1 C 0 km/h
2894 27-05-2010 03:06:05 11.1 C 8.06 g/m*3 11.1 C 0 km/h
2895 27-05-2010 03:18:05 11.3 C 8.06 g/m*3 11.3 C 0 km/h
2896 27-05-2010 03:30:05 11.2 C 8.01 g/m*3 11.2 C 0 km/h
2897 27-05-2010 03:42:05 11.2 C 7.91 g/m*3 11.2 C 0 km/h
2898 27-05-2010 03:54:05 11 C 7.81 g/m*3 11 C 0 km/h
2899 27-05-2010 04:06:06 11 C 7.91 g/m*3 11 C 0 km/h
2900 27-05-2010 04:18:06 11 C 7.91 g/m*3 11 C 0 km/h
Sensor: Nr:Datum:Temp:Abs-Feuchte:Windchill:Wind:
Aussen-T/F 2901 27-05-2010 04:30:06 10.9 C 7.86 g/m*3 10.9 C 0 km/h
2902 27-05-2010 04:42:06 10.8 C 7.81 g/m*3 10.8 C 0 km/h
2903 27-05-2010 04:54:06 10.7 C 7.76 g/m*3 10.7 C 0 km/h
2904 27-05-2010 05:06:06 10.7 C 7.76 g/m*3 10.7 C 0 km/h
2905 27-05-2010 05:18:06 10.7 C 7.76 g/m*3 10.7 C 0 km/h
2906 27-05-2010 05:30:06 10.7 C 7.76 g/m*3 10.7 C 0 km/h
2907 27-05-2010 05:42:06 10.8 C 7.81 g/m*3 10.8 C 0 km/h
2908 27-05-2010 05:54:06 10.8 C 7.81 g/m*3 10.8 C 0 km/h
2909 27-05-2010 06:06:06 10.8 C 7.81 g/m*3 10.8 C 0 km/h
2910 27-05-2010 06:18:06 10.9 C 7.86 g/m*3 10.9 C 0 km/h
2911 27-05-2010 06:30:06 11.1 C 7.86 g/m*3 11.1 C 0 km/h
2912 27-05-2010 06:42:03 11.1 C 7.86 g/m*3 11.1 C 0 km/h
2913 27-05-2010 06:54:02 11.1 C 7.86 g/m*3 11.1 C 0 km/h
2914 27-05-2010 07:06:02 11.1 C 7.96 g/m*3 11.1 C 0 km/h
2915 27-05-2010 07:18:03 11.2 C 7.91 g/m*3 11.2 C 0 km/h
2916 27-05-2010 07:30:03 11.4 C 7.9 g/m*3 11.4 C 0 km/h
2917 27-05-2010 07:42:02 11.5 C 8.06 g/m*3 11.5 C 0 km/h
2918 27-05-2010 07:54:03 11.3 C 7.96 g/m*3 11.3 C 0 km/h
2919 27-05-2010 08:06:02 11.4 C 8.11 g/m*3 11.4 C 0 km/h
2920 27-05-2010 08:18:02 11.7 C 8.16 g/m*3 11.7 C 0 km/h
2921 27-05-2010 08:30:03 11.7 C 8.16 g/m*3 11.7 C 0 km/h
2922 27-05-2010 08:42:02 12 C 8.1 g/m*3 12 C 0 km/h
2923 27-05-2010 08:54:02 11.8 C 7.79 g/m*3 11.8 C 0 km/h
2924 27-05-2010 09:06:01 12 C 7.89 g/m*3 12 C 0 km/h
2925 27-05-2010 09:18:02 11.9 C 7.73 g/m*3 11.9 C 0 km/h
Sensor: Nr:Datum:Temp:Abs-Feuchte:Windchill:Wind:
Aussen-T/F 2926 27-05-2010 09:30:02 11.8 C 7.79 g/m*3 11.8 C 0 km/h
2927 27-05-2010 09:42:01 12.2 C 7.88 g/m*3 12.2 C 0 km/h
2928 27-05-2010 09:54:02 12.2 C 7.66 g/m*3 12.2 C 0 km/h
2929 27-05-2010 10:06:02 12.4 C 7.65 g/m*3 12.4 C 0 km/h
2930 27-05-2010 10:18:02 13 C 7.71 g/m*3 13 C 0 km/h
2931 27-05-2010 10:30:02 13.2 C 7.58 g/m*3 13.2 C 0 km/h
2932 27-05-2010 10:42:03 13.4 C 7.56 g/m*3 13.4 C 0 km/h
2933 27-05-2010 10:54:02 13.2 C 7.23 g/m*3 13.2 C 0 km/h
2934 27-05-2010 11:06:02 14.1 C 7.16 g/m*3 14.1 C 0 km/h
2935 27-05-2010 11:18:01 14.6 C 7.13 g/m*3 14.6 C 0 km/h
2936 27-05-2010 11:30:01 14.4 C 7.17 g/m*3 14.4 C 0 km/h
2937 27-05-2010 11:42:02 15 C 6.8 g/m*3 15 C 0 km/h
2938 27-05-2010 11:54:02 15.9 C 7.31 g/m*3 15.9 C 0 km/h
2939 27-05-2010 12:06:02 16.1 C 6.72 g/m*3 16.1 C 0 km/h
2940 27-05-2010 12:18:01 16.4 C 6.7 g/m*3 16.4 C 0 km/h
2941 27-05-2010 12:30:01 16.7 C 6.82 g/m*3 16.7 C 0 km/h
2942 27-05-2010 12:42:02 16 C 6.68 g/m*3 16 C 0 km/h
2943 27-05-2010 12:54:02 15.5 C 6.74 g/m*3 15.5 C 0 km/h
2944 27-05-2010 13:06:02 16 C 6.68 g/m*3 16 C 0 km/h
2945 27-05-2010 13:18:02 16.5 C 6.74 g/m*3 16.5 C 0 km/h
2946 27-05-2010 13:30:02 17.6 C 6.45 g/m*3 17.6 C 0 km/h
2947 27-05-2010 13:42:02 18 C 6.45 g/m*3 18 C 0 km/h
2948 27-05-2010 13:54:02 19.1 C 6.39 g/m*3 19.1 C 0 km/h
2949 27-05-2010 14:06:03 19.6 C 6.58 g/m*3 19.6 C 0 km/h
2950 27-05-2010 14:18:02 18.7 C 6.08 g/m*3 18.7 C 0 km/h
Sensor: Nr:Datum:Temp:Abs-Feuchte:Windchill:Wind:
Aussen-T/F 2951 27-05-2010 14:30:02 20.6 C 7.16 g/m*3 20.6 C 0 km/h
2952 27-05-2010 14:42:02 21.7 C 6.68 g/m*3 21.7 C 0 km/h
2953 27-05-2010 14:54:02 22.5 C 6.59 g/m*3 22.5 C 0 km/h
2954 27-05-2010 15:06:01 22.5 C 6.79 g/m*3 22.5 C 0 km/h
2955 27-05-2010 15:18:02 21.5 C 6.22 g/m*3 21.5 C 0 km/h
2956 27-05-2010 15:30:02 21.9 C 6.18 g/m*3 21.9 C 0 km/h
2957 27-05-2010 15:42:02 22.3 C 6.12 g/m*3 22.3 C 0 km/h
2958 27-05-2010 15:54:03 23.3 C 6.69 g/m*3 23.3 C 0 km/h
2959 27-05-2010 16:06:02 23.7 C 5.99 g/m*3 23.7 C 0 km/h
2960 27-05-2010 16:18:02 23.5 C 6.34 g/m*3 23.5 C 0 km/h
2961 27-05-2010 16:30:02 23.3 C 6.48 g/m*3 23.3 C 0 km/h
2962 27-05-2010 16:42:02 22.9 C 6.74 g/m*3 22.9 C 0 km/h
2963 27-05-2010 16:54:02 23.4 C 6.73 g/m*3 23.4 C 0 km/h
2964 27-05-2010 17:06:02 23.6 C 6.59 g/m*3 23.6 C 0 km/h
2965 27-05-2010 17:18:02 23.3 C 6.48 g/m*3 23.3 C 0 km/h
2966 27-05-2010 17:30:02 23.5 C 6.56 g/m*3 23.5 C 0 km/h
2967 27-05-2010 17:42:02 23.4 C 6.73 g/m*3 23.4 C 0 km/h
2968 27-05-2010 17:54:01 23.4 C 6.94 g/m*3 23.4 C 0 km/h
2969 27-05-2010 18:06:02 24.1 C 6.78 g/m*3 24.1 C 0 km/h
2970 27-05-2010 18:18:02 23.3 C 6.69 g/m*3 23.3 C 0 km/h
2971 27-05-2010 18:30:02 22.3 C 7.5 g/m*3 22.3 C 0 km/h
2972 27-05-2010 18:42:02 22.4 C 7.35 g/m*3 22.4 C 0 km/h
2973 27-05-2010 18:54:01 23.3 C 7.32 g/m*3 23.3 C 0 km/h
2974 27-05-2010 19:06:02 22.7 C 7.88 g/m*3 22.7 C 0 km/h
2975 27-05-2010 19:18:02 21.6 C 7.78 g/m*3 21.6 C 0 km/h
Sensor: Nr:Datum:Temp:Abs-Feuchte:Windchill:Wind:
Aussen-T/F 2976 27-05-2010 19:30:02 20.6 C 8.59 g/m*3 20.6 C 0 km/h
2977 27-05-2010 19:42:01 19.9 C 8.76 g/m*3 19.9 C 0 km/h
2978 27-05-2010 19:54:02 19.4 C 8.51 g/m*3 19.4 C 0 km/h
2979 27-05-2010 20:06:01 19.1 C 8.36 g/m*3 19.1 C 0 km/h
2980 27-05-2010 20:18:02 18.7 C 8.49 g/m*3 18.7 C 0 km/h
2981 27-05-2010 20:30:02 18.3 C 8.44 g/m*3 18.3 C 0 km/h
2982 27-05-2010 20:42:01 17.5 C 9.39 g/m*3 17.5 C 0 km/h
2983 27-05-2010 20:54:01 16.6 C 9.61 g/m*3 16.6 C 0 km/h
2984 27-05-2010 21:06:02 15.8 C 9.56 g/m*3 15.8 C 0 km/h
2985 27-05-2010 21:18:01 15.6 C 9.58 g/m*3 15.6 C 0 km/h
2986 27-05-2010 21:30:01 15.8 C 9.69 g/m*3 15.8 C 0 km/h
2987 27-05-2010 21:42:01 15.9 C 9.62 g/m*3 15.9 C 0 km/h
2988 27-05-2010 21:54:01 15.8 C 9.29 g/m*3 15.8 C 0 km/h
2989 27-05-2010 22:06:01 16 C 9.4 g/m*3 16 C 0 km/h
2990 27-05-2010 22:18:01 16.1 C 9.18 g/m*3 16.1 C 0 km/h
2991 27-05-2010 22:30:01 16.2 C 9.24 g/m*3 16.2 C 0 km/h
2992 27-05-2010 22:42:02 16 C 9.13 g/m*3 16 C 0 km/h
2993 27-05-2010 22:55:03 16 C 9.4 g/m*3 16 C 0 km/h
2994 27-05-2010 23:07:03 15.6 C 9.71 g/m*3 15.6 C 0 km/h
2995 27-05-2010 23:19:03 15.6 C 9.71 g/m*3 15.6 C 0 km/h
2996 27-05-2010 23:31:03 15.7 C 9.77 g/m*3 15.7 C 0 km/h
2997 27-05-2010 23:43:03 15.6 C 9.71 g/m*3 15.6 C 0 km/h
2998 27-05-2010 23:55:03 15.3 C 9.66 g/m*3 15.3 C 0 km/h
2999 28-05-2010 00:07:03 14.9 C 9.69 g/m*3 14.9 C 0 km/h
3000 28-05-2010 00:19:03 14.9 C 9.81 g/m*3 14.9 C 0 km/h
Sensor: Nr:Datum:Temp:Abs-Feuchte:Windchill:Wind:
Aussen-T/F 3001 28-05-2010 00:31:03 15 C 9.75 g/m*3 15 C 0 km/h
3002 28-05-2010 00:43:03 15 C 9.49 g/m*3 15 C 0 km/h
3003 28-05-2010 00:55:03 15.2 C 9.48 g/m*3 15.2 C 0 km/h
3004 28-05-2010 01:07:03 15.2 C 9.35 g/m*3 15.2 C 0 km/h
3005 28-05-2010 01:19:03 15.2 C 9.22 g/m*3 15.2 C 0 km/h
3006 28-05-2010 01:31:03 15.2 C 9.09 g/m*3 15.2 C 0 km/h
3007 28-05-2010 01:43:03 15.1 C 9.03 g/m*3 15.1 C 0 km/h
3008 28-05-2010 01:55:03 15 C 9.1 g/m*3 15 C 0 km/h
3009 28-05-2010 02:07:04 14.8 C 9.12 g/m*3 14.8 C 0 km/h
3010 28-05-2010 02:19:04 14.9 C 9.3 g/m*3 14.9 C 0 km/h
3011 28-05-2010 02:31:04 14.8 C 9.25 g/m*3 14.8 C 0 km/h
3012 28-05-2010 02:43:04 14.9 C 9.3 g/m*3 14.9 C 0 km/h
3013 28-05-2010 02:55:04 14.9 C 9.18 g/m*3 14.9 C 0 km/h
3014 28-05-2010 03:07:04 14.9 C 9.18 g/m*3 14.9 C 0 km/h
3015 28-05-2010 03:19:04 15 C 9.1 g/m*3 15 C 0 km/h
3016 28-05-2010 03:31:04 14.7 C 9.19 g/m*3 14.7 C 0 km/h
3017 28-05-2010 03:43:04 14.7 C 9.19 g/m*3 14.7 C 0 km/h
3018 28-05-2010 03:55:04 14.6 C 9.13 g/m*3 14.6 C 0 km/h
3019 28-05-2010 04:07:04 14.6 C 9.01 g/m*3 14.6 C 0 km/h
3020 28-05-2010 04:19:04 14.6 C 9.01 g/m*3 14.6 C 0 km/h
3021 28-05-2010 04:31:04 14.5 C 8.95 g/m*3 14.5 C 0 km/h
3022 28-05-2010 04:43:04 14.1 C 9.34 g/m*3 14.1 C 0 km/h
3023 28-05-2010 04:55:04 14 C 9.65 g/m*3 14 C 0 km/h
3024 28-05-2010 05:07:04 13.8 C 9.77 g/m*3 13.8 C 0 km/h
3025 28-05-2010 05:19:04 13.7 C 9.83 g/m*3 13.7 C 0 km/h
Sensor: Nr:Datum:Temp:Abs-Feuchte:Windchill:Wind:
Aussen-T/F 3026 28-05-2010 05:31:04 13.7 C 9.83 g/m*3 13.7 C 0 km/h
3027 28-05-2010 05:43:04 13.7 C 9.95 g/m*3 13.7 C 0 km/h
3028 28-05-2010 05:55:04 13.6 C 10 g/m*3 13.6 C 0 km/h
3029 28-05-2010 06:07:04 13.6 C 10 g/m*3 13.6 C 0 km/h
3030 28-05-2010 06:19:04 13.5 C 9.94 g/m*3 13.5 C 0 km/h
3031 28-05-2010 06:31:04 13.5 C 10.06 g/m*3 13.5 C 0 km/h
3032 28-05-2010 06:43:05 13.7 C 10.18 g/m*3 13.7 C 0 km/h
3033 28-05-2010 06:55:05 13.8 C 10.37 g/m*3 13.8 C 0 km/h
3034 28-05-2010 07:07:03 13.8 C 10.37 g/m*3 13.8 C 0 km/h
3035 28-05-2010 07:19:03 13.8 C 10.37 g/m*3 13.8 C 0 km/h
3036 28-05-2010 07:31:02 14.1 C 10.56 g/m*3 14.1 C 0 km/h
3037 28-05-2010 07:43:02 14.1 C 10.56 g/m*3 14.1 C 0 km/h
3038 28-05-2010 07:55:01 14.1 C 10.56 g/m*3 14.1 C 0 km/h
3039 28-05-2010 08:07:02 14.2 C 10.5 g/m*3 14.2 C 0 km/h
3040 28-05-2010 08:19:02 14.1 C 10.44 g/m*3 14.1 C 0 km/h
3041 28-05-2010 08:31:01 14.2 C 10.5 g/m*3 14.2 C 0 km/h
3042 28-05-2010 08:43:01 14.5 C 10.7 g/m*3 14.5 C 0 km/h
3043 28-05-2010 08:55:01 14.8 C 10.77 g/m*3 14.8 C 0 km/h
3044 28-05-2010 09:07:01 15.2 C 10.64 g/m*3 15.2 C 0 km/h
3045 28-05-2010 09:19:02 15.2 C 10.25 g/m*3 15.2 C 0 km/h
3046 28-05-2010 09:31:01 15.2 C 9.48 g/m*3 15.2 C 0 km/h
3047 28-05-2010 09:43:01 15.8 C 9.29 g/m*3 15.8 C 0 km/h
3048 28-05-2010 09:55:03 14.2 C 8.91 g/m*3 14.2 C 0 km/h
3049 28-05-2010 10:07:02 15.5 C 9.25 g/m*3 15.5 C 0 km/h
3050 28-05-2010 10:19:02 15.5 C 8.59 g/m*3 15.5 C 0 km/h
Sensor: Nr:Datum:Temp:Abs-Feuchte:Windchill:Wind:
Aussen-T/F 3051 28-05-2010 10:31:02 15.6 C 8.25 g/m*3 15.6 C 0 km/h
3052 28-05-2010 10:43:02 15.6 C 8.51 g/m*3 15.6 C 0 km/h
3053 28-05-2010 10:55:02 16 C 8.17 g/m*3 16 C 0 km/h
3054 28-05-2010 11:07:02 16.3 C 7.63 g/m*3 16.3 C 0 km/h
3055 28-05-2010 11:19:02 17.6 C 7.65 g/m*3 17.6 C 0 km/h
3056 28-05-2010 11:31:02 16.9 C 7.05 g/m*3 16.9 C 0 km/h
3057 28-05-2010 11:43:02 18 C 7.22 g/m*3 18 C 0 km/h
3058 28-05-2010 11:55:02 17.2 C 6.74 g/m*3 17.2 C 0 km/h
3059 28-05-2010 12:07:01 17.8 C 6.83 g/m*3 17.8 C 0 km/h
3060 28-05-2010 12:19:01 16.9 C 7.34 g/m*3 16.9 C 0 km/h
3061 28-05-2010 12:31:02 17.5 C 7.01 g/m*3 17.5 C 0 km/h
3062 28-05-2010 12:43:02 19.3 C 7.13 g/m*3 19.3 C 0 km/h
3063 28-05-2010 12:55:02 20.5 C 7.3 g/m*3 20.5 C 0 km/h
3064 28-05-2010 13:07:02 20.4 C 6.72 g/m*3 20.4 C 0 km/h
3065 28-05-2010 13:19:02 21.9 C 6.95 g/m*3 21.9 C 0 km/h
3066 28-05-2010 13:31:02 21 C 6.41 g/m*3 21 C 0 km/h
3067 28-05-2010 13:43:02 19.3 C 6.63 g/m*3 19.3 C 0 km/h
3068 28-05-2010 13:55:02 18.6 C 6.37 g/m*3 18.6 C 0 km/h
3069 28-05-2010 14:07:03 20 C 6.39 g/m*3 20 C 0 km/h
3070 28-05-2010 14:19:02 21.2 C 6.49 g/m*3 21.2 C 0 km/h
3071 28-05-2010 14:31:02 19.1 C 6.07 g/m*3 19.1 C 0 km/h
3072 28-05-2010 14:43:02 18.2 C 6.22 g/m*3 18.2 C 0 km/h
3073 28-05-2010 14:55:01 18.5 C 5.85 g/m*3 18.5 C 0 km/h
3074 28-05-2010 15:07:02 19.1 C 5.9 g/m*3 19.1 C 0 km/h
3075 28-05-2010 15:19:01 21.6 C 5.88 g/m*3 21.6 C 0 km/h
Sensor: Nr:Datum:Temp:Abs-Feuchte:Windchill:Wind:
Aussen-T/F 3076 28-05-2010 15:31:01 22.6 C 5.42 g/m*3 22.6 C 0 km/h
3077 28-05-2010 15:43:01 22.1 C 4.88 g/m*3 22.1 C 0 km/h
3078 28-05-2010 15:55:01 23.2 C 4.99 g/m*3 23.2 C 0 km/h
3079 28-05-2010 16:07:02 22.6 C 4.62 g/m*3 22.6 C 0 km/h
3080 28-05-2010 16:19:02 23.4 C 4.63 g/m*3 23.4 C 0 km/h
3081 28-05-2010 16:31:01 23.5 C 4.44 g/m*3 23.5 C 0 km/h
3082 28-05-2010 16:43:01 22.6 C 4.02 g/m*3 22.6 C 0 km/h
3083 28-05-2010 16:55:01 23.2 C 4.16 g/m*3 23.2 C 0 km/h
3084 28-05-2010 17:07:01 22.2 C 3.93 g/m*3 22.2 C 0 km/h
3085 28-05-2010 17:19:02 23 C 4.11 g/m*3 23 C 0 km/h
3086 28-05-2010 17:31:01 24.2 C 4.4 g/m*3 24.2 C 0 km/h
3087 28-05-2010 17:43:01 23.3 C 4.18 g/m*3 23.3 C 0 km/h
3088 28-05-2010 17:55:03 23.3 C 4.18 g/m*3 23.3 C 0 km/h
3089 28-05-2010 18:07:02 22.7 C 4.04 g/m*3 22.7 C 0 km/h
3090 28-05-2010 18:19:02 22.8 C 4.06 g/m*3 22.8 C 0 km/h
3091 28-05-2010 18:31:02 23.1 C 4.13 g/m*3 23.1 C 0 km/h
3092 28-05-2010 18:43:02 22.5 C 3.99 g/m*3 22.5 C 0 km/h
3093 28-05-2010 18:55:02 22 C 4.27 g/m*3 22 C 0 km/h
3094 28-05-2010 19:07:01 21.7 C 4.77 g/m*3 21.7 C 0 km/h
3095 28-05-2010 19:19:02 22 C 4.27 g/m*3 22 C 0 km/h
3096 28-05-2010 19:31:02 22.5 C 4.79 g/m*3 22.5 C 0 km/h
3097 28-05-2010 19:43:02 22.1 C 4.88 g/m*3 22.1 C 0 km/h
3098 28-05-2010 19:55:01 22.4 C 4.57 g/m*3 22.4 C 0 km/h
3099 28-05-2010 20:07:01 21.2 C 4.63 g/m*3 21.2 C 0 km/h
3100 28-05-2010 20:19:01 19.7 C 4.92 g/m*3 19.7 C 0 km/h
Sensor: Nr:Datum:Temp:Abs-Feuchte:Windchill:Wind:
Aussen-T/F 3101 28-05-2010 20:31:01 19.2 C 5.11 g/m*3 19.2 C 0 km/h
3102 28-05-2010 20:43:01 19.3 C 5.14 g/m*3 19.3 C 0 km/h
3103 28-05-2010 20:55:02 19 C 5.05 g/m*3 19 C 0 km/h
3104 28-05-2010 21:07:02 18.6 C 5.09 g/m*3 18.6 C 0 km/h
3105 28-05-2010 21:19:02 18.1 C 5.25 g/m*3 18.1 C 0 km/h
3106 28-05-2010 21:31:02 17.4 C 5.34 g/m*3 17.4 C 0 km/h
3107 28-05-2010 21:43:02 17 C 5.35 g/m*3 17 C 0 km/h
3108 28-05-2010 21:55:02 16.6 C 5.65 g/m*3 16.6 C 0 km/h
3109 28-05-2010 22:07:02 16.1 C 5.76 g/m*3 16.1 C 0 km/h
3110 28-05-2010 22:19:01 15.7 C 6.02 g/m*3 15.7 C 0 km/h
3111 28-05-2010 22:32:03 15.6 C 5.85 g/m*3 15.6 C 0 km/h
3112 28-05-2010 22:44:03 15.4 C 6.04 g/m*3 15.4 C 0 km/h
3113 28-05-2010 22:56:03 15 C 6.03 g/m*3 15 C 0 km/h
3114 28-05-2010 23:08:03 14.7 C 6.04 g/m*3 14.7 C 0 km/h
3115 28-05-2010 23:20:03 14.5 C 5.97 g/m*3 14.5 C 0 km/h
3116 28-05-2010 23:32:03 14.2 C 6.11 g/m*3 14.2 C 0 km/h
3117 28-05-2010 23:44:03 13.6 C 6.47 g/m*3 13.6 C 0 km/h
3118 28-05-2010 23:56:03 13.3 C 6.47 g/m*3 13.3 C 0 km/h
3119 29-05-2010 00:08:03 13.1 C 6.5 g/m*3 13.1 C 0 km/h
3120 29-05-2010 00:20:03 13.1 C 6.62 g/m*3 13.1 C 0 km/h
3121 29-05-2010 00:32:03 12.9 C 6.65 g/m*3 12.9 C 0 km/h
3122 29-05-2010 00:44:03 12.7 C 6.68 g/m*3 12.7 C 0 km/h
3123 29-05-2010 00:56:03 12.5 C 6.71 g/m*3 12.5 C 0 km/h
3124 29-05-2010 01:08:03 12.3 C 6.62 g/m*3 12.3 C 0 km/h
3125 29-05-2010 01:20:03 12.1 C 6.65 g/m*3 12.1 C 0 km/h
Sensor: Nr:Datum:Temp:Abs-Feuchte:Windchill:Wind:
Aussen-T/F 3126 29-05-2010 01:32:04 11.9 C 6.78 g/m*3 11.9 C 0 km/h
3127 29-05-2010 01:44:04 11.7 C 6.9 g/m*3 11.7 C 0 km/h
3128 29-05-2010 01:56:04 11.6 C 6.86 g/m*3 11.6 C 0 km/h
3129 29-05-2010 02:08:04 11.3 C 6.94 g/m*3 11.3 C 0 km/h
3130 29-05-2010 02:20:04 11 C 6.91 g/m*3 11 C 0 km/h
3131 29-05-2010 02:32:04 10.7 C 6.97 g/m*3 10.7 C 0 km/h
3132 29-05-2010 02:44:04 10.6 C 6.93 g/m*3 10.6 C 0 km/h
3133 29-05-2010 02:56:04 10.5 C 6.98 g/m*3 10.5 C 0 km/h
3134 29-05-2010 03:08:04 10.2 C 6.95 g/m*3 10.2 C 0 km/h
3135 29-05-2010 03:20:04 10.1 C 7 g/m*3 10.1 C 0 km/h
3136 29-05-2010 03:32:04 9.9 C 7 g/m*3 9.9 C 0 km/h
3137 29-05-2010 03:44:04 9.9 C 7.1 g/m*3 9.9 C 0 km/h
3138 29-05-2010 03:56:04 9.8 C 7.05 g/m*3 9.8 C 0 km/h
3139 29-05-2010 04:08:04 9.8 C 7.05 g/m*3 9.8 C 0 km/h
3140 29-05-2010 04:20:04 9.7 C 7.1 g/m*3 9.7 C 0 km/h
3141 29-05-2010 04:32:04 9.7 C 7.1 g/m*3 9.7 C 0 km/h
3142 29-05-2010 04:44:04 9.6 C 7.05 g/m*3 9.6 C 0 km/h
3143 29-05-2010 04:56:04 9.7 C 7.1 g/m*3 9.7 C 0 km/h
3144 29-05-2010 05:08:04 9.6 C 6.96 g/m*3 9.6 C 0 km/h
3145 29-05-2010 05:20:04 9.5 C 7.01 g/m*3 9.5 C 0 km/h
3146 29-05-2010 05:32:05 9.5 C 7.01 g/m*3 9.5 C 0 km/h
3147 29-05-2010 05:44:05 9.5 C 7.01 g/m*3 9.5 C 0 km/h
3148 29-05-2010 05:56:05 9.3 C 7.01 g/m*3 9.3 C 0 km/h
3149 29-05-2010 06:08:05 9.4 C 7.05 g/m*3 9.4 C 0 km/h
3150 29-05-2010 06:20:05 9.6 C 7.15 g/m*3 9.6 C 0 km/h
Sensor: Nr:Datum:Temp:Abs-Feuchte:Windchill:Wind:
Aussen-T/F 3151 29-05-2010 06:32:05 9.9 C 7.28 g/m*3 9.9 C 0 km/h
3152 29-05-2010 06:44:05 10 C 7.14 g/m*3 10 C 0 km/h
3153 29-05-2010 06:56:05 10 C 7.05 g/m*3 10 C 0 km/h
3154 29-05-2010 07:08:05 9.9 C 7.1 g/m*3 9.9 C 0 km/h
3155 29-05-2010 07:20:05 10.1 C 7.09 g/m*3 10.1 C 0 km/h
3156 29-05-2010 07:32:05 10.2 C 7.14 g/m*3 10.2 C 0 km/h
3157 29-05-2010 07:44:05 10.3 C 7.18 g/m*3 10.3 C 0 km/h
3158 29-05-2010 07:56:05 10.4 C 7.23 g/m*3 10.4 C 0 km/h
3159 29-05-2010 08:08:05 10.7 C 7.37 g/m*3 10.7 C 0 km/h
3160 29-05-2010 08:20:05 11 C 7.31 g/m*3 11 C 0 km/h
3161 29-05-2010 08:32:02 11.3 C 7.24 g/m*3 11.3 C 0 km/h
3162 29-05-2010 08:44:02 11.7 C 7.11 g/m*3 11.7 C 0 km/h
3163 29-05-2010 08:56:02 11.5 C 6.92 g/m*3 11.5 C 0 km/h
3164 29-05-2010 09:08:02 11.8 C 7.16 g/m*3 11.8 C 0 km/h
3165 29-05-2010 09:20:01 12.2 C 7.01 g/m*3 12.2 C 0 km/h
3166 29-05-2010 09:32:02 12.7 C 7.01 g/m*3 12.7 C 0 km/h
3167 29-05-2010 09:44:02 13.4 C 7.09 g/m*3 13.4 C 0 km/h
3168 29-05-2010 09:56:02 14.2 C 6.96 g/m*3 14.2 C 0 km/h
3169 29-05-2010 10:08:02 15 C 6.92 g/m*3 15 C 0 km/h
3170 29-05-2010 10:20:02 16.1 C 7.26 g/m*3 16.1 C 0 km/h
3171 29-05-2010 10:32:02 17.4 C 7.41 g/m*3 17.4 C 0 km/h
3172 29-05-2010 10:44:02 17.9 C 7.02 g/m*3 17.9 C 0 km/h
3173 29-05-2010 10:56:02 18.1 C 6.8 g/m*3 18.1 C 0 km/h
3174 29-05-2010 11:08:02 18.4 C 6.92 g/m*3 18.4 C 0 km/h
3175 29-05-2010 11:20:02 18.1 C 7.42 g/m*3 18.1 C 0 km/h
Sensor: Nr:Datum:Temp:Abs-Feuchte:Windchill:Wind:
Aussen-T/F 3176 29-05-2010 11:32:02 18.4 C 7.55 g/m*3 18.4 C 0 km/h
3177 29-05-2010 11:44:02 18.8 C 7.41 g/m*3 18.8 C 0 km/h
3178 29-05-2010 11:56:01 19.6 C 7.26 g/m*3 19.6 C 0 km/h
3179 29-05-2010 12:08:01 20.9 C 6.01 g/m*3 20.9 C 0 km/h
3180 29-05-2010 12:20:01 21.8 C 5.76 g/m*3 21.8 C 0 km/h
3181 29-05-2010 12:32:01 21.6 C 5.12 g/m*3 21.6 C 0 km/h
3182 29-05-2010 12:44:01 21.2 C 5.19 g/m*3 21.2 C 0 km/h
3183 29-05-2010 12:56:01 23.1 C 5.17 g/m*3 23.1 C 0 km/h
3184 29-05-2010 13:08:01 24 C 4.79 g/m*3 24 C 0 km/h
3185 29-05-2010 13:20:02 25.1 C 5.32 g/m*3 25.1 C 0 km/h
3186 29-05-2010 13:32:01 25 C 4.6 g/m*3 25 C 0 km/h
3187 29-05-2010 13:44:01 25.5 C 4.73 g/m*3 25.5 C 0 km/h
3188 29-05-2010 13:56:02 24.6 C 4.73 g/m*3 24.6 C 0 km/h
3189 29-05-2010 14:08:01 23.7 C 5.13 g/m*3 23.7 C 0 km/h
3190 29-05-2010 14:20:02 23.8 C 5.38 g/m*3 23.8 C 0 km/h
3191 29-05-2010 14:32:01 23.7 C 5.13 g/m*3 23.7 C 0 km/h
3192 29-05-2010 14:44:01 23.3 C 5.23 g/m*3 23.3 C 0 km/h
3193 29-05-2010 14:56:03 22.6 C 5.62 g/m*3 22.6 C 0 km/h
3194 29-05-2010 15:08:02 23 C 5.55 g/m*3 23 C 0 km/h
3195 29-05-2010 15:20:03 22.5 C 5.19 g/m*3 22.5 C 0 km/h
3196 29-05-2010 15:32:02 22.7 C 6.06 g/m*3 22.7 C 0 km/h
3197 29-05-2010 15:44:02 23.5 C 5.08 g/m*3 23.5 C 0 km/h
3198 29-05-2010 15:56:02 23.4 C 4.84 g/m*3 23.4 C 0 km/h
3199 29-05-2010 16:08:02 23.5 C 4.86 g/m*3 23.5 C 0 km/h
3200 29-05-2010 16:20:02 24.5 C 5.15 g/m*3 24.5 C 0 km/h
Sensor: Nr:Datum:Temp:Abs-Feuchte:Windchill:Wind:
Aussen-T/F 3201 29-05-2010 16:32:02 24.4 C 4.9 g/m*3 24.4 C 0 km/h
3202 29-05-2010 16:44:02 24.5 C 5.15 g/m*3 24.5 C 0 km/h
3203 29-05-2010 16:56:02 25.2 C 4.89 g/m*3 25.2 C 0 km/h
3204 29-05-2010 17:08:02 25.1 C 5.79 g/m*3 25.1 C 0 km/h
3205 29-05-2010 17:20:03 24.9 C 5.72 g/m*3 24.9 C 0 km/h
3206 29-05-2010 17:32:02 23.5 C 5.92 g/m*3 23.5 C 0 km/h
3207 29-05-2010 17:44:02 23.3 C 6.27 g/m*3 23.3 C 0 km/h
3208 29-05-2010 17:56:02 23 C 5.96 g/m*3 23 C 0 km/h
3209 29-05-2010 18:08:02 22.4 C 6.16 g/m*3 22.4 C 0 km/h
3210 29-05-2010 18:20:02 22 C 6.21 g/m*3 22 C 0 km/h
3211 29-05-2010 18:32:03 21.6 C 6.45 g/m*3 21.6 C 0 km/h
3212 29-05-2010 18:44:03 21.3 C 5.78 g/m*3 21.3 C 0 km/h
3213 29-05-2010 18:56:02 21.2 C 5.56 g/m*3 21.2 C 0 km/h
3214 29-05-2010 19:08:01 21.2 C 5.56 g/m*3 21.2 C 0 km/h
3215 29-05-2010 19:20:02 21 C 5.13 g/m*3 21 C 0 km/h
3216 29-05-2010 19:32:02 20.4 C 5.31 g/m*3 20.4 C 0 km/h
3217 29-05-2010 19:44:02 20.3 C 5.28 g/m*3 20.3 C 0 km/h
3218 29-05-2010 19:56:02 20.4 C 5.48 g/m*3 20.4 C 0 km/h
3219 29-05-2010 20:08:02 20 C 5.53 g/m*3 20 C 0 km/h
3220 29-05-2010 20:20:02 19.6 C 5.74 g/m*3 19.6 C 0 km/h
3221 29-05-2010 20:32:02 19.4 C 5.84 g/m*3 19.4 C 0 km/h
3222 29-05-2010 20:44:02 18.9 C 6.32 g/m*3 18.9 C 0 km/h
3223 29-05-2010 20:56:02 18.6 C 6.37 g/m*3 18.6 C 0 km/h
3224 29-05-2010 21:08:02 18.4 C 5.98 g/m*3 18.4 C 0 km/h
3225 29-05-2010 21:20:02 18.3 C 5.79 g/m*3 18.3 C 0 km/h
Sensor: Nr:Datum:Temp:Abs-Feuchte:Windchill:Wind:
Aussen-T/F 3226 29-05-2010 21:32:02 17.6 C 6.9 g/m*3 17.6 C 0 km/h
3227 29-05-2010 21:44:02 16.4 C 6.84 g/m*3 16.4 C 0 km/h
3228 29-05-2010 21:56:02 14.6 C 8.13 g/m*3 14.6 C 0 km/h
3229 29-05-2010 22:08:02 13.8 C 8.94 g/m*3 13.8 C 0 km/h
3230 29-05-2010 22:20:01 13.3 C 9.01 g/m*3 13.3 C 0 km/h
3231 29-05-2010 22:32:01 13.9 C 9.47 g/m*3 13.9 C 0 km/h
3232 29-05-2010 22:44:01 14.3 C 8.97 g/m*3 14.3 C 0 km/h
3233 29-05-2010 22:57:02 14.5 C 8.95 g/m*3 14.5 C 0 km/h
3234 29-05-2010 23:09:02 14.5 C 8.71 g/m*3 14.5 C 0 km/h
3235 29-05-2010 23:21:02 14.4 C 8.65 g/m*3 14.4 C 0 km/h
3236 29-05-2010 23:33:02 13.7 C 8.76 g/m*3 13.7 C 0 km/h
3237 29-05-2010 23:45:02 12.8 C 8.96 g/m*3 12.8 C 0 km/h
3238 29-05-2010 23:57:02 13.2 C 9.42 g/m*3 13.2 C 0 km/h
3239 30-05-2010 00:09:02 13.2 C 9.53 g/m*3